     2.10           OBSERVATION DATA    G (GPS)             RINEX VERSION / TYPE
teqc 2005May6 SOPAC 20050707 00:25:35UTC                    PGM / RUN BY / DATE
Linux 2.4.20-8|Pentium IV|gcc|Linux|486/DX+                 COMMENT
BIT 2 OF LLI FLAGS DATA COLLECTED UNDER A/S CONDITION       COMMENT
HPGN D CA 01 TD                                             MARKER NAME
01TD                                                        MARKER NUMBER
Tom Stephens                                                OBSERVER / AGENCY
0440100994 TRIMBLE 5700 2.01                                REC # / TYPE / VERS
12354346 TRM41249.00 NONE                                   ANT # / TYPE
 -2670149.0000 -3995315.0000  4179885.0000                  APPROX POSITION XYZ
        1.8000        0.0000        0.0000                  ANTENNA: DELTA H/E/N
     1     1                                                WAVELENGTH FACT L1/2
     6    L1    L2    C1    P2    P1    D1                  # / TYPES OF OBSERV
    15.0000                                                 INTERVAL
Northern California Height Modernization 2004               COMMENT
                                                            COMMENT
SOPAC - Scripps Orbit and Permanent Array Center            COMMENT
IGPP - Institute of Geophysics and Planetary Physics        COMMENT
SIO - Scripps Institution of Oceanography                   COMMENT
UCSD - University of California, San Diego                  COMMENT
                                                            COMMENT
email: archive@gpsmail.ucsd.edu                             COMMENT
ftp://garner.ucsd.edu                                       COMMENT
http://sopac.ucsd.edu                                       COMMENT
                                                            COMMENT
                                                            COMMENT
Approximate Lat, Lon : 41.200, -123.750                     COMMENT
                                                            COMMENT
SNR is mapped to RINEX snr flag value [0-9]                 COMMENT
L1 & L2: 2-19 dBHz = 1, 20-27 dBHz = 2, 28-31 dBHz = 3      COMMENT
32-35 dBHz = 4, 36-38 dBHz = 5, 39-41 dBHz = 6              COMMENT
42-44 dBHz = 7, 45-48 dBHz = 8, >= 49 dBHz = 9              COMMENT
  2004     9     8    15     0   30.0000000     GPS         TIME OF FIRST OBS
                                                            END OF HEADER
 04  9  8 15  0 30.0000000  0  6G11G14G15G19G22G25
   -131047.33259    -78133.43054  22119649.0394   22119644.9104
     10212.63759
      1480.38356                  20868008.4224   20868005.0314

     82598.30558     41749.20753  23010659.9534   23010659.0594
     39901.77058
     18233.03953                  23197247.2504   23197244.0704
     30471.77757
     13494.58652                  22705258.8284   22705254.9534

   -159595.37958    -92972.18054  22516971.2664   22516969.1844

 04  9  8 15  0 45.0000000  0  7G11G14G15G19G22G25G 1
   -184077.14149   -119455.36344  22109557.4224   22109553.9844
      3535.3214
     14178.00049      4570.25446  20868762.9774   20868759.4804
      -264.3584
    115749.98448     67581.64543  23016969.4064   23016968.0744
     -2210.1124
     56032.63748     30802.51243  23200317.1484   23200313.0274
     -1075.3914
     43263.62147     23462.27342  22707692.8364   22707687.4104
      -852.7904
   -223857.01648   -143046.17244  22504742.4844   22504740.6054
      4284.1094
   -149882.63758   -102629.05553  22767174.1954   22767172.8524

 04  9  8 15  1  0.0000000  0  7G11G14G15G19G22G25G 1
   -237003.97749   -160697.06644  22099486.3444   22099482.0904
      3528.4564
     18235.62149      7732.03146  20869534.7274   20869531.6374
      -270.5084
    148962.27347     93461.27043  23023288.3054   23023288.6374
     -2214.1534
     72242.65648     43433.68443  23203401.8594   23203397.8834
     -1080.6684
     56095.18048     33460.83242  22710135.2424   22710130.6054
      -855.4374
   -288045.12548   -193062.85244  22492527.9064   22492525.9804
      4279.2074
   -213329.16048   -152067.91043  22755100.5704   22755099.4614
      4229.7684
 04  9  8 15  1 15.0000000  0  7G11G14G15G19G22G25G 1
   -289794.70349   -201832.70344  22089439.8284   22089436.4924
      3519.3824
     22418.21149     10991.18046  20870330.6484   20870327.4804
      -278.8394
    182267.73447    119413.53943  23029626.7274   23029626.2664
     -2220.3644
     88564.36348     56151.85243  23206507.7814   23206504.6254
     -1088.1144
     68999.20347     43515.87942  22712590.5784   22712586.0784
      -860.2684
   -352126.44148   -242996.31644  22480333.3444   22480331.8674
      4272.0884
   -276673.16048   -201426.85243  22743046.8594   22743045.5744
      4222.9334
 04  9  8 15  1 30.0000000  0  7G11G14G15G19G22G25G 1
   -342431.14849   -242848.12944  22079423.4774   22079420.2034
      3509.0964
     26743.40649     14361.44546  20871153.8054   20871150.6604
      -288.3464
    215684.03947    145452.19143  23035985.4144   23035985.0314
     -2227.7544
    105015.19947     68970.65643  23209637.7194   23209634.8444
     -1096.7224
     81993.60247     53641.35242  22715063.7114   22715059.2234
      -866.2934
   -416082.81648   -292832.44144  22468163.2114   22468161.5084
      4263.7584
   -339896.62548   -250691.87543  22731015.3364   22731014.7154
      4214.8984
 04  9  8 15  1 45.0000000  0  7G11G14G15G19G22G25G 1
   -394908.18449   -283739.32844  22069437.1954   22069433.9454
      3498.4694
     31215.87549     17846.47346  20872005.0164   20872001.6484
      -298.1654
    249215.93447    171580.88343  23042366.3444   23042365.7464
     -2235.4604
    121599.86748     81893.73843  23212794.6414   23212790.8984
     -1105.6454
     95083.37547     63841.19942  22717553.9144   22717549.7424
      -872.6524
   -479908.89548   -342567.04344  22456017.3054   22456015.5664
      4255.0724
   -402994.39848   -299858.94943  22719008.9694   22719006.9454
      4206.5184
 04  9  8 15  2  0.0000000  0  7G11G14G15G19G22G25G 1
   -447223.88349   -324504.81644  22059481.9224   22059478.7234
      3487.7134
     35836.98049     21447.31646  20872884.3914   20872881.1764
      -308.0744
    282864.68447    197800.62943  23048769.0314   23048768.8524
     -2243.2504
    138319.44947     94921.97343  23215974.7194   23215971.8014
     -1114.6394
    108270.12147     74116.50842  22720064.3364   22720058.5004
      -879.1164
   -543602.75848   -392198.62544  22443896.8284   22443895.0164
      4246.2584
   -465964.82048   -348926.84043  22707026.7504   22707024.5234
      4198.0284
 04  9  8 15  2 15.0000000  0  7G11G14G15G19G22G25G 1
   -499380.56249   -365146.40244  22049557.4384   22049553.8554
      3477.1124
     40603.86749     25161.76246  20873791.2344   20873788.3324
      -317.7924
    316627.44547    224109.23443  23055193.3524   23055193.8484
     -2250.8514
    155170.98848    108053.01243  23219182.6724   23219177.8204
     -1123.4364
    121551.05947     84465.28542  22722590.6414   22722585.9804
      -885.3964
   -607166.69148   -441728.94944  22431801.4224   22431799.4104
      4237.5964
   -528810.41048   -397897.43043  22695066.7664   22695064.5434
      4189.7064
 04  9  8 15  2 30.0000000  0  7G11G14G15G19G22G25G 1
   -551378.61749   -405664.37144  22039662.6484   22039658.6524
      3466.5374
     45515.60549     28989.08246  20874726.2504   20874722.7034
      -327.4494
    350503.30147    250505.94942  23061640.9064   23061640.2464
     -2258.3904
    172153.47347    121286.09843  23222414.3134   23222410.0744
     -1132.1664
    134925.60947     94886.98442  22725136.3444   22725131.6684
      -891.6374
   -670601.04748   -491158.31244  22419730.1414   22419728.1374
      4228.9574
   -591531.62948   -446771.09443  22683130.7894   22683129.5234
      4181.4154
 04  9  8 15  2 45.0000000  0  7G11G14G15G19G22G25G 1
   -603218.92249   -446059.43044  22029797.0164   22029793.6214
      3456.0204
     50570.98049     32928.32046  20875688.2194   20875684.8594
      -337.0254
    384490.87547    276989.75442  23068108.2664   23068107.6724
     -2265.8384
    189265.44548    134620.05943  23225671.2424   23225667.2704
     -1140.7984
    148392.59447    105380.73042  22727697.6484   22727694.7854
      -897.7994
   -733906.58648   -540487.29744  22407683.5234   22407681.6524
      4220.3694
   -654129.47748   -495548.61343  22671219.1804   22671217.7074
      4173.1904
 04  9  8 15  3  0.0000000  0  7G11G14G15G19G22G25G 1
   -654906.25049   -486335.27744  22019961.7734   22019957.7304
      3445.8224
     55764.61349     36975.30146  20876676.6024   20876673.3874
      -346.2424
    418584.93047    303556.48442  23074596.4304   23074595.1564
     -2272.9374
    206501.53147    148050.73043  23228950.4694   23228947.1524
     -1149.0724
    161947.19947    115942.69942  22730278.0784   22730274.4344
      -903.6404
   -797088.06648   -589719.60244  22395659.9694   22395658.5984
      4212.0994
   -716608.80548   -544233.80143  22659329.9844   22659328.3984
      4165.2894
 04  9  8 15  3 15.0000000  0  7G11G14G15G19G22G25G 1
   -706444.84849   -526495.23044  22010153.7814   22010150.3284
      3435.9074
     61091.73849     41126.29746  20877690.1954   20877686.7974
      -355.1424
    452780.70747    330202.52742  23081103.7344   23081102.5554
     -2279.7184
    223856.83247    161574.31643  23232253.5944   23232249.4224
     -1157.0204
    175584.58246    126569.25442  22732872.8284   22732869.4224
      -909.1594
   -860149.39148   -638858.27344  22383659.4144   22383658.5084
      4204.0884
   -778973.97748   -592830.01644  22647462.5314   22647460.8634
      4157.6784
 04  9  8 15  3 30.0000000  0  7G11G14G15G19G22G25G 1
   -757836.23449   -566540.48444  22000374.8444   22000370.7344
      3426.0924
     66550.29749     45379.71946  20878728.6024   20878725.1764
      -363.9044
    487076.20747    356926.22743  23087629.4774   23087628.7154
     -2286.3674
    241329.16448    175189.09443  23235577.5634   23235574.5634
     -1164.8224
    189303.10946    137258.98042  22735482.9694   22735479.1374
      -914.5684
   -923092.18748   -687904.60544  22371682.6644   22371680.6254
      4196.1864
   -841226.65248   -641338.59843  22635615.7584   22635615.4224
      4150.1784
 04  9  8 15  3 45.0000000  0  7G11G14G15G19G22G25G 1
   -809081.91449   -606472.19144  21990623.1414   21990619.3634
      3416.3794
     72138.27049     49733.96146  20879792.0634   20879789.4064
      -372.5324
    521469.25447    383725.96543  23094174.7194   23094174.0634
     -2292.8704
    258916.43448    188893.41843  23238924.9454   23238920.8984
     -1172.4854
    203100.90646    148010.48042  22738108.6334   22738104.2974
      -919.8534
   -985918.00448   -736859.79744  22359727.3984   22359725.1524
      4188.3884
   -903368.48448   -689760.78943  22623790.9304   22623789.4884
      4142.7894
 04  9  8 15  4  0.0000000  0  7G11G14G15G19G22G25G 1
   -860182.96549   -646291.19544  21980898.4454   21980895.1724
      3406.7374
     77854.14149     54187.87546  20880879.9614   20880876.8444
      -381.0584
    555958.30947    410600.50442  23100737.5394   23100736.5234
     -2299.2704
    276616.84047    202685.94943  23242292.2344   23242288.9964
     -1180.0274
    216976.60947    158822.66042  22740749.1954   22740745.0664
      -925.0474
  -1048627.75048   -785724.52344  22347793.8524   22347792.4344
      4180.6504
   -965400.75048   -738097.61344  22611986.3674   22611985.1994
      4135.4844
 04  9  8 15  4 15.0000000  0  7G11G14G15G19G22G25G 1
   -911141.00449   -685998.77044  21971201.8754   21971198.5314
      3397.2034
     83695.77749     58739.78946  20881991.4304   20881987.5234
      -389.4424
    590541.17247    437548.15642  23107318.8364   23107317.6334
     -2305.5244
    294428.16448    216564.86343  23245682.3054   23245679.2504
     -1187.4224
    230928.31647    169694.09842  22743404.1334   22743399.9144
      -930.1144
  -1111223.07848   -834500.10244  22335882.5234   22335880.9884
      4173.0224
  -1027325.21148   -786350.43044  22600201.9694   22600201.2814
      4128.2974
 04  9  8 15  4 30.0000000  0  7G11G14G15G19G22G25G 1
   -961959.13349   -725597.32444  21961531.2734   21961527.6884
      3387.8754
     89659.49249     63386.82446  20883126.4144   20883123.7894
      -397.5814
    625214.20347    464566.06642  23113916.8444   23113915.5434
     -2311.5354
    312346.73448    230527.34043  23249092.4064   23249089.1134
     -1194.5714
    244952.75447    180622.17642  22746073.7974   22746068.0124
      -934.9624
  -1173706.96548   -883188.81244  22323991.8444   22323990.2854
      4165.5924
  -1089145.12548   -834521.75443  22588438.7734   22588437.5394
      4121.3284
 04  9  8 15  4 45.0000000  0  7G11G14G15G19G22G25G 1
  -1012641.15249   -765089.81244  21951886.8054   21951883.8014
      3378.8014
     95741.05949     68125.69146  20884283.6174   20884280.6564
      -405.4384
    659973.02047    491650.80543  23120530.6644   23120530.5984
     -2317.2544
    330367.92647    244569.79343  23252521.7114   23252518.0704
     -1201.4134
    259045.80947    191603.76642  22748755.4454   22748749.9924
      -939.5374
  -1236083.14148   -931793.63744  22312122.5554   22312119.9614
      4158.4124
  -1150864.36748   -882614.66843  22576693.4534   22576692.4184
      4114.6164
 04  9  8 15  5  0.0000000  0  7G11G14G15G19G22G25G 1
  -1063187.87149   -804476.87144  21942268.1564   21942264.9734
      3369.7814
    101939.21549     72955.41046  20885463.2734   20885459.8714
      -413.2104
    694816.52047    518801.52042  23127162.1254   23127160.9494
     -2322.9004
    348490.61347    258691.33243  23255969.8834   23255965.8554
     -1208.1794
    273206.39147    202637.99242  22751450.1484   22751444.4964
      -944.0394
  -1298352.26248   -980315.01244  22300272.4844   22300270.9104
      4151.2754
  -1212483.83648   -930629.81244  22564968.3594   22564966.7544
      4107.9654
 04  9  8 15  5 15.0000000  0  7G11G14G15G19G22G25G 1
  -1113601.09449   -843759.90644  21932675.0164   21932671.4804
      3360.8824
    108251.57849     77874.12946  20886664.1644   20886661.8014
      -420.8244
    729742.23048    546016.32442  23133808.1644   23133806.7974
     -2328.3814
    366712.16448    272889.91443  23259437.5944   23259434.4224
     -1214.7704
    287432.37547    213723.15642  22754157.0634   22754152.4454
      -948.3994
  -1360516.10248  -1028754.35944  22288442.9694   22288441.6334
      4144.2564
  -1274005.44148   -978568.71944  22553261.5554   22553259.4064
      4101.4404
 04  9  8 15  5 30.0000000  0  7G11G14G15G19G22G25G 1
  -1163884.19549   -882941.55545  21923106.3054   21923102.6884
      3352.2074
    114674.54349     82879.02346  20887886.4064   20887883.6024
      -428.1984
    764746.47747    573292.31642  23140469.0944   23140467.1564
     -2333.6164
    385028.73447    287162.54343  23262923.9694   23262919.8094
     -1221.1054
    301720.33647    224856.59042  22756875.9454   22756871.6484
      -952.5314
  -1422577.93748  -1077114.20744  22276632.7814   22276631.8284
      4137.4564
  -1335432.60248  -1026434.02744  22541572.0474   22541570.2584
      4095.1444
 04  9  8 15  5 45.0000000  0  7G11G14G15G19G22G25G 1
  -1214036.60549   -922021.35944  21913562.4774   21913559.1254
      3343.4944
    121207.93049     87969.97346  20889129.6414   20889126.2344
      -435.5594
    799829.04747    600629.36342  23147144.7504   23147142.8954
     -2338.8384
    403440.12948    301509.05143  23266428.1024   23266423.0084
     -1227.4264
    316070.35547    236038.42242  22759606.7734   22759602.9964
      -956.6684
  -1484537.05948  -1125394.03944  22264843.2424   22264841.2424
      4130.6084
  -1396764.98048  -1074225.50044  22529900.5164   22529899.1174
      4088.8254
 04  9  8 15  6  0.0000000  0  7G11G14G15G19G22G25G 1
  -1264058.53149   -960999.48845  21904043.8204   21904040.2894
      3334.7954
    127851.06349     93146.42246  20890393.9614   20890390.7304
      -442.8764
    834989.41047    628026.98442  23153836.2734   23153834.8094
     -2344.0244
    421945.56647    315928.87543  23269948.0234   23269944.7584
     -1233.6964
    330481.96546    247268.21142  22762349.0004   22762344.6884
      -960.7744
  -1546393.70749  -1173594.00844  22253072.2424   22253070.4024
      4123.7774
  -1458002.97748  -1121943.41443  22518246.3364   22518245.6684
      4082.5334
 04  9  8 15  6 15.0000000  0  7G11G14G15G19G22G25G 1
  -1313951.57849   -999877.19144  21894549.3054   21894545.9104
      3326.2034
    134601.73849     98406.68446  20891678.4064   20891675.4344
      -450.0454
    870225.30548    655483.48443  23160541.3054   23160540.5204
     -2349.0604
    440542.81648    330420.19943  23273488.3914   23273484.6884
     -1239.8174
    344953.38746    258544.65642  22765103.2504   22765098.7034
      -964.7614
  -1608149.33248  -1221715.26244  22241320.2584   22241318.7304
      4117.0424
  -1519148.30148  -1169589.10244  22506611.4614   22506609.8834
      4076.3554
 04  9  8 15  6 30.0000000  0  7G11G14G15G19G22G25G 1
  -1363716.61749  -1038655.14844  21885079.7664   21885075.8794
      3317.6694
    141458.50049    103749.59846  20892983.4614   20892979.9924
      -457.1174
    905535.16447    682997.61342  23167260.2504   23167259.1954
     -2353.9914
    459230.16047    344981.71943  23277042.7974   23277040.4344
     -1245.8234
    359483.17246    269866.53942  22767867.5634   22767864.0984
      -968.6524
  -1669804.91848  -1269758.55544  22229587.5944   22229586.2274
      4110.3724
  -1580202.09048  -1217163.47344  22494994.2424   22494992.1524
      4070.2534
 04  9  8 15  6 45.0000000  0  7G11G14G15G19G22G25G 1
  -1413353.28549  -1077333.07844  21875634.1174   21875630.3014
      3309.1114
    148421.46149    109175.27746  20894308.3594   20894304.9734
      -464.1974
    940919.03548    710569.43042  23173993.6804   23173991.6994
     -2358.9254
    478007.50847    359613.37143  23280616.0394   23280613.3874
     -1251.8234
    374071.69546    281234.20742  22770642.9224   22770639.6054
      -972.5684
  -1731359.89548  -1317723.45344  22217874.0704   22217872.5704
      4103.6654
  -1641163.93448  -1264666.22344  22483393.0394   22483391.9774
      4064.1234
 04  9  8 15  7  0.0000000  0  7G11G14G15G19G22G25G 1
  -1462862.50449  -1115911.69944  21866213.0084   21866209.1174
      3300.6154
    155489.02049    114682.44546  20895653.6254   20895650.5044
      -471.1714
    976375.43848    738197.75842  23180740.2664   23180739.3054
     -2363.7604
    496873.16848    374313.87943  23284207.0864   23284202.8914
     -1257.7114
    388717.65247    292646.62142  22773431.1024   22773426.8204
      -976.3974
  -1792815.10948  -1365610.62544  22206179.3754   22206178.5434
      4097.0144
  -1702035.01248  -1312098.19944  22471809.1724   22471808.2384
      4058.0724
 04  9  8 15  7 15.0000000  0  7G11G14G15G19G22G25G 1
  -1512243.49649  -1154390.39545  21856816.0474   21856812.4104
      3292.0664
    162661.52049    120271.39546  20897018.4774   20897014.8954
      -478.1674
   1011904.57847    765882.74642  23187501.5634   23187501.1604
     -2368.6094
    515827.47748    389083.44543  23287814.4534   23287810.4774
     -1263.6214
    403421.73446    304104.30942  22776228.8754   22776224.4304
      -980.2724
  -1854169.71548  -1413419.40244  22194504.5164   22194502.6884
      4090.3074
  -1762814.50848  -1359458.84444  22460243.3204   22460242.4574
      4051.9664
 04  9  8 15  7 30.0000000  0  7G11G14G15G19G22G25G 1
  -1561499.08249  -1192771.37545  21847442.5234   21847439.0634
      3283.7064
    169935.69949    125939.58646  20898402.4614   20898399.0044
      -484.9454
   1047503.30947    793621.90742  23194276.5234   23194276.2934
     -2373.2494
    534866.93047    403919.34843  23291435.5944   23291433.5354
     -1269.2974
    418180.71947    315604.76242  22779038.7504   22779033.1374
      -983.9324
  -1915426.44948  -1461151.91044  22182847.1254   22182845.4414
      4083.7824
  -1823505.46548  -1406750.47744  22448694.8054   22448693.3054
      4046.0644
 04  9  8 15  7 45.0000000  0  7G11G14G15G19G22G25G 1
  -1610632.51649  -1231057.18044  21838092.9144   21838089.5274
      3275.5624
    177307.77049    131684.03946  20899805.0944   20899802.8094
      -491.4714
   1083167.70347    821412.33642  23201063.0554   23201062.3014
     -2377.6264
    553987.64848    418818.57843  23295075.7114   23295071.4104
     -1274.7154
    432990.99247    327145.25442  22781855.8834   22781851.4614
      -987.3524
  -1976588.53548  -1508810.66044  22171208.8674   22171206.9654
      4077.4724
  -1884111.29748  -1453975.78944  22437161.1254   22437160.2584
      4040.3894
 04  9  8 15  8  0.0000000  0  7G11G14G15G19G22G25G 1
  -1659640.59049  -1269245.28945  21828767.2504   21828763.7234
      3267.2054
    184780.56649    137506.98446  20901227.4144   20901224.4534
      -498.1864
   1118900.46548    849256.02742  23207863.0864   23207861.8834
     -2382.1844
    573192.23448    433783.16843  23298730.5704   23298726.3444
     -1280.3064
    447855.69147    338728.12942  22784684.6334   22784680.1214
      -990.9804
  -2037652.62948  -1556393.06644  22159588.2734   22159587.0704
      4070.9404
  -1944628.77748  -1501132.26244  22425645.4064   22425644.1054
      4034.4994
 04  9  8 15  8 15.0000000  0  7G11G14G15G19G22G25G 1
  -1708527.64149  -1307339.10245  21819464.1254   21819460.4024
      3259.1374
    192349.19949    143404.60946  20902667.5704   20902664.0634
      -504.5764
   1154696.70747    877149.19542  23214674.2974   23214672.8164
     -2386.4164
    592475.68847    448809.14843  23302400.0554   23302395.7704
     -1285.5644
    462770.00047    350349.64142  22787523.0634   22787518.0944
      -994.2874
  -2098623.06648  -1603902.48444  22147985.9304   22147984.9534
      4064.6964
  -2005062.52748  -1548223.47744  22414145.0634   22414144.6294
      4028.9174
 04  9  8 15  8 30.0000000  0  7G11G14G15G19G22G25G 1
  -1757292.68449  -1345337.84044  21810184.1804   21810180.6214
      3251.0034
    200014.11749    149377.26646  20904126.2664   20904122.7154
      -510.9954
   1190557.04747    905092.22342  23221497.9144   23221496.8634
     -2390.6894
    611838.33647    463896.95743  23306084.0634   23306079.7814
     -1290.8434
    477734.75847    362010.44942  22790370.9454   22790365.8094
      -997.6514
  -2159498.78148  -1651338.10544  22136402.2344   22136400.5944
      4058.3814
  -2065411.58247  -1595248.73044  22402660.6334   22402660.4844
      4023.2704
 04  9  8 15  8 45.0000000  0  7G11G14G15G19G22G25G 1
  -1805935.58249  -1383241.40245  21800927.8444   21800924.2894
      3242.8604
    207774.87149    155424.58646  20905602.9694   20905600.2384
      -517.3844
   1226480.91847    933084.80542  23228335.4144   23228333.1954
     -2394.9254
    631279.72747    479046.04343  23309783.8594   23309779.4384
     -1296.0934
    492749.68446    373710.37942  22793227.8134   22793223.2154
     -1000.9954
  -2220279.62147  -1698699.77744  22124835.4144   22124834.4224
      4052.0564
  -2125676.10947  -1642208.07444  22391193.1884   22391192.6884
      4017.6354
 04  9  8 15  9  0.0000000  0  7G11G14G15G19G22G25G 1
  -1854456.56249  -1421049.96545  21791694.9384   21791691.4104
      3234.7324
    215630.73049    161546.02346  20907097.9774   20907094.7814
      -523.7244
   1262467.68047    961126.38342  23235182.8984   23235181.0904
     -2399.1174
    650798.89147    494255.73443  23313497.9614   23313494.6294
     -1301.2784
    507814.41446    385449.10542  22796094.2274   22796089.9414
     -1004.3154
  -2280965.78147  -1745987.68044  22113287.3284   22113285.9384
      4045.7444
  -2185856.35247  -1689101.77344  22379741.0634   22379739.7384
      4012.0164
 04  9  8 15  9 15.0000000  0  7G11G14G15G19G22G25G 1
  -1902855.00849  -1458763.03145  21782485.3054   21782481.4734
      3226.5634
    223582.00449    167741.81646  20908611.0784   20908607.7074
      -530.0854
   1298517.43847    989217.10942  23242042.3834   23242040.9614
     -2403.3174
    670395.89547    509526.09043  23317227.2734   23317224.3524
     -1306.4674
    522929.28547    397226.92642  22798971.0474   22798966.6804
     -1007.6584
  -2341556.44148  -1793201.16044  22101757.5554   22101755.6604
      4039.3774
  -2245951.73048  -1735929.32044  22368305.5164   22368304.8484
      4006.3594
 04  9  8 15  9 30.0000000  0  7G11G14G15G19G22G25G 1
  -1951133.30949  -1496382.48844  21773298.1094   21773294.5084
      3218.5534
    231625.79349    174009.69146  20910142.0084   20910138.8094
      -536.2534
   1334627.37948   1017354.68042  23248914.5084   23248912.8164
     -2407.3294
    690067.96947    524854.93042  23320971.1804   23320967.2154
     -1311.4724
    538091.91446    409041.94542  22801855.2584   22801851.7034
     -1010.8424
  -2402053.79748  -1840341.95344  22090245.2194   22090243.5824
      4033.1574
  -2305964.78948  -1782692.72744  22356885.8364   22356884.3754
      4000.8714
 04  9  8 15  9 45.0000000  0  7G11G14G15G19G22G25G 1
  -1999290.06649  -1533907.24245  21764133.8834   21764130.3324
      3210.4514
    239762.87549    180350.25846  20911690.3204   20911687.2814
      -542.4724
   1370798.17647   1045539.68042  23255797.6024   23255796.2464
     -2411.3864
    709815.56347    540242.65243  23324728.6644   23324725.2114
     -1316.5064
    553303.04346    420894.76642  22804750.5784   22804745.8524
     -1014.0754
  -2462456.43448  -1887408.93044  22078750.7814   22078749.6024
      4026.8424
  -2365894.43748  -1829391.15244  22345480.6804   22345479.9104
      3995.3104
 04  9  8 15 10  0.0000000  0  7G11G14G15G19G22G25G 1
  -2047324.07449  -1571336.35245  21754993.5394   21754989.6174
      3202.2674
    247993.94549    186764.06346  20913256.8134   20913253.1454
      -548.7384
   1407030.63747   1073772.72742  23262691.7274   23262690.7424
     -2415.4974
    729639.27747    555689.65642  23328501.5944   23328496.7464
     -1321.5814
    568563.71946    432786.16442  22807655.2344   22807649.9144
     -1017.3784
  -2522763.14848  -1934401.15644  22067274.5474   22067273.3914
      4020.4484
  -2425739.56248  -1876023.69944  22334092.8444   22334091.6484
      3989.6754
 04  9  8 15 10 15.0000000  0  7G11G14G15G19G22G25G 1
  -2095237.23449  -1608671.27744  21745875.6644   21745872.1844
      3194.2114
    256316.69949    193249.32046  20914840.4144   20914836.8524
      -554.8504
   1443322.45747   1102051.98842  23269598.7894   23269596.2664
     -2419.4554
    749536.68847    571194.12542  23332287.1254   23332283.3554
     -1326.4944
    583871.85546    444714.57842  22810566.7734   22810563.2274
     -1020.5424
  -2582975.71548  -1981320.02744  22055816.7194   22055814.7664
      4014.1714
  -2485502.07448  -1922591.87544  22322720.6724   22322719.1954
      3984.1674
 04  9  8 15 10 30.0000000  0  7G11G14G15G19G22G25G 1
  -2143031.89149  -1645913.87544  21736781.0634   21736777.5514
      3186.3104
    264728.25449    199803.77046  20916441.1094   20916438.0904
      -560.7704
   1479670.45347   1130375.06642  23276515.5864   23276513.0354
     -2423.2004
    769504.78147    586753.60943  23336086.9384   23336083.5784
     -1331.2064
    599224.76246    456677.84442  22813488.7974   22813484.6484
     -1023.5274
  -2643096.45348  -2028167.35244  22044376.1954   22044374.2584
      4008.0494
  -2545184.56649  -1969097.71544  22311363.7814   22311362.0164
      3978.8334
 04  9  8 15 10 45.0000000  0  7G11G14G15G19G22G25G 1
  -2190706.46149  -1683062.88744  21727708.5554   21727705.2304
      3178.3054
    273229.73049    206428.28146  20918058.5314   20918055.7704
      -566.7654
   1516075.83648   1158742.84442  23283442.9694   23283442.2624
     -2427.0264
    789544.63747    602369.08243  23339900.7814   23339896.7194
     -1335.9904
    614623.82446    468677.07842  22816419.4924   22816416.3444
     -1026.6044
  -2703123.69948  -2074941.80544  22032953.4614   22032951.6374
      4001.8164
  -2604785.51648  -2015540.01644  22300021.8284   22300020.3634
      3973.3974
 04  9  8 15 11  0.0000000  0  7G11G14G15G19G22G25G 1
  -2238262.09449  -1720119.23445  21718659.2114   21718655.7774
      3170.3764
    281819.48049    213121.58646  20919693.6254   20919690.4614
      -572.6504
   1552536.93447   1187154.07042  23290381.1484   23290380.2344
     -2430.7404
    809654.36347    618038.96143  23343727.0164   23343723.7974
     -1340.6484
    630067.49246    480711.08642  22819358.0234   22819354.5124
     -1029.5784
  -2763058.60248  -2121644.31644  22021547.6414   22021546.2074
      3995.6604
  -2664306.27048  -2061919.81644  22288695.3444   22288693.9344
      3968.0504
 04  9  8 15 11 15.0000000  0  7G11G14G15G19G22G25G 1
  -2285698.27349  -1757082.49645  21709631.9534   21709628.8594
      3162.4124
    290497.48849    219883.65646  20921344.7894   20921341.0124
      -578.5344
   1589053.79347   1215608.73042  23297329.9614   23297328.1564
     -2434.4574
    829833.80547    633763.18843  23347567.5164   23347564.0314
     -1345.2964
    645556.06346    492780.08242  22822306.3834   22822301.9144
     -1032.5714
  -2822900.45348  -2168274.32844  22010160.5394   22010158.7814
      3989.4574
  -2723746.43048  -2108236.80544  22277383.9144   22277383.0824
      3962.6774
 04  9  8 15 11 30.0000000  0  7G11G14G15G19G22G25G 1
  -2333015.22349  -1793952.84844  21700628.2584   21700624.8324
      3154.4634
    299263.19149    226714.06346  20923012.8204   20923009.8444
      -584.3804
   1625625.77747   1244106.31642  23304289.7274   23304288.4924
     -2438.1324
    850082.29748    649541.16843  23351421.0864   23351417.0474
     -1349.8994
    661089.22246    504883.78942  22825261.7734   22825257.8634
     -1035.5444
  -2882649.36348  -2214831.89844  21998790.4384   21998789.4774
      3983.2614
  -2783106.24648  -2154491.19944  22266088.3674   22266087.1884
      3957.3214
 04  9  8 15 11 45.0000000  0  7G11G14G15G19G22G25G 1
  -2380213.31249  -1830730.58245  21691646.0864   21691642.8634
      3146.5394
    308115.64549    233612.06646  20924697.2734   20924694.0594
      -590.1644
   1662251.90647   1272646.14542  23311259.3444   23311258.0164
     -2441.7424
    870398.62547    665372.05542  23355287.0164   23355282.3554
     -1354.4224
    676666.27346    517021.74642  22828226.1024   22828221.7854
     -1038.4704
  -2942305.66848  -2261317.31644  21987438.4384   21987436.9264
      3977.0874
  -2842386.27748  -2200683.41844  22254807.9924   22254806.7624
      3952.0024
 04  9  8 15 12  0.0000000  0  7G11G14G15G19G22G25G 1
  -2427290.78149  -1867414.32445  21682687.9224   21682684.5394
      3138.4984
    317056.21149    240578.72746  20926398.8524   20926395.7274
      -596.0384
   1698933.52047   1301229.17242  23318239.9144   23318238.6174
     -2445.4414
    890784.12547    681256.84442  23359166.5164   23359161.6564
     -1359.0334
    692288.69146    529195.04742  22831198.3204   22831194.2154
     -1041.4954
  -3001867.53148  -2307729.14144  21976103.9064   21976102.8524
      3970.7914
  -2901584.88348  -2246812.19544  22243542.6174   22243541.9064
      3946.5744
 04  9  8 15 12 15.0000000  0  7G11G14G15G19G22G25G 1
  -2474248.55949  -1904004.80945  21673752.1564   21673748.9344
      3130.5184
    326083.34849    247612.84846  20928116.5944   20928113.2664
      -601.8094
   1735669.03547   1329854.20742  23325230.1334   23325229.1134
     -2449.0344
    911237.16447    697194.22343  23363058.1644   23363054.5984
     -1363.5364
    707955.34046    541402.78142  22834179.6644   22834175.7424
     -1044.4434
  -3061335.89849  -2354068.13744  21964787.3834   21964785.8324
      3964.5584
  -2960703.10948  -2292878.34044  22232292.8914   22232291.9844
      3941.2154
 04  9  8 15 12 30.0000000  0  7G11G14G15G19G22G25G 1
  -2521086.08249  -1940501.57445  21664839.4924   21664836.3364
      3122.5024
    335197.10549    254714.46946  20929850.7274   20929847.4494
      -607.5844
   1772458.53147   1358521.29342  23332231.0704   23332228.8914
     -2452.6334
    931757.60947    713184.13742  23366963.5864   23366959.1524
     -1368.0304
    723666.32846    553645.05942  22837170.0234   22837165.2934
     -1047.3994
  -3120710.15248  -2400333.76244  21953489.2504   21953487.0204
      3958.2844
  -3019740.60548  -2338881.56644  22221057.6954   22221057.1524
      3935.8334
 04  9  8 15 12 45.0000000  0  7G11G14G15G19G22G25G 1
  -2567805.42649  -1976906.27044  21655949.1484   21655945.6844
      3114.6234
    344395.03149    261881.66446  20931601.3914   20931597.8524
      -613.1954
   1809299.43447   1387228.46942  23339241.1334   23339239.6294
     -2456.0604
    952342.84847    729224.53542  23370880.4844   23370877.2344
     -1372.3494
    739419.53146    565920.25042  22840167.4224   22840163.1374
     -1050.2144
  -3179992.11749  -2446527.50044  21942208.0634   21942205.9734
      3952.1314
  -3078699.52348  -2384823.57444  22209838.4144   22209837.5354
      3930.5954
 04  9  8 15 13  0.0000000  0  7G11G14G15G19G22G25G 1
  -2614406.41449  -2013218.73445  21647081.5234   21647077.9964
      3106.7334
    353676.84449    269114.24246  20933367.8674   20933364.2424
      -618.7874
   1846191.58647   1415975.56642  23346262.5634   23346260.7194
     -2459.4774
    972992.44147    745315.14542  23374810.0944   23374805.7624
     -1376.6404
    755214.77346    578228.21942  22843173.2504   22843169.1294
     -1053.0164
  -3239181.64148  -2492649.18444  21930944.7974   21930942.9534
      3945.9684
  -3137579.73848  -2430704.25844  22198633.7584   22198633.1644
      3925.3484
 04  9  8 15 13 15.0000000  0  7G11G14G15G19G22G25G 1
  -2660888.57449  -2049438.61345  21638235.6484   21638232.3914
      3098.8114
    363042.45349    276412.10545  20935149.7424   20935146.4454
      -624.3744
   1883134.78948   1444762.43442  23353292.4454   23353291.9414
     -2462.8804
    993706.20348    761455.69942  23378751.8674   23378746.8794
     -1380.9174
    771052.30947    590569.09442  22846187.3674   22846183.7274
     -1055.8364
  -3298278.28148  -2538698.49644  21919699.0084   21919697.0514
      3939.7764
  -3196380.95748  -2476523.36744  22187444.9534   22187443.6604
      3920.0814
 04  9  8 15 13 30.0000000  0  7G11G14G15G19G22G25G 1
  -2707250.59449  -2085564.86745  21629413.3984   21629410.1214
      3090.8014
    372492.56649    283775.80946  20936947.9924   20936944.8634
      -630.0084
   1920129.74247   1473589.62542  23360332.9774   23360331.8244
     -2466.3304
   1014484.70348    777646.70343  23382706.6884   23382701.6454
     -1385.2334
    786933.03947    602943.62042  22849209.5004   22849205.1914
     -1058.7154
  -3357280.69548  -2584674.38744  21908471.5784   21908469.0984
      3933.4944
  -3255102.13348  -2522280.11344  22176270.4844   22176269.5124
      3914.7454
 04  9  8 15 13 45.0000000  0  7G11G14G15G19G22G25G 1
  -2753491.42649  -2121596.67645  21620614.1724   21620610.9104
      3082.7224
    382027.77349    291205.84446  20938762.4064   20938758.9774
      -635.6804
   1957177.03547   1502457.58642  23367382.3284   23367380.7704
     -2469.8204
   1035328.52047    793888.63742  23386671.7974   23386667.1764
     -1389.5884
    802857.89546    615352.62142  22852238.9924   22852236.3054
     -1061.6574
  -3416187.60948  -2630575.85944  21897261.6334   21897259.7584
      3927.1284
  -3313742.25848  -2567973.71944  22165111.5004   22165110.5864
      3909.3424
 04  9  8 15 14  0.0000000  0  7G11G14G15G19G22G25G 1
  -2799613.24649  -2157535.77044  21611837.5634   21611834.1884
      3074.7884
    391645.61349    298700.24646  20940592.7734   20940589.6214
      -641.1894
   1994274.05547   1531364.30542  23374441.7114   23374439.9494
     -2473.1354
   1056234.92647    810179.31642  23390650.5554   23390646.3594
     -1393.7604
    818824.49246    627794.09842  22855278.1414   22855273.4694
     -1064.4404
  -3475001.03149  -2676404.49644  21886070.3054   21886067.5824
      3920.8954
  -3372303.62548  -2613605.94944  22153967.5314   22153966.9534
      3904.0914
 04  9  8 15 14 15.0000000  0  7G11G14G15G19G22G25G 1
  -2845615.63349  -2193381.79344  21603083.2274   21603080.0394
      3066.8264
    401345.98449    306258.95346  20942438.7344   20942435.8554
      -646.6914
   2031420.78548   1560309.77343  23381510.8364   23381509.3284
     -2476.4494
   1077203.69947    826518.55943  23394640.7814   23394636.9414
     -1397.9184
    834832.99246    640268.19942  22858324.2584   22858320.8754
     -1067.2334
  -3533720.63349  -2722160.02344  21874895.9384   21874893.6684
      3914.6404
  -3430785.91048  -2659176.54744  22142838.0784   22142837.7154
      3898.8194
 04  9  8 15 14 30.0000000  0  7G11G14G15G19G22G25G 1
  -2891497.60549  -2229133.98845  21594352.7344   21594349.1644
      3058.7984
    411129.31349    313882.33246  20944299.9614   20944296.9384
      -652.2224
   2068617.59048   1589294.25443  23388589.1954   23388587.7154
     -2479.7874
   1098235.05547    842906.59042  23398642.3984   23398639.5984
     -1402.0904
    850884.02746    652775.46142  22861378.8364   22861375.2504
     -1070.0694
  -3592345.36748  -2767841.62544  21863739.5234   21863738.1884
      3908.3164
  -3489188.32448  -2704684.91444  22131725.1414   22131724.2194
      3893.4944
 04  9  8 15 14 45.0000000  0  7G11G14G15G19G22G25G 1
  -2937259.90249  -2264792.93444  21585644.5394   21585640.6294
      3050.8204
    420994.49649    321569.47346  20946177.7194   20946174.6884
      -657.6794
   2105863.27347   1618316.83643  23395675.9614   23395675.6524
     -2483.0464
   1119327.78147    859342.44943  23402656.3284   23402653.4104
     -1406.1824
    866976.64146    665315.15242  22864441.9924   22864437.1054
     -1072.8414
  -3650875.64548  -2813449.59045  21852601.8204   21852601.0744
      3902.0184
  -3547511.66848  -2750131.66444  22120626.2194   22120625.9574
      3888.2234
 04  9  8 15 15  0.0000000  0  7G11G14G15G19G22G25G 1
  -2982901.90649  -2300358.13345  21576958.7034   21576955.0944
      3042.8004
    430941.48049    329320.35946  20948070.7814   20948067.2544
      -663.1324
   2143157.91447   1647377.55943  23402773.6024   23402772.5204
     -2486.3094
   1140481.84847    875826.07443  23406682.6174   23406679.4414
     -1410.2714
    883111.25846    677887.57442  22867511.9774   22867507.3324
     -1075.6414
  -3709310.82448  -2858983.48045  21841481.8524   21841480.8444
      3895.6794
  -3605755.44948  -2795516.41444  22109543.1804   22109542.5744
      3882.9194
 04  9  8 15 15 14.9990000  0  7G11G14G15G19G22G25G 1
  -3028422.09049  -2335828.41045  21568296.2534   21568293.1054
      3034.6794
    440967.72749    337133.01246  20949978.4014   20949975.6834
      -668.4164
   2180497.03946   1676472.92642  23409877.4334   23409877.3354
     -2489.2754
   1161693.63748    892354.69542  23410719.2304   23410714.7534
     -1414.1194
    899285.01247    690490.46942  22870590.7614   22870586.1084
     -1078.2504
  -3767648.61748  -2904441.47745  21830380.8784   21830379.7304
      3889.1864
  -3663917.51248  -2840837.46944  22098475.2534   22098474.6244
      3877.4714
 04  9  8 15 15 29.9990000  0  7G11G14G15G19G22G25G 1
  -3073824.31249  -2371206.77045  21559656.6904   21559653.3704
      3026.8154
    451076.35949    345009.84846  20951902.1984   20951898.6474
      -673.9094
   2217887.33247   1705608.14542  23416993.0734   23416992.9444
     -2492.6864
   1182967.67647    908931.81642  23414767.6754   23414762.6204
     -1418.2694
    915502.02345    703127.09042  22873674.7614   22873671.8904
     -1081.1344
  -3825894.56648  -2949827.91445  21819296.8474   21819295.6794
      3883.0634
  -3722003.44948  -2886099.25044  22087421.6834   22087421.0464
      3872.3964
 04  9  8 15 15 44.9990000  0  7G11G14G15G19G22G25G 1
  -3119107.13749  -2406492.10245  21551039.6984   21551036.2764
      3018.8554
    461264.56349    352948.69946  20953841.2224   20953837.8194
      -679.2144
   2255324.14146   1734779.58642  23424117.6514   23424116.9374
     -2495.7874
   1204300.30548    925554.65242  23418827.1444   23418821.0194
     -1422.1754
    931759.27346    715795.07842  22876768.4954   22876765.6164
     -1083.8174
  -3884046.17249  -2995140.85544  21808231.2924   21808229.4524
      3876.7744
  -3780011.22348  -2931300.08244  22076383.9484   22076382.5894
      3867.1854
 04  9  8 15 15 59.9990000  0  7G11G14G15G19G22G25G 1
  -3164269.83249  -2441683.80945  21542445.7534   21542442.5654
      3010.8464
    471532.66049    360949.81346  20955794.6054   20955791.3044
      -684.5404
   2292807.68847   1763987.51642  23431250.3784   23431249.8704
     -2498.9034
   1225691.71148    942223.27342  23422896.7614   23422892.4444
     -1426.0944
    948057.34045    728494.81342  22879870.7534   22879866.6014
     -1086.5384
  -3942102.62948  -3040379.63744  21797183.3004   21797181.9524
      3870.4304
  -3837940.08648  -2976439.45344  22065359.3474   22065358.7924
      3861.9244
 04  9  8 15 16 14.9990000  0  7G11G14G15G19G22G25G 1
  -3209314.44549  -2476783.52045  21533874.0114   21533870.3554
      3002.9744
    481877.96549    369011.06646  20957763.3234   20957760.6634
      -689.6874
   2330335.47347   1793229.88742  23438391.9334   23438391.0344
     -2501.8524
   1247139.08247    958935.44542  23426978.2224   23426974.6364
     -1429.8254
    964393.93445    741224.60242  22882978.9564   22882975.2844
     -1089.1064
  -4000065.93748  -3085545.83645  21786153.0264   21786152.0114
      3864.2214
  -3895792.31248  -3021519.10544  22054350.4484   22054349.7304
      3856.8154
 04  9  8 15 16 29.9990000  0  7G11G14G15G19G22G25G 1
  -3254240.82849  -2511791.09445  21525324.8154   21525321.1714
      2995.0924
    492300.23849    377132.31646  20959746.7764   20959743.3004
      -694.8184
   2367907.10546   1822506.46142  23445541.3234   23445540.5654
     -2504.7764
   1268642.07447    975690.96542  23431070.1674   23431066.5854
     -1433.5334
    980769.07045    753984.42642  22886096.0034   22886090.0384
     -1091.6764
  -4057935.87149  -3130639.28545  21775141.0734   21775139.6404
      3857.9964
  -3953567.82448  -3066538.98044  22043356.1904   22043355.4644
      3851.7014
 04  9  8 15 16 44.9990000  0  7G11G14G15G19G22G25G 1
  -3299047.44149  -2546705.34445  21516798.5344   21516794.7454
      2987.1084
    502800.74649    385314.51246  20961745.1674   20961742.2374
      -700.0344
   2405523.74247   1851818.03142  23452700.2064   23452698.8234
     -2507.7764
   1290201.74648    992490.68842  23435173.6514   23435168.1754
     -1437.3114
    997184.00045    766775.26242  22889218.3864   22889213.8944
     -1094.3294
  -4115710.76249  -3175658.65644  21764146.8784   21764145.4404
      3851.6594
  -4011265.09048  -3111497.87144  22032377.3784   22032376.1754
      3846.4844
 04  9  8 15 16 59.9990000  0  7G11G14G15G19G22G25G 1
  -3343732.75449  -2581525.07445  21508295.0034   21508292.2024
      2979.0214
    513380.33249    393558.34446  20963758.1204   20963754.7144
      -705.3064
   2443186.25047   1881165.39542  23459866.8944   23459865.7924
     -2510.8344
   1311818.71948   1009335.03942  23439287.6514   23439283.2694
     -1441.1324
   1013639.77345    779597.93442  22892350.2764   22892345.8004
     -1097.0524
  -4173389.10949  -3220602.82044  21753170.5584   21753168.9604
      3845.2234
  -4068882.89548  -3156394.83244  22021412.6984   22021412.3004
      3841.1874
 04  9  8 15 17 14.9990000  0  7G11G14G15G19G22G25G 1
  -3388298.35949  -2616251.53145  21499814.4644   21499811.2144
      2971.0404
    524036.99649    401862.22346  20965786.1284   20965782.9404
      -710.4444
   2480892.61347   1910546.93042  23467042.9644   23467041.4914
     -2513.7584
   1333491.00047   1026222.52042  23443410.6904   23443406.9914
     -1444.8194
   1030134.83245    792451.17242  22895489.8394   22895485.0734
     -1099.6714
  -4230972.29749  -3265472.81644  21742212.6444   21742211.4954
      3838.8794
  -4126422.84448  -3201231.14544  22010463.1124   22010463.0584
      3835.9974
 04  9  8 15 17 29.9990000  0  7G11G14G15G19G22G25G 1
  -3432745.02349  -2650885.28945  21491356.3314   21491352.9444
      2963.1114
    534769.38749    410225.10546  20967828.8624   20967825.9484
      -715.4934
   2518641.44147   1939961.55142  23474225.9644   23474224.0814
     -2516.5894
   1355216.98447   1043151.83242  23447545.8004   23447540.9564
     -1448.3994
   1046667.87945    805334.07042  22898634.9874   22898630.4524
     -1102.2034
  -4288461.21148  -3310269.36345  21731272.9404   21731271.8944
      3832.5944
  -4183886.01648  -3246007.63744  21999528.3554   21999527.7334
      3830.8784
 04  9  8 15 17 44.9990000  0  7G11G14G15G19G22G25G 1
  -3477072.85949  -2685426.47745  21482921.0974   21482917.9254
      2955.1894
    545576.99249    418646.60946  20969884.8704   20969881.9914
      -720.5074
   2556432.32047   1969408.94542  23481417.0734   23481416.9874
     -2519.3924
   1376996.09447   1060122.53542  23451689.4724   23451685.8514
     -1451.9414
   1063238.73045    818246.34442  22901789.1674   22901784.4404
     -1104.7234
  -4345855.82849  -3354992.42645  21720351.8394   21720350.0224
      3826.3084
  -4241272.54348  -3290724.39544  21988608.4174   21988607.2104
      3825.7684
 04  9  8 15 17 59.9990000  0  7G11G14G15G19G22G25G 1
  -3521279.89849  -2719873.52345  21474509.0194   21474505.3124
      2947.1364
    556461.43849    427127.98446  20971956.5424   20971952.9524
      -725.6304
   2594266.67647   1998890.20742  23488617.4174   23488616.8664
     -2522.2904
   1398829.84447   1077135.80142  23455844.5194   23455839.6014
     -1455.5834
   1079849.18045    831189.58641  22904949.2224   22904944.4604
     -1107.3634
  -4403153.94149  -3399640.29745  21709448.2844   21709446.3084
      3819.8744
  -4298580.49648  -3335379.94144  21977702.4334   21977701.2304
      3820.5304
 04  9  8 15 18 14.9990000  0  7G11G14G15G19G22G25G 1
  -3565365.92249  -2754226.27345  21466119.7304   21466116.2264
      2939.0684
    567422.39149    435668.96146  20974042.3314   20974039.0974
      -730.7304
   2632144.25447   2028405.16442  23495823.7454   23495823.9334
     -2525.1724
   1420717.66447   1094191.19142  23460009.9484   23460005.3234
     -1459.1884
   1096499.18845    844163.53941  22908117.8004   22908114.1284
     -1110.0014
  -4460355.34449  -3444212.82444  21698563.1834   21698561.4094
      3813.4274
  -4355809.80948  -3379974.20744  21966811.9644   21966811.3864
      3815.2884
 04  9  8 15 18 29.9990000  0  7G11G14G15G19G22G25G 1
  -3609331.50849  -2788485.18045  21457752.9954   21457749.8084
      2931.0394
    578458.69949    444268.69146  20976142.3784   20976139.7024
      -735.7544
   2670063.82847   2057952.80142  23503040.4954   23503039.8154
     -2527.9724
   1442658.24247   1111287.72342  23464185.4334   23464180.7844
     -1462.7054
   1113187.71946    857167.55141  22911294.3154   22911289.4484
     -1112.5694
  -4517460.68749  -3488710.46945  21687696.0194   21687694.3194
      3807.0234
  -4412961.33648  -3424507.83644  21955936.7764   21955935.5894
      3810.1024
 04  9  8 15 18 44.9990000  0  7G11G14G15G19G22G25G 1
  -3653174.72349  -2822648.73045  21449409.9334   21449406.9724
      2922.8814
    589571.93449    452928.33646  20978256.5974   20978253.8554
      -740.8824
   2708026.89147   2087534.38342  23510263.9644   23510263.2454
     -2530.8714
   1464652.99648   1128426.46542  23468370.6124   23468365.9804
     -1466.3174
   1129916.65245    870203.05141  22914477.7924   22914474.0774
     -1115.2624
  -4574467.75849  -3533131.54745  21676848.2374   21676846.5384
      3800.4714
  -4470033.15248  -3468979.37944  21945076.3154   21945075.2534
      3804.7884
 04  9  8 15 18 59.9990000  0  7G11G14G15G19G22G25G 1
  -3696896.79749  -2856717.89145  21441089.8554   21441087.1444
      2914.8054
    600760.52349    461646.69946  20980386.3004   20980382.8354
      -745.9064
   2746031.80547   2117148.60242  23517496.9094   23517495.6834
     -2533.6614
   1486700.32847   1145606.17242  23472566.2224   23472561.1714
     -1469.8224
   1146684.59046    883269.00041  22917668.4174   22917663.9254
     -1117.8624
  -4631377.74649  -3577476.98444  21666018.6054   21666017.1284
      3793.9994
  -4527026.57048  -3513389.82844  21934230.1284   21934230.0934
      3799.5614
 04  9  8 15 19 14.9990000  0  7G11G14G15G19G22G25G 1
  -3740496.31649  -2890691.53945  21432793.5894   21432790.5974
      2906.6354
    612025.34449    470424.48846  20982529.7614   20982526.5464
      -750.9884
   2784079.45747   2146796.06642  23524736.9484   23524735.8234
     -2536.5104
   1508800.87547   1162827.31642  23476771.8154   23476767.4014
     -1473.3704
   1163492.60545    896366.08641  22920866.8704   22920862.6594
     -1120.5344
  -4688189.18049  -3621745.62145  21655207.7304   21655205.6984
      3787.4294
  -4583940.35948  -3557738.20744  21923400.3554   21923399.1514
      3794.2534
 04  9  8 15 19 29.9990000  0  7G11G14G15G19G22G25G 1
  -3783974.00449  -2924570.26245  21424519.6284   21424516.3624
      2898.5124
    623365.24249    479260.75046  20984687.6834   20984685.5074
      -755.9934
   2822168.70347   2176475.98042  23531985.2924   23531984.1474
     -2539.2834
   1530953.39547   1180088.95342  23480987.4724   23480982.1834
     -1476.8354
   1180339.80545    909493.71941  22924072.7694   22924067.4374
     -1123.1474
  -4744902.65649  -3665937.92645  21644415.1364   21644413.5114
      3780.8984
  -4640775.38748  -3602025.23044  21912584.8864   21912584.0654
      3789.0024
 04  9  8 15 19 44.9990000  0  7G11G14G15G19G22G25G 1
  -3827329.80549  -2958354.00845  21416269.5894   21416266.0694
      2890.3874
    634779.72749    488155.12946  20986860.2694   20986856.2264
      -760.9664
   2860299.05947   2206187.89842  23539241.2304   23539239.5774
     -2542.0244
   1553157.21147   1197390.65242  23485212.3864   23485208.2534
     -1480.2544
   1197225.98845    922651.78141  22927285.9404   22927281.0934
     -1125.7464
  -4801518.16049  -3710053.88745  21633641.9644   21633639.9524
      3774.3674
  -4697531.63748  -3646250.87144  21901784.6514   21901783.8434
      3783.7504
 04  9  8 15 19 59.9990000  0  7G11G14G15G19G22G25G 1
  -3870565.94949  -2992044.52045  21408041.9014   21408038.4054
      2882.4104
    646265.99649    497105.48045  20989045.2764   20989041.8864
      -765.7514
   2898467.80147   2235929.74642  23546504.8394   23546502.5774
     -2544.5834
   1575409.54347   1214730.07442  23489447.0194   23489442.9334
     -1483.4894
   1214148.63345    935838.22741  22930507.0034   22930501.7804
     -1128.1764
  -4858037.74649  -3754095.10245  21622886.5034   21622884.5344
      3767.9724
  -4754211.55548  -3690417.01644  21890998.5504   21890997.8824
      3778.6614
 04  9  8 15 20 14.9990000  0  7G11G14G15G19G22G25G 1
  -3913680.85949  -3025640.55545  21399837.6834   21399834.0074
      2874.3274
    657825.33649    506112.73446  20991245.2694   20991242.1084
      -770.6234
   2936676.03147   2265702.33242  23553774.9564   23553774.5974
     -2547.2154
   1597711.31347   1232108.05542  23493691.4644   23493687.0694
     -1486.7854
   1231109.24644    949054.23441  22933733.2924   22933729.6944
     -1130.7084
  -4914459.74649  -3798060.28945  21612150.4804   21612147.8974
      3761.4674
  -4810813.60248  -3734522.49244  21880227.6054   21880226.7304
      3773.4704
 04  9  8 15 20 29.9990000  0  7G11G14G15G19G22G25G 1
  -3956670.75849  -3059139.17245  21391657.1054   21391653.3434
      2865.9934
    669461.03949    515179.50845  20993459.4334   20993456.5504
      -775.7144
   2974926.97746   2295508.23442  23561054.0654   23561053.5894
     -2550.0634
   1620065.73447   1249527.05942  23497944.8864   23497939.9524
     -1490.2954
   1248111.00045    962302.34841  22936969.4564   22936964.5854
     -1133.4504
  -4970780.35249  -3841946.46145  21601432.0654   21601430.2724
      3754.7074
  -4867334.27748  -3778564.55544  21869472.5974   21869471.2334
      3768.0454
 04  9  8 15 20 44.9990000  0  7G11G14G15G19G22G25G 1
  -3999537.84849  -3092542.09845  21383499.7694   21383496.1244
      2857.8064
    681170.34849    524303.62946  20995687.7144   20995684.3044
      -780.6214
   3013217.83646   2325345.22742  23568340.4094   23568341.1084
     -2552.7244
   1642470.00847   1266984.88342  23502208.0584   23502202.4254
     -1493.6184
   1265151.77345    975580.82441  22940211.4334   22940206.7804
     -1136.0524
  -5027001.71149  -3885755.29745  21590733.0194   21590731.4014
      3748.0914
  -4923775.83248  -3822544.97744  21858731.6054   21858730.7064
      3762.7704
 04  9  8 15 20 59.9990000  0  7G11G14G15G19G22G25G 1
  -4042282.40249  -3125849.55945  21375365.3864   21375361.8704
      2849.6374
    692952.59449    533484.59846  20997929.6124   20997926.9254
      -785.4834
   3051547.98446   2355212.79342  23575635.2614   23575634.8784
     -2555.3434
   1664923.31647   1284480.94542  23506480.4334   23506475.6284
     -1496.8874
   1282230.83645    988889.22341  22943463.0264   22943456.6084
     -1138.6044
  -5083123.97749  -3929486.91045  21580053.7224   21580051.4094
      3741.4844
  -4980138.58648  -3866463.99244  21848006.1204   21848005.0694
      3757.5174
 04  9  8 15 21 14.9990000  0  7G11G14G15G19G22G25G 1
  -4084904.80549  -3159061.82445  21367254.7534   21367251.3784
      2841.4934
    704806.97749    542721.75446  21000185.7454   21000182.7064
      -790.2924
   3089916.47746   2385110.25842  23582936.4804   23582935.5584
     -2557.8994
   1687424.48047   1302014.29342  23510762.4254   23510757.1244
     -1500.0784
   1299347.76644   1002226.95741  22946718.9014   22946715.0734
     -1141.1294
  -5139147.55149  -3973141.63345  21569392.8784   21569390.7494
      3734.9054
  -5036423.14148  -3910322.07844  21837295.3154   21837294.5734
      3752.3044
 04  9  8 15 21 29.9990000  0  7G11G14G15G19G22G25G 1
  -4127405.34849  -3192179.13345  21359167.0734   21359163.8514
      2833.3704
    716732.59849    552014.43846  21002454.8154   21002452.0544
      -795.0414
   3128322.48047   2415036.95742  23590244.5034   23590243.8704
     -2560.4004
   1709972.68847   1319584.32042  23515053.5194   23515048.7724
     -1503.2144
   1316501.77344   1015593.72741  22949984.7534   22949978.7534
     -1143.6014
  -5195072.69549  -4016719.65245  21558750.7924   21558748.5584
      3728.3434
  -5092629.97348  -3954119.60544  21826599.0584   21826598.5974
      3747.1224
 04  9  8 15 21 44.9990000  0  7G11G14G15G19G22G25G 1
  -4169782.80149  -3225200.52045  21351102.4174   21351099.9014
      2825.1644
    728730.45749    561363.40646  21004738.1054   21004735.0384
      -799.8574
   3166766.78946   2444993.51242  23597559.5894   23597559.8704
     -2562.9544
   1732568.75447   1337191.62942  23519353.6594   23519349.3234
     -1506.4044
   1333694.02344   1028990.30941  22953255.4334   22953249.7454
     -1146.1504
  -5250897.90249  -4060219.78545  21548127.4644   21548125.7454
      3721.6804
  -5148757.82848  -3997855.56644  21815919.6754   21815917.6594
      3741.8574
 04  9  8 15 21 59.9990000  0  7G11G14G15G19G22G25G 1
  -4212035.96949  -3258125.07445  21343062.5424   21343059.4804
      2816.8784
    740801.18849    570769.15246  21007035.4094   21007031.7224
      -804.7154
   3205250.13346   2474980.45742  23604883.4954   23604883.2614
     -2565.5564
   1755213.18447   1354836.55142  23523663.0114   23523658.5344
     -1509.6294
   1350925.566 4                  22956535.542
     -1148.770
  -5306621.92249  -4103641.09045  21537523.3554   21537521.7614
      3714.9354
  -5204805.65248  -4041529.19144  21805253.1514   21805252.5384
      3736.5224
 04  9  8 15 22 14.9990000  0  7G11G14G15G19G22G25G 1
  -4254165.01649  -3290952.89845  21335045.5894   21335042.6984
      2808.6034
    752944.14549    580231.18846  21009346.1444   21009342.7884
      -809.5304
   3243771.82046   2504997.28942  23612213.7374   23612214.1794
     -2568.1124
   1777905.16047   1372518.57042  23527980.9334   23527977.2024
     -1512.7984
   1368195.898 4                  22959820.784
     -1151.355
  -5362245.03949  -4146983.76645  21526939.3084   21526936.7374
      3708.2084
  -5260773.78949  -4085140.70744  21794603.1594   21794601.8784
      3731.2094
 04  9  8 15 22 29.9990000  0  7G11G14G15G19G22G25G 1
  -4296173.19149  -3323686.55145  21327051.8944   21327048.2264
      2800.5454
    765155.79749    589746.76646  21011669.3084   21011666.5344
      -814.1104
   3282328.38346   2535041.23842  23619551.6904   23619550.9334
     -2570.4374
   1800641.09047   1390234.82042  23532308.2534   23532303.4724
     -1515.7294
   1385501.875 4                  22963114.581
     -1153.732
  -5417770.14549  -4190250.08245  21516372.8084   21516370.3354
      3701.6744
  -5316665.54349  -4128692.69944  21783967.7844   21783966.0814
      3726.1174
 04  9  8 15 22 44.9990000  0  7G11G14G15G19G22G25G 1
  -4338057.83249  -3356323.93045  21319081.1904   21319078.2224
      2792.3094
    777438.28549    599317.50446  21014006.6514   21014003.8704
      -818.8334
   3320921.71947   2565113.91842  23626895.5114   23626895.0624
     -2572.8894
   1823422.82047   1407986.79742  23536642.9804   23536636.6514
     -1518.7824
   1402845.719 4                  22966415.448
     -1156.256
  -5473194.58249  -4233437.93745  21505825.5194   21505823.6284
      3694.9634
  -5372478.40248  -4172183.23444  21773346.6834   21773345.0654
      3720.8574
 04  9  8 15 22 59.9990000  0  8G20G11G14G15G19G22G25G 1
   -159776.52056   -117531.38752  23897831.0264   23897828.7264

  -4379818.23049  -3388864.50845  21311134.3154   21311131.5034
      2784.0274
    789791.75849    608943.57045  21016357.7764   21016354.6904
      -823.5654
   3359552.15246   2595215.53142  23634246.8004   23634245.5504
     -2575.3624
   1846250.41447   1425774.46542  23540985.8864   23540982.0464
     -1521.8404
   1420227.680 3                  22969723.519
     -1158.797
  -5528517.55149  -4276546.72345  21495298.1444   21495296.4804
      3688.1984
  -5428211.84449  -4215611.87544  21762741.0194   21762739.4914
      3715.5634
 04  9  8 15 23 14.9990000  0  8G20G11G14G15G19G22G25G 1
   -223502.87946   -167188.25042  23885704.2064   23885701.4804
      4248.4244
  -4421454.81249  -3421308.60945  21303211.5584   21303207.9134
      2775.7724
    802215.43049    618624.35245  21018721.6674   21018717.9404
      -828.2454
   3398218.80946   2625345.34042  23641604.2764   23641603.9374
     -2577.7774
   1869122.94947   1443597.19542  23545339.4804   23545334.6324
     -1524.8364
   1437647.484 4                  22973038.659
     -1161.320
  -5583739.32449  -4319576.67645  21484789.5114   21484787.7804
      3681.4524
  -5483866.27748  -4258978.96944  21752149.7144   21752148.8624
      3710.2964
 04  9  8 15 23 29.9990000  0  8G20G11G14G15G19G22G25G 1
   -287224.21546   -216841.22742  23873577.9094   23873575.5384
      4248.0894
  -4462970.03948  -3453658.13345  21295311.1904   21295307.9764
      2767.6824
    814706.37549    628357.54346  21021098.8394   21021095.7574
      -832.7304
   3436918.71947   2655501.07042  23648968.9254   23648968.2064
     -2579.9944
   1892037.34047   1461452.57042  23549700.1054   23549695.1014
     -1527.6264
   1455102.176 3                  22976357.980
     -1163.646
  -5638862.42649  -4362529.72345  21474300.1674   21474298.0154
      3674.8734
  -5539444.37548  -4302286.56244  21741573.9404   21741572.2494
      3705.2074
 04  9  8 15 23 44.9990000  0  8G20G11G14G15G19G22G25G 1
   -350940.77747   -266490.47342  23861453.3554   23861450.7764
      4247.7714
  -4504363.91049  -3485913.09445  21287433.9484   21287431.0654
      2759.5914
    827264.10549    638142.77745  21023488.5034   21023485.8514
      -837.1824
   3475651.21947   2685682.17242  23656339.3314   23656338.7304
     -2582.1674
   1914992.91447   1479339.97342  23554067.2694   23554063.4404
     -1530.3724
   1472591.469 4                  22979686.878
     -1165.953
  -5693886.79749  -4405405.84845  21463829.2064   21463827.4254
      3668.2914
  -5594946.32448  -4345534.83244  21731012.3704   21731010.8194
      3700.1304
 04  9  8 15 23 59.9990000  0  8G20G11G14G15G19G22G25G 1
   -414651.19947   -316134.97742  23849330.0424   23849327.2224
      4247.3614
  -4545635.22349  -3518072.56245  21279580.4404   21279577.3824
      2751.4214
    839889.57849    647980.78546  21025891.2924   21025888.0114
      -841.6984
   3514417.29747   2715889.44142  23663716.9804   23663715.7374
     -2584.4054
   1937990.45747   1497260.10542  23558444.7694   23558440.3474
     -1533.1704
                                  22983021.964
     -1168.260
  -5748811.00049  -4448203.92245  21453377.7224   21453375.5224
      3661.6144
  -5650370.86348  -4388722.76244  21720465.2224   21720463.7724
      3694.9694
 04  9  8 15 24 14.9990000  0  8G20G11G14G15G19G22G25G 1
   -478355.06247   -365774.31642  23837206.6284   23837205.1124
      4246.9244
  -4586783.24249  -3550135.95345  21271750.4484   21271747.2104
      2743.2014
    852582.87949    657871.67646  21028306.7694   21028303.8824
      -846.2204
   3553217.02048   2746122.93842  23671100.4094   23671099.2454
     -2586.6484
   1961029.95747   1515212.92242  23562829.1204   23562823.8904
     -1535.9674
   1507678.242 4                  22986364.550
     -1170.766
  -5803634.39149  -4490923.42245  21442945.3624   21442943.0814
      3654.8934
  -5705717.54348  -4431850.03144  21709933.4334   21709931.9094
      3689.7794
 04  9  8 15 24 29.9990000  0  8G20G11G14G15G19G22G25G 1
   -542051.44947   -415407.81642  23825086.1594   23825084.3354
      4246.4264
  -4627807.13748  -3582102.62145  21263943.4874   21263940.5194
      2734.9264
    865344.56349    667815.81646  21030735.1124   21030731.4564
      -850.7794
   3592050.86347   2776383.04342  23678490.0034   23678488.4604
     -2588.9234
   1984111.82847   1533198.77742  23567220.1054   23567215.9014
     -1538.7914
   1525276.316 4                  22989711.511
     -1173.205
  -5858355.94149  -4533563.59045  21432532.5194   21432530.1164
      3648.1034
  -5760985.60548  -4474916.04344  21699416.6364   21699414.3314
      3684.5384
 04  9  8 15 24 44.9990000  0  8G20G11G14G15G19G22G25G 1
   -605739.98047   -465035.25042  23812966.4724   23812964.4134
      4245.9024
  -4668706.15249  -3613972.00045  21256160.9724   21256157.4374
      2726.6014
    878174.75449    677813.36346  21033176.7694   21033173.8824
      -855.3464
   3630918.93846   2806669.78942  23685884.7844   23685884.9254
     -2591.2054
   2007236.07047   1551217.65642  23571622.0424   23571616.4764
     -1541.6164
   1542911.92213                  22993065.425
     -1175.644
  -5912974.94149  -4576123.82445  21422138.5264   21422136.1874
      3641.2674
  -5816174.44548  -4517920.33244  21688914.2224   21688912.5624
      3679.2564
 04  9  8 15 24 59.9990000  0  7G20G11G14G19G22G25G 1
   -669421.62547   -514657.32442  23800848.2144   23800846.1594
      4245.4434
  -4709481.44949  -3645744.96145  21248401.5424   21248398.3944
      2718.3534
    891071.98449    687863.14545  21035630.8314   21035627.7804
      -859.8154
   2030401.25847   1569268.38742  23576029.4564   23576024.8744
     -1544.3464
   1560583.45314                  22996431.230
     -1178.083
  -5967492.35249  -4618604.89845  21411763.9874   21411761.5814
      3634.4944
  -5871285.21148  -4560863.75844  21678427.2064   21678425.5034
      3674.0514
 04  9  8 15 25 14.9990000  0  7G20G11G14G19G22G25G 1
   -733096.70747   -564274.24642  23788731.0034   23788728.7764
      4245.0054
  -4750133.03149  -3677421.52345  21240665.7304   21240662.6714
      2710.1054
    904035.66849    697964.70345  21038097.5584   21038094.7654
      -864.2464
   2053606.47747   1587350.30542  23580445.2224   23580442.2264
     -1547.0154
   1578290.633 4                  22999801.956
     -1180.479
  -6021908.09048  -4661006.75845  21401409.0584   21401407.1514
      3627.7164
  -5926318.16048  -4603746.57444  21667954.1674   21667953.1164
      3668.8634
 04  9  8 15 25 29.9990000  0  6G20G11G14G19G25G 1
   -796763.50447   -613884.75042  23776616.3154   23776613.8584
      4244.4534
  -4790659.25448  -3709000.39845  21232954.0974   21232950.8314
      2701.7484
    917067.12149    708119.07045  21040577.7064   21040574.0464
      -868.7644
   2076852.83247   1605464.34442  23584869.5194   23584865.6014
     -1549.7574
  -6076220.52348  -4703328.12145  21391073.6284   21391071.5114
      3620.8294
  -5981271.66847  -4646567.47344  21657497.4334   21657495.1984
      3663.5674
 04  9  8 15 25 44.9990000  0  6G20G11G14G19G25G 1
   -860420.80547   -663487.81642  23764503.0654   23764500.4094
      4243.8204
  -4831058.52049  -3740480.35545  21225266.3704   21225263.1634
      2693.2844
    930167.42649    718327.08646  21043070.7374   21043067.1084
      -873.3544
   2100141.39847   1623611.26642  23589301.1984   23589297.1124
     -1552.5714
  -6130427.99648  -4745567.68745  21380758.9804   21380756.5624
      3613.8324
  -6036144.33647  -4689325.38344  21647055.0194   21647053.1404
      3658.1784
 04  9  8 15 25 59.9990000  0  6G20G11G14G19G25G 1
   -924066.95747   -713082.19542  23752390.6594   23752388.6714
      4243.0774
  -4871329.16049  -3771860.07445  21217602.7374   21217599.8274
      2684.7094
    943337.87149    728589.75445  21045577.0584   21045573.2724
      -878.0304
   2123473.21546   1641791.92642  23593740.4954   23593737.1594
     -1555.4544
  -6184528.72349  -4787724.09045  21370463.1514   21370461.4524
      3606.7154
  -6090934.63348  -4732019.09444  21636628.7454   21636626.8514
      3652.6864
 04  9  8 15 26 14.9990000  0  6G20G11G14G19G25G 1
   -987702.50047   -762668.29342  23740281.2374   23740279.3664
      4242.3704
  -4911471.71149  -3803139.98445  21209963.9874   21209960.9014
      2676.1704
    956577.53149    738906.36345  21048095.9334   21048092.9604
      -882.6444
   2146847.07846   1660005.30942  23598188.3154   23598185.0384
     -1558.2584
  -6238523.05949  -4829797.57445  21360188.9014   21360186.7374
      3599.6224
  -6145643.14848  -4774649.11344  21626218.0114   21626216.3944
      3647.2344
 04  9  8 15 26 29.9990000  0  6G20G11G14G19G25G 1
  -1051328.58647   -812247.06642  23728174.1514   23728171.6944
      4241.7394
  -4951487.26648  -3834320.94945  21202349.7224   21202346.0854
      2667.7044
    969884.83249    749275.67245  21050628.7764   21050625.3394
      -887.1534
   2170261.53546   1678250.25042  23602644.3154   23602640.2104
     -1560.9644
  -6292412.07449  -4871789.00445  21349933.6204   21349931.5194
      3592.6014
  -6200271.13348  -4817216.34844  21615822.7694   21615821.3194
      3641.8664
 04  9  8 15 26 44.9990000  0  6G20G11G14G19G25G 1
  -1114944.98046   -861818.25042  23716067.6834   23716066.0424
      4241.0934
  -4991375.43749  -3865402.64545  21194759.3234   21194755.5074
      2659.2114
    983259.69149    759697.64845  21053173.6124   21053170.1324
      -891.6574
   2193716.38346   1696526.69542  23607107.5194   23607103.1594
     -1563.6574
  -6346195.24249  -4913697.95745  21339699.2694   21339697.2614
      3585.5454
  -6254818.24249  -4859720.58644  21605443.0424   21605441.5194
      3636.4744
 04  9  8 15 26 59.9990000  0  6G20G11G14G19G25G 1
  -1178552.09047   -911382.21142  23703963.4174   23703962.3124
      4240.4744
  -5031136.43449  -3896385.24645  21187192.7614   21187189.3864
      2650.7334
    996701.58249    770171.82445  21055732.0114   21055728.6014
      -896.1264
   2217210.76247   1714833.95742  23611579.3154   23611574.7024
     -1566.2924
  -6399872.80949  -4955524.60245  21329484.8474   21329482.8354
      3578.5044
  -6309284.91049  -4902162.12944  21595078.0344   21595076.5894
      3631.1114
 04  9  8 15 27 14.9990000  0  6G20G11G14G19G25G 1
  -1242152.02347   -960940.56642  23691861.4254   23691858.7764
      4239.9964
  -5070772.21548  -3927270.26645  21179650.7454   21179646.8394
      2642.3854
   1010208.01649    780696.31345  21058301.8234   21058298.7724
      -900.4294
   2240742.06647   1733170.00042  23616056.5654   23616052.4524
     -1568.7544
  -6453446.59849  -4997270.39545  21319290.0814   21319287.9604
      3571.5864
  -6363673.22348  -4944542.61744  21584728.2614   21584727.3864
      3625.8874
 04  9  8 15 27 29.9990000  0  6G20G11G14G19G25G 1
  -1305744.17247  -1010492.88742  23679761.1834   23679757.6514
      4239.4774
  -5110282.25448  -3958057.32045  21172131.7144   21172128.4094
      2634.0034
   1023779.28149    791271.29345  21060884.5814   21060880.6284
      -904.7514
   2264310.27348   1751534.76643  23620541.5194   23620537.9054
     -1571.2144
  -6506916.00849  -5038934.86345  21309114.9254   21309113.1474
      3564.6274
  -6417982.63748  -4986861.62144  21574393.7924   21574392.1514
      3620.6284
 04  9  8 15 27 44.9990000  0  6G20G11G14G19G25G 1
  -1369327.57846  -1060038.38742  23667659.3314   23667658.4174
      4238.8944
  -5149665.46148  -3988745.53545  21164637.4014   21164633.9254
      2625.5474
   1037415.85549    801897.19945  21063479.2694   21063476.1634
      -909.1054
   2287915.93848   1769928.75443  23625033.3314   23625029.8664
     -1573.7114
  -6560279.72349  -5080516.95745  21298960.2534   21298958.4834
      3557.5814
  -6472212.25448  -5029118.44544  21564073.7144   21564072.7144
      3615.3084
 04  9  8 15 27 59.9990000  0  6G20G11G14G19G25G 1
  -1432900.28947  -1109575.55942  23655563.1754   23655560.6204
      4238.1814
  -5188919.58649  -4019333.17245  21157167.1984   21157164.3704
      2616.9424
   1051119.54349    812575.37945  21066086.7534   21066083.8904
      -913.5794
   2311560.73048   1788353.23042  23629533.5114   23629529.4524
     -1576.3204
  -6613535.62549  -5122015.06645  21288826.6364   21288823.8704
      3550.3934
  -6526359.99649  -5071311.48045  21553769.9404   21553768.5154
      3609.8494
 04  9  8 15 28 14.9990000  0  6G20G11G14G19G25G 1
  -1496464.22747  -1159105.89542  23643467.1984   23643464.9834
      4237.5964
  -5228046.64849  -4049821.79745  21149722.0034   21149719.0584
      2608.4714
   1064887.89849    823303.94545  21068707.1514   21068703.4804
      -917.8904
   2335242.12547   1806806.19142  23634039.4174   23634036.2654
     -1578.7604
  -6666685.75449  -5163430.73845  21278712.0504   21278709.9874
      3543.3424
  -6580427.96949  -5113442.36344  21543481.1444   21543479.9014
      3604.5324
 04  9  8 15 28 29.9990000  0  6G20G11G14G19G25G 1
  -1560019.37146  -1208629.31642  23631372.5424   23631370.6904
      4237.0104
  -5267046.44149  -4080211.25845  21142300.7144   21142297.1324
      2599.9864
   1078720.76649    834082.80545  21071339.5264   21071336.5074
      -922.1914
   2358959.65247   1825287.36342  23638552.4954   23638548.9174
     -1581.1684
  -6719729.52349  -5204763.52745  21268618.3004   21268616.1244
      3536.2514
  -6634415.99649  -5155510.94945  21533207.5264   21533206.6794
      3599.2024
 04  9  8 15 28 44.9990000  0  6G20G11G14G19G25G 1
  -1623565.08246  -1258145.48842  23619280.7844   23619277.7764
      4236.3814
  -5305918.51648  -4110501.17645  21134903.9874   21134900.4484
      2591.4724
   1092618.31349    844912.03945  21073983.7224   21073980.2844
      -926.5034
   2382713.34847   1843796.70342  23643073.1364   23643069.7414
     -1583.5804
  -6772666.38748  -5246013.01645  21258543.7924   21258542.5774
      3529.1244
  -6688323.64549  -5197516.89145  21522949.2614   21522947.9724
      3593.8434
 04  9  8 15 28 59.9990000  0  6G20G11G14G19G25G 1
  -1687100.43047  -1307653.49242  23607190.5194   23607187.5894
      4235.6904
  -5344661.59048  -4140690.59045  21127531.3394   21127527.9834
      2582.8724
   1106581.27349    855792.26246  21076641.3234   21076638.6984
      -930.8644
   2406503.80146   1862334.68042  23647600.8394   23647596.6514
     -1586.0304
  -6825495.05149  -5287178.21145  21248491.7224   21248489.8554
      3521.9114
  -6742149.80949  -5239459.34844  21512706.9404   21512704.8744
      3588.4114
 04  9  8 15 29 14.9990000  0  6G20G11G14G19G25G 1
  -1750626.80147  -1357154.56642  23595101.8234   23595098.9994
      4235.0914
  -5383277.03549  -4170780.55145  21120182.8944   21120179.6404
      2574.3634
   1120607.87949    866722.07845  21079310.1284   21079306.5154
      -935.1074
   2430329.14144   1880899.90241  23652134.1754   23652130.2304
     -1588.3564
  -6878216.97349  -5328260.20745  21238458.5654   21238456.5074
      3514.7954
  -6795896.07848  -5281339.54344  21502478.9484   21502477.5624
      3583.0854
 04  9  8 15 29 29.9990000  0  6G20G11G14G19G25G 1
  -1814143.26246  -1406647.89542  23583014.0974   23583012.3044
      4234.4314
  -5421763.82448  -4200770.26645  21112858.7224   21112855.7064
      2565.7864
   1134698.68049    877701.90645  21081991.5504   21081988.9054
      -939.3874
   2454189.81644   1899492.63741  23656675.2374   23656669.8354
     -1590.7124
  -6930830.96548  -5369258.10945  21228446.3554   21228444.8554
      3507.5994
  -6849561.59448  -5323156.81644  21492267.1594   21492264.8904
      3577.7014
 04  9  8 15 29 44.9990000  0  6G20G11G14G19G25G 1
  -1877648.62947  -1456132.62142  23570930.2064   23570927.8044
      4233.6914
  -5460120.80549  -4230658.82845  21105560.3474   21105556.6514
      2557.1324
   1148854.46149    888732.37545  21084685.3704   21084682.3354
      -943.7194
   2478086.40643   1918113.27741  23661220.7534   23661217.8944
     -1593.1064
  -6983335.80548  -5410170.96145  21218454.9724   21218453.3864
      3500.3234
  -6903145.15649  -5364910.22744  21482070.5584   21482068.3354
      3572.2384
 04  9  8 15 29 59.9990000  0  6G20G11G14G19G25G 1
  -1941145.19947  -1505610.41442  23558847.3554   23558844.7454
      4233.1054
  -5498350.02349  -4260447.83645  21098285.3154   21098281.9094
      2548.6154
   1163072.77049    899811.55145  21087391.2534   21087388.5224
      -947.8874
   2502016.38343   1936759.94941  23665773.0194   23665771.3904
     -1595.3324
  -7035733.28549  -5451000.14145  21208484.7374   21208482.3824
      3493.1654
  -6956649.01648  -5406601.53145  21471888.4804   21471886.9214
      3566.9244
 04  9  8 15 30 14.9990000  0  5G20G11G14G25G 1
  -2004634.46546  -1555082.53142  23546765.4404   23546762.8824
      4232.6184
  -5536452.89148  -4290138.39545  21091034.3154   21091030.9254
      2540.1914
   1177351.71949    910938.00845  21090108.0264   21090104.9374
      -951.9304
  -7088024.81648  -5491746.78145  21198533.7144   21198531.7694
      3486.1024
  -7010074.65648  -5448231.89545  21461722.1054   21461720.3394
      3561.7094
 04  9  8 15 30 29.9990000  0  5G20G11G14G25G 1
  -2068113.91847  -1604547.05542  23534685.9334   23534683.4764
      4231.9644
  -5574426.86748  -4319728.50445  21083808.2534   21083804.4254
      2531.5984
   1191693.40249    922113.32845  21092837.4174   21092834.7334
      -956.1124
  -7140207.87948  -5532408.89145  21188603.4094   21188601.2534
      3478.8714
  -7063419.77048  -5489799.50045  21451570.7374   21451568.9764
      3556.3414
 04  9  8 15 30 44.9990000  0  5G20G11G14G25G 1
  -2131583.88747  -1654004.18042  23522607.5504   23522604.9214
      4231.3314
  -5612272.16449  -4349218.35545  21076606.5344   21076603.1834
      2523.0204
   1206097.32849    933337.14545  21095578.1284   21095576.2654
      -960.2624
  -7192282.53149  -5572986.53145  21178693.8154   21178691.9564
      3471.6434
  -7116684.56248  -5531304.52345  21441435.0194   21441433.4804
      3550.9864
 04  9  8 15 30 59.9990000  0  5G20G11G14G25G 1
  -2195042.62146  -1703452.50042  23510531.8624   23510529.0114
      4230.5824
  -5649987.00448  -4378606.54745  21069429.4644   21069425.9994
      2514.3234
   1220564.86349    944610.54345  21098331.8314   21098327.8904
      -964.5024
  -7244246.85248  -5613478.20345  21168805.2534   21168803.4804
      3464.2884
  -7169867.36748  -5572745.67245  21431314.9174   21431312.7964
      3545.5204
 04  9  8 15 31 14.9990000  0  5G20G11G14G25G 1
  -2258490.53546  -1752892.46942  23498458.4404   23498455.0814
      4229.8614
  -5687571.70748  -4407893.34045  21062277.7534   21062274.2224
      2505.6474
   1235095.18849    955932.87145  21101096.0264   21101093.8234
      -968.6884
  -7296101.16448  -5653884.14145  21158937.6674   21158936.0814
      3456.9544
  -7222968.60248  -5614123.23044  21421209.7144   21421208.6244
      3540.0824
 04  9  8 15 31 29.9990000  0  5G20G11G14G25G 1
  -2321928.19547  -1802324.39542  23486385.6984   23486382.5774
      4229.1774
  -5725026.55948  -4437078.94945  21055150.2924   21055146.6404
      2496.9904
   1249687.52049    967303.50845  21103873.4484   21103870.5934
      -972.8224
  -7347845.73049  -5694204.56645  21149091.6754   21149089.4404
      3449.6384
  -7275988.75047  -5655437.61745  21411120.1674   21411119.2454
      3534.6774
 04  9  8 15 31 44.9990000  0  5G20G11G14G25G 1
  -2385357.06247  -1851749.46542  23474316.0344   23474313.0624
      4228.5914
  -5762353.32048  -4466164.74245  21048046.9724   21048043.6754
      2488.4514
   1264339.87549    978720.89545  21106661.8624   21106659.0974
      -976.8244
  -7399482.07848  -5734440.66445  21139265.2764   21139263.2654
      3442.4234
  -7328929.57448  -5696690.19145  21401045.8394   21401044.8234
      3529.3884
 04  9  8 15 31 59.9990000  0  5G20G11G14G25G 1
  -2448776.85247  -1901167.47742  23462248.1904   23462244.6324
      4227.9864
  -5799551.41048  -4495150.27045  21040968.4254   21040965.2414
      2479.8734
   1279052.29749    990185.13345  21109460.9254   21109457.6244
      -980.8284
  -7451009.60948  -5774591.96145  21129459.4174   21129458.0544
      3435.1694
  -7381790.60548  -5737880.59844  21390986.5974   21390985.6324
      3524.0694
 04  9  8 15 32 14.9990000  0  5G20G11G14G25G 1
  -2512186.53147  -1950577.59842  23450181.5034   23450178.3554
      4227.3124
  -5836619.86348  -4524034.77745  21033914.4334   21033911.1554
      2471.2304
   1293825.45749   1001696.66445  21112272.5424   21112269.4524
      -984.8774
  -7502427.28148  -5814657.66845  21119675.6834   21119673.1444
      3427.8454
  -7434570.94148  -5779008.10944  21380942.8554   21380941.3744
      3518.6894
 04  9  8 15 32 29.9990000  0  5G20G11G14G25G 1
  -2575585.69947  -1999979.56242  23438116.8314   23438113.5224
      4226.6114
  -5873558.06248  -4552817.79345  21026885.7614   21026881.9444
      2462.5474
   1308659.51249   1013255.66045  21115095.1284   21115092.8974
      -988.9374
  -7553734.45348  -5854637.27345  21109912.0974   21109909.7694
      3420.4784
  -7487270.15648  -5820072.41844  21370914.3474   21370913.0264
      3513.2814
 04  9  8 15 32 44.9990000  0  5G20G11G14G25G 1
  -2638974.25447  -2049373.21542  23426053.8864   23426051.4484
      4225.9044
  -5910366.01648  -4581499.32445  21019881.1674   21019877.5734
      2453.8644
   1323554.16449   1024861.85545  21117929.9254   21117927.0974
      -992.9774
  -7604930.95748  -5894530.65245  21100169.6984   21100167.3784
      3413.1004
  -7539888.30948  -5861073.56244  21360901.4334   21360900.4374
      3507.8774
 04  9  8 15 32 59.9990000  0  5G20G11G14G25G 1
  -2702351.08247  -2098757.73442  23413994.3314   23413991.0974
      4225.1224
  -5947042.43749  -4610078.36345  21012901.7304   21012898.3084
      2445.0954
   1338510.17649   1036515.87545  21120775.9014   21120772.1474
      -997.0674
  -7656015.45349  -5934336.73445  21090448.5424   21090446.6474
      3405.6334
  -7592424.25848  -5902010.65645  21350903.9644   21350902.9764
      3502.3974
 04  9  8 15 33 14.9990000  0  5G20G11G14G25G 1
  -2765718.43447  -2148134.88342  23401936.5654   23401933.1554
      4224.4904
  -5983589.60248  -4638556.66845  21005946.8154   21005943.6674
      2436.4784
   1353525.07849   1048215.79745  21123632.8624   21123629.8154
     -1000.9934
  -7706989.87548  -5974057.04345  21080748.0264   21080746.4444
      3398.2954
  -7644880.22748  -5942885.41044  21340922.4334   21340920.7924
      3497.0654
 04  9  8 15 33 29.9990000  0  5G20G11G14G25G 1
  -2829075.43748  -2197503.97342  23389880.2614   23389876.8904
      4223.8004
  -6020006.42249  -4666933.41845  20999017.3474   20999013.7414
      2427.7884
   1368599.30949   1059961.93445  21126501.5584   21126499.0224
     -1004.9494
  -7757853.26248  -6013690.84845  21071069.3554   21071067.6164
      3390.8924
  -7697255.41048  -5983697.22344  21330955.7534   21330954.6204
      3491.6794
 04  9  8 15 33 44.9990000  0  5G20G11G14G25G 1
  -2892422.76647  -2246865.49642  23377825.1834   23377823.1444
      4223.1554
  -6056293.55148  -4695209.09845  20992112.4484   20992108.5934
      2419.1424
   1383731.87949   1071753.53545  21129381.2454   21129378.0894
     -1008.8384
  -7808606.19548  -6053238.56245  21061410.9804   21061409.4214
      3383.5294
  -7749550.53948  -6024446.65244  21321003.6284   21321003.0504
      3486.3424
 04  9  8 15 33 59.9990000  0  5G20G11G14G25G 1
  -2955757.42247  -2296217.18042  23365773.2534   23365770.6594
      4222.3104
  -6092447.93049  -4723381.35245  20985232.6594   20985228.7694
      2410.2924
   1398925.38749   1083592.61345  21132272.5584   21132269.7454
     -1012.9014
  -7859245.66048  -6092697.87945  21051774.8784   21051772.8554
      3375.9644
  -7801762.70748  -6065131.44944  21311068.6124   21311067.1594
      3480.8114
 04  9  8 15 34 14.9990000  0  5G20G11G14G25G 1
  -3019079.87147  -2345559.34842  23353722.9174   23353720.5464
      4221.4974
  -6128469.93049  -4751450.45345  20978377.7064   20978374.4094
      2401.4674
   1414179.10249   1095478.62145  21135175.0654   21135172.2764
     -1016.9144
  -7909771.90649  -6132068.97345  21042160.2064   21042158.4094
      3368.4164
  -7853892.44949  -6105752.00444  21301148.7614   21301147.4054
      3475.3164
 04  9  8 15 34 29.9990000  0  5G20G11G14G25G 1
  -3082390.44547  -2394892.22742  23341675.8554   23341673.1554
      4220.7054
  -6164359.88349  -4779416.66045  20971547.8554   20971544.1514
      2392.6644
   1429492.35549   1107411.00845  21138089.0034   21138086.1554
     -1020.8844
  -7960185.04348  -6171351.90645  21032566.5734   21032565.1634
      3360.8764
  -7905940.06648  -6146308.59044  21291243.9564   21291242.8004
      3469.8414
 04  9  8 15 34 44.9990000  0  5G20G11G14G25G 1
  -3145687.62947  -2444214.69942  23329629.9874   23329627.5934
      4219.8124
  -6200116.27048  -4807278.78145  20964743.3474   20964740.1594
      2383.7594
   1444866.37549   1119390.75845  21141014.7304   21141011.1054
     -1024.9354
  -8010483.50448  -6210545.50445  21022995.1054   21022993.3004
      3353.2314
  -7957904.22749  -6186800.13344  21281355.4874   21281354.2884
      3464.2774
 04  9  8 15 34 59.9990000  0  5G20G11G14G25G 1
  -3208973.40247  -2493528.27742  23317587.4174   23317584.7144
      4219.0524
  -6235740.94548  -4835038.27345  20957964.4564   20957960.6554
      2374.9784
   1460298.84049   1131416.03945  21143952.0584   21143948.6124
     -1028.8314
  -8060669.14548  -6249651.19145  21013445.0894   21013443.2844
      3345.7094
  -8009786.90249  -6227228.18744  21271483.1284   21271481.5464
      3458.8454
 04  9  8 15 35 14.9990000  0  5G20G11G14G25G 1
  -3272248.29747  -2542833.36742  23305545.5424   23305543.6364
      4218.3264
  -6271234.44549  -4862695.55145  20951210.3154   20951207.0114
      2366.2334
   1475788.74649   1143486.07845  21146898.7064   21146896.7614
     -1032.6604
  -8110742.23448  -6288669.17246  21003916.7844   21003914.7494
      3338.2064
  -8061588.62949  -6267593.15644  21261625.3154   21261624.2614
      3453.4484
 04  9  8 15 35 29.9990000  0  5G20G11G14G25G 1
  -3335511.65647  -2592129.51242  23293507.8784   23293504.9684
      4217.5574
  -6306596.10548  -4890250.09045  20944481.3234   20944477.5424
      2357.4444
   1491336.44549   1155601.14545  21149857.9644   21149855.0464
     -1036.5134
  -8160702.04348  -6327598.87545  20994409.4404   20994408.1904
      3330.6544
  -8113308.87949  -6307894.63344  21251783.1594   21251782.3044
      3448.0174
 04  9  8 15 35 44.9980000  0  5G20G11G14G25G 1
  -3398760.12147  -2641413.99242  23281472.4284   23281469.3464
      4216.5644
  -6341824.24649  -4917700.59445  20937777.2404   20937773.6004
      2348.5434
   1506939.89549   1167759.65645  21152827.1004   21152823.6704
     -1040.2304
  -8210545.89848  -6366438.24245  20984924.4984   20984922.7994
      3322.9244
  -8164944.94949  -6348130.52045  21241957.4044   21241956.2324
      3442.4054
 04  9  8 15 35 59.9980000  0  5G20G11G14G25G 1
  -3462000.62547  -2690692.29342  23269437.6234   23269434.8504
      4216.0344
  -6376922.08249  -4945049.57045  20931098.1784   20931094.8264
      2339.8564
   1522602.17249   1179964.04345  21155807.2324   21155804.1474
     -1044.1524
  -8260278.88748  -6405191.19545  20975460.7954   20975458.6354
      3315.5334
  -8216502.40249  -6388305.12944  21232145.9514   21232144.7294
      3437.1644
 04  9  8 15 36 14.9980000  0  5G20G11G14G25G 1
  -3525229.38747  -2739961.48042  23257405.4824   23257403.1784
      4215.2514
  -6411887.63749  -4972295.45745  20924444.5924   20924441.3464
      2331.0374
   1538321.51649   1192212.84845  21158799.0844   21158796.2134
     -1047.9564
  -8309898.04348  -6443855.45745  20966018.2254   20966016.2914
      3307.9444
  -8267978.20749  -6428416.14545  21222350.8734   21222348.8424
      3431.7204
 04  9  8 15 36 29.9980000  0  5G20G11G14G25G 1
  -3588446.94147  -2789221.89542  23245376.0614   23245373.1314
      4214.5044
  -6446721.60249  -4999438.81245  20917816.2174   20917812.8614
      2322.2644
   1554096.92649   1204505.37145  21161800.5064   21161797.5184
     -1051.6944
  -8359403.82448  -6482431.37145  20956597.6154   20956595.7644
      3300.3854
  -8319373.08249  -6468464.09045  21212570.9674   21212568.7754
      3426.3254
 04  9  8 15 36 44.9980000  0  5G20G11G14G25G 1
  -3651654.17247  -2838474.25042  23233347.8974   23233345.5534
      4213.8154
  -6481424.50449  -5026480.04345  20911212.5374   20911209.2094
      2313.5274
   1569927.46149   1216840.83245  21164813.5064   21164810.4004
     -1055.3694
  -8408796.68448  -6520919.31245  20947198.4904   20947196.7724
      3292.8574
  -8370687.75049  -6508449.53145  21202805.2014   21202804.1664
      3420.9784
 04  9  8 15 36 59.9980000  0  5G20G11G14G25G 1
  -3714849.09046  -2887717.05142  23221322.1624   23221319.4434
      4212.9954
  -6515994.43049  -5053417.64845  20904634.0374   20904631.1474
      2304.6624
   1585814.52349   1229220.36345  21167836.4904   21167833.0184
     -1059.1374
  -8458074.79349  -6559317.81245  20937821.6004   20937819.4204
      3285.2074
  -8421920.45749  -6548371.09845  21193056.5144   21193055.3504
      3415.5144
 04  9  8 15 37 14.9980000  0  5G20G11G14G25G 1
  -3778030.82046  -2936949.55142  23209298.1314   23209296.6584
      4212.1154
  -6550430.51649  -5080250.96546  20898080.8654   20898078.0724
      2295.7394
   1601758.78949   1241644.45745  21170870.3424   21170867.8184
     -1062.9514
  -8507237.19949  -6597626.18445  20928465.6544   20928464.2324
      3277.4944
  -8473070.41449  -6588228.18744  21183322.3504   21183321.3504
      3409.9974
 04  9  8 15 37 29.9980000  0  5G20G11G14G25G 1
  -3841200.56247  -2986172.72742  23197279.6314   23197275.6074
      4211.3164
  -6584733.91848  -5106980.89545  20891553.9594   20891550.1584
      2286.8934
   1617758.59049   1254111.80545  21173915.2324   21173911.8734
     -1066.6534
  -8556284.99248  -6635845.23045  20919132.9904   20919130.7794
      3269.8534
  -8524138.85949  -6628021.77745  21173604.7254   21173603.5644
      3404.5634
 04  9  8 15 37 44.9980000  0  5G20G11G14G25G 1
  -3904359.16446  -3035387.18042  23185260.1474   23185257.0614
      4210.5734
  -6618905.16849  -5133607.85245  20885050.6934   20885047.6584
      2278.0834
   1633812.98449   1266621.70745  21176970.4754   21176967.6354
     -1070.2934
  -8605218.55548  -6673975.27345  20909821.1074   20909819.0184
      3262.2384
  -8575126.41049  -6667752.32045  21163902.1864   21163901.1934
      3399.1704
 04  9  8 15 37 59.9980000  0  5G20G11G14G25G 1
  -3967506.96146  -3084593.25042  23173243.1004   23173240.2914
      4209.8534
  -6652944.78149  -5160132.23445  20878573.0614   20878569.8464
      2269.3084
   1649921.15649   1279173.52745  21180035.7954   21180032.3694
     -1073.8784
  -8654038.27048  -6712016.58245  20900530.3974   20900528.6354
      3254.6484
  -8626033.78549  -6707420.38745  21154215.1074   21154213.4514
      3393.8254
 04  9  8 15 38 14.9980000  0  5G20G11G14G25G 1
  -4030642.67245  -3133789.88742  23161228.3734   23161226.0224
      4209.0474
  -6686851.64549  -5186553.17245  20872120.8264   20872117.5334
      2260.4584
   1666083.96949   1291767.91844  21183111.1394   21183108.2954
     -1077.5214
  -8702742.82449  -6749968.18045  20891262.3814   20891260.5614
      3246.9704
  -8676859.69149  -6747024.98045  21144543.1474   21144541.6584
      3388.3944
 04  9  8 15 38 29.9980000  0  5G20G11G14G25G 1
  -4093767.37146  -3182977.98042  23149215.7724   23149213.6434
      4208.3134
  -6720626.65649  -5212871.38345  20865693.7484   20865690.4864
      2251.6674
   1682300.12549   1304403.85544  21186196.7174   21186194.3424
     -1081.0774
  -8751333.11349  -6787830.72745  20882016.0924   20882014.1234
      3239.3534
  -8727605.19949  -6786566.93045  21134886.5374   21134885.1744
      3383.0344
 04  9  8 15 38 44.9980000  0  5G20G11G14G25G 1
  -4156878.22346  -3232155.24242  23137207.0374   23137203.6864
      4207.3904
  -6754266.97349  -5239084.60545  20859291.9284   20859289.0374
      2242.6884
   1698572.03149   1317083.24245  21189293.9514   21189290.3854
     -1084.7944
  -8799806.16049  -6825601.93045  20872792.4674   20872790.1584
      3231.5364
  -8778267.61749  -6826044.11745  21125245.8734   21125244.0844
      3377.4954
 04  9  8 15 38 59.9980000  0  5G20G11G14G25G 1
  -4219977.55146  -3281323.51642  23125198.9984   23125196.4904
      4206.6224
  -6787774.86749  -5265194.66445  20852915.8264   20852912.7254
      2233.8604
   1714897.08649   1329804.05944  21192400.4204   21192397.2754
     -1088.3374
  -8848164.20349  -6863283.51245  20863589.4904   20863587.5614
      3223.8704
  -8828849.24649  -6865458.35545  21115620.9514   21115618.6934
      3372.1094
 04  9  8 15 39 14.9980000  0  5G20G11G14G25G 1
  -4283064.12146  -3330481.87142  23113193.8424   23113191.4944
      4205.7714
  -6821149.05149  -5291200.51645  20846565.1004   20846562.1584
      2224.9464
   1731276.12549   1342566.94144  21195516.4904   21195514.0454
     -1091.9364
  -8896405.87949  -6900874.41845  20854409.9284   20854407.9674
      3216.1124
  -8879348.95349  -6904808.76645  21106010.7644   21106008.6194
      3366.6474
 04  9  8 15 39 29.9980000  0  5G20G11G14G25G 1
  -4346139.30946  -3379631.32442  23101192.8424   23101188.6504
      4205.0134
  -6854390.75049  -5317103.15645  20840239.6544   20840236.2014
      2216.1134
   1747707.59849   1355370.67244  21198643.7484   21198640.8304
     -1095.4324
  -8944532.38749  -6938375.59045  20845251.7484   20845249.1074
      3208.4344
  -8929768.20349  -6944096.48845  21096416.3974   21096414.4394
      3361.2834
 04  9  8 15 39 44.9980000  0  5G20G11G14G25G 1
  -4409201.58246  -3428770.82042  23089191.2404   23089188.8074
      4204.1524
  -6887498.52749  -5342901.42645  20833939.4434   20833936.1934
      2207.1854
   1764192.55549   1368216.07045  21201781.0844   21201778.0924
     -1098.9974
  -8992542.13749  -6975785.77345  20836115.4754   20836113.5534
      3200.6504
  -8980105.54749  -6983320.37545  21086837.1864   21086835.7794
      3355.8234
 04  9  8 15 39 59.9980000  0  5G20G11G14G25G 1
  -4472250.78146  -3477900.01642  23077193.8734   23077190.5224
      4203.2804
  -6920472.36749  -5368595.32445  20827664.1154   20827661.3774
      2198.2564
   1780730.80149   1381103.01244  21204928.0764   21204925.3974
     -1102.5504
  -9040434.79349  -7013104.71145  20827001.6474   20826999.6044
      3192.8444
  -9030360.89849  -7022480.38745  21077274.0924   21077272.8814
      3350.3574
 04  9  8 15 40 14.9980000  0  5G20G11G14G25G 1
  -4535285.22346  -3527017.77742  23065198.4044   23065195.6394
      4202.2964
  -6953310.24649  -5394183.29345  20821415.6474   20821412.3654
      2189.1924
   1797323.86749   1394032.65244  21208085.0454   21208082.1114
     -1106.2044
  -9088208.54349  -7050330.99245  20817910.9044   20817908.7294
      3184.9174
  -9080532.54349  -7061575.16445  21067727.0684   21067725.2134
      3344.7764
 04  9  8 15 40 29.9980000  0  5G20G11G14G25G 1
  -4598305.80146  -3576124.68742  23053205.7174   23053203.4084
      4201.3724
  -6986013.27049  -5419666.16445  20815192.4364   20815189.1744
      2180.2024
   1813970.37549   1407003.94544  21211252.9984   21211249.5614
     -1109.7674
  -9135864.28149  -7087465.33645  20808842.0924   20808840.1934
      3177.0494
  -9130621.55149  -7100605.55945  21058194.6004   21058193.8424
      3339.2674
 04  9  8 15 40 44.9980000  0  5G20G11G14G25G 1
  -4661313.95346  -3625221.94142  23041216.6314   23041212.4434
      4200.5434
  -7018582.88349  -5445045.09445  20808994.4594   20808991.4674
      2171.3084
   1830668.56349   1420015.50444  21214431.2324   21214427.0254
     -1113.2124
  -9183403.28949  -7124508.70745  20799796.3114   20799793.8614
      3169.2674
  -9180629.41849  -7139572.70345  21048678.8264   21048677.7754
      3333.8584
 04  9  8 15 40 59.9980000  0  5G20G11G14G25G 1
  -4724308.72346  -3674308.78142  23029228.6784   23029225.2054
      4199.6514
  -7051017.99649  -5470319.21545  20802822.4824   20802819.0534
      2162.3414
   1847419.02349   1433067.81344  21217617.7794   21217615.6974
     -1116.6974
  -9230824.46949  -7161460.25446  20790771.7794   20790770.0764
      3161.4124
  -9230555.20749  -7178475.91045  21039177.9284   21039176.7134
      3328.3864
 04  9  8 15 41 14.9980000  0  5G20G11G14G25G 1
  -4787292.23847  -3723386.80542  23017242.9284   23017239.6154
      4198.9014
  -7083320.71549  -5495490.16445  20796675.0614   20796672.0574
      2153.5154
   1864219.33249   1446158.90644  21220815.0614   21220812.8614
     -1120.0214
  -9278130.10249  -7198321.77746  20781769.9284   20781768.1934
      3153.7094
  -9280401.19149  -7217316.92645  21029693.4284   21029691.3894
      3323.0664
 04  9  8 15 41 29.9980000  0  5G20G11G14G25G 1
  -4850261.46146  -3772453.75442  23005260.3734   23005256.9084
      4197.9484
  -7115488.12149  -5520555.68446  20790554.2954   20790550.6234
      2144.4944
   1881071.97749   1459290.84444  21224022.0144   21224018.8034
     -1123.5104
  -9325316.89549  -7235090.69945  20772790.4044   20772788.9944
      3145.7864
  -9330164.45349  -7256093.49245  21020223.2484   21020222.1474
      3317.5514
 04  9  8 15 41 44.9980000  0  5G20G11G14G25G 1
  -4913217.81247  -3821510.64842  22993280.1544   22993276.8814
      4197.0904
  -7147521.41449  -5545516.69545  20784458.1394   20784454.8034
      2135.5534
   1897975.56349   1472462.44144  21227239.0684   21227235.3774
     -1126.9064
  -9372386.02749  -7271767.93745  20763833.7724   20763831.3344
      3137.9424
  -9379846.28549  -7294806.59445  21010769.0844   21010767.6004
      3312.1224
 04  9  8 15 41 59.9980000  0  5G20G11G14G25G 1
  -4976160.86747  -3870557.16042  22981302.5294   22981299.1044
      4196.2044
  -7179420.25049  -5570372.94146  20778388.3574   20778384.8854
      2126.5894
   1914930.09849   1485673.78144  21230464.9904   21230461.7214
     -1130.3024
  -9419337.03149  -7308353.12945  20754899.2874   20754897.0964
      3130.0674
  -9429446.43049  -7333456.04345  21001330.9594   21001328.7684
      3306.6764
 04  9  8 15 42 14.9980000  0  5G20G11G14G25G 1
  -5039090.62147  -3919593.31242  22969327.0764   22969324.4904
      4195.3174
  -7211184.64849  -5595124.42245  20772344.3504   20772340.5684
      2117.6274
   1931935.20749   1498924.49244  21233700.6934   21233698.7054
     -1133.6744
  -9466169.79349  -7344846.18045  20745986.7874   20745985.4364
      3122.1844
  -9478965.01649  -7372041.93745  20991907.8184   20991905.9554
      3301.2394
 04  9  8 15 42 29.9980000  0  5G20G11G14G25G 1
  -5102006.63747  -3968618.80142  22957354.8574   22957351.0724
      4194.4014
  -7242814.32449  -5619770.93445  20766324.8974   20766321.6664
      2108.6454
   1948990.83648   1512214.55544  21236947.0764   21236944.1434
     -1137.0424
  -9512884.00848  -7381246.84845  20737097.4364   20737095.9674
      3114.2814
  -9528401.74649  -7410564.06245  20982499.7724   20982498.2484
      3295.7824
 04  9  8 15 42 44.9980000  0  5G20G11G14G25G 1
  -5164908.15647  -4017632.97342  22945384.7254   22945380.9634
      4193.4354
  -7274308.43049  -5644311.80146  20760331.4754   20760328.4984
      2099.6074
   1966097.45349   1525544.40244  21240201.7404   21240198.8464
     -1140.4414
  -9559478.66049  -7417554.35546  20728230.9984   20728228.8504
      3106.3104
  -9577755.85949  -7449021.80545  20973108.1624   20973106.9754
      3290.2744
 04  9  8 15 42 59.9980000  0  5G20G11G14G25G 1
  -5227795.01647  -4066635.71542  22933418.3184   22933414.2914
      4192.4574
  -7305666.75049  -5668746.87545  20754364.3814   20754361.0374
      2090.5554
   1983255.01649   1538913.88744  21243467.1704   21243464.3184
     -1143.8374
  -9605953.43449  -7453768.45745  20719387.3184   20719385.0724
      3098.3184
  -9627027.28549  -7487415.10545  20963731.9044   20963730.7994
      3284.7624
 04  9  8 15 43 14.9980000  0  5G20G11G14G25G 1
  -5290667.80147  -4115627.46542  22921453.7324   22921450.5494
      4191.5194
  -7336889.74249  -5693076.47745  20748423.0294   20748419.3114
      2081.5334
   2000462.50849   1552322.33244  21246741.6704   21246738.7324
     -1147.1664
  -9652308.97348  -7489889.64545  20710566.4824   20710564.5454
      3090.3694
  -9676216.61349  -7525744.43445  20954371.3504   20954370.5884
      3279.2894
 04  9  8 15 43 29.9980000  0  5G20G11G14G25G 1
  -5353525.75447  -4164607.68742  22909492.2644   22909489.7484
      4190.5304
  -7367976.83249  -5717300.18045  20742507.1314   20742503.6434
      2072.4734
   2017720.31648   1565769.95344  21250025.2644   21250023.2404
     -1150.5214
  -9698544.37549  -7525917.22345  20701767.4824   20701765.8974
      3082.3604
  -9725323.31249  -7564009.37945  20945027.1704   20945025.3974
      3273.7804
 04  9  8 15 43 44.9980000  0  5G20G11G14G25G 1
  -5416369.14147  -4213576.55542  22897533.8734   22897531.0454
      4189.5594
  -7398928.13349  -5741418.08246  20736617.1624   20736614.1474
      2063.4204
   2035027.89149   1579256.33644  21253319.5924   21253316.1894
     -1153.8384
  -9744659.80549  -7561851.29745  20692992.4434   20692989.9824
      3074.3624
  -9774347.66049  -7602210.17245  20935698.0294   20935696.1114
      3268.2904
 04  9  8 15 43 59.9980000  0  5G20G11G14G25G 1
  -5479198.97347  -4262534.84042  22885576.8184   22885575.3424
      4188.6554
  -7429744.70349  -5765430.99646  20730753.2014   20730749.9514
      2054.4384
   2052383.89849   1592780.50844  21256621.9514   21256618.9324
     -1157.0674
  -9790656.10949  -7597692.56646  20684238.9284   20684237.1194
      3066.4204
  -9823290.69549  -7640347.59845  20926384.2644   20926382.8224
      3262.8694
 04  9  8 15 44 14.9980000  0  5G20G11G14G25G 1
  -5542015.64847  -4311482.87542  22873622.9594   22873621.8654
      4187.7784
  -7460426.94149  -5789339.25445  20724914.6784   20724911.5534
      2045.4834
   2069787.69949   1606341.89144  21259933.4824   21259930.7604
     -1160.2534
  -9836533.54749  -7633441.20346  20675508.9514   20675506.9514
      3058.4964
  -9872152.91049  -7678422.04345  20917086.1074   20917084.9084
      3257.4814
 04  9  8 15 44 29.9980000  0  5G20G11G14G25G 1
  -5604816.45747  -4360418.57842  22861672.4674   22861670.5184
      4186.7214
  -7490972.13349  -5813140.69945  20719102.2094   20719099.0374
      2036.3464
   2087241.57049   1619942.27745  21263255.6154   21263253.2324
     -1163.5914
  -9882289.41049  -7669095.12545  20666802.5764   20666799.7294
      3050.3914
  -9920931.71549  -7716431.48845  20907803.7484   20907802.1194
      3251.9204
 04  9  8 15 44 44.9980000  0  5G20G11G14G25G 1
  -5667603.33247  -4409343.38742  22849724.9204   22849722.4754
      4185.7924
  -7521382.34849  -5836836.97345  20713314.9124   20713312.1354
      2027.3484
   2104743.21149   1633579.90244  21266585.6474   21266582.3114
     -1166.7764
  -9927925.66048  -7704655.82046  20658117.5844   20658115.6194
      3042.4174
  -9969629.14849  -7754377.53145  20898537.3504   20898534.9714
      3246.4964
 04  9  8 15 44 59.9980000  0  5G20G11G14G25G 1
  -5730377.00847  -4458257.92242  22837779.4364   22837777.4984
      4184.9124
  -7551658.17249  -5860428.53545  20707553.9984   20707550.7524
      2018.3884
   2122291.50849   1647253.89145  21269924.9824   21269922.2214
     -1169.8864
  -9973442.86348  -7740123.77046  20649456.0764   20649454.2444
      3034.4804
 -10018246.10549  -7792260.85545  20889285.6234   20889283.5964
      3241.1304
 04  9  8 15 45 14.9980000  0  5G20G11G14G25G 1
  -5793136.85546  -4507161.69142  22825837.6394   22825834.8224
      4183.9904
  -7581799.02049  -5883914.91045  20701818.3574   20701815.0884
      2009.3904
   2139886.85948   1660964.53944  21273273.1934   21273270.0334
     -1173.0234
 -10018840.20749  -7775498.30945  20640817.2014   20640815.2014
      3026.4904
 -10066781.85249  -7830080.90645  20880049.5454   20880047.8034
      3235.7164
 04  9  8 15 45 29.9980000  0  5G20G11G14G25G 1
  -5855881.82446  -4556053.87942  22813897.9514   22813894.1354
      4182.9984
  -7611803.98049  -5907295.40646  20696108.7564   20696105.1234
      2000.3314
   2157529.91449   1674712.36345  21276630.9904   21276628.0644
     -1176.2044
 -10064116.62148  -7810778.61745  20632201.5064   20632199.5574
      3018.4284
 -10115235.53548  -7867837.01245  20870828.7794   20870827.2014
      3230.2464
 04  9  8 15 45 44.9980000  0  5G20G11G14G25G 1
  -5918610.19547  -4604933.11742  22801959.9204   22801957.1934
      4181.8914
  -7641671.33649  -5930568.68045  20690424.6234   20690421.7174
      1991.1574
   2175222.03949   1688498.41445  21279997.4754   21279995.3774
     -1179.4754
 -10109270.38749  -7845963.35545  20623609.0294   20623606.5964
      3010.2514
 -10163605.53549  -7905527.91045  20861624.6074   20861622.9044
      3224.6674
 04  9  8 15 45 59.9980000  0  5G20G11G14G25G 1
  -5981323.85547  -4653800.87942  22790025.8034   22790023.1234
      4180.9114
  -7671402.86749  -5953736.10946  20684767.4044   20684763.8614
      1982.1024
   2192961.08649   1702321.02044  21283372.9284   21283370.4634
     -1182.6034
 -10154303.34049  -7881053.96945  20615039.5534   20615037.1894
      3002.1974
 -10211893.80149  -7943155.12145  20852435.7254   20852434.5254
      3219.2184
 04  9  8 15 46 14.9980000  0  5G20G11G14G25G 1
  -6044023.27047  -4702657.54342  22778094.4044   22778092.2834
      4179.9614
  -7700999.15249  -5976798.16045  20679135.1864   20679131.7644
      1973.0864
   2210746.19149   1716179.52744  21286757.2874   21286754.1434
     -1185.6744
 -10199215.83649  -7916050.70345  20606492.9434   20606490.4284
      2994.1664
 -10260100.93449  -7980719.10545  20843262.3184   20843260.5104
      3213.8094
 04  9  8 15 46 29.9980000  0  5G20G11G14G25G 1
  -6106703.53947  -4751499.32043  22766167.1074   22766164.7054
      4178.6854
  -7730455.30149  -5999751.00845  20673530.0844   20673526.8774
      1963.7434
   2228581.95749   1730077.51645  21290151.5064   21290149.0374
     -1189.0514
 -10244002.89149  -7950949.69145  20597970.0684   20597968.0414
      2985.8044
 -10308222.12949  -8018216.12945  20834104.5064   20834102.7444
      3208.0804
 04  9  8 15 46 44.9980000  0  5G20G11G14G25G 1
  -6169368.49647  -4800329.12542  22754242.4434   22754240.2874
      4177.6644
  -7759775.17649  -6022597.66845  20667950.4824   20667947.3894
      1954.6584
   2246464.05549   1744011.59844  21293554.3504   21293551.5804
     -1192.1404
 -10288668.21549  -7985753.85246  20589470.7484   20589468.6934
      2977.6884
 -10356261.34449  -8055649.26645  20824963.5684   20824961.7684
      3202.6144
 04  9  8 15 46 59.9980000  0  5G20G11G14G25G 1
  -6232019.21947  -4849147.86743  22742320.1544   22742318.4244
      4176.7154
  -7788959.82849  -6045338.96145  20662396.8654   20662393.3074
      1945.6434
   2264391.09848   1757980.70745  21296965.4984   21296963.0924
     -1195.1364
 -10333212.80948  -8020463.91846  20580994.1004   20580991.7054
      2969.6404
 -10404219.78949  -8093019.47745  20815836.7564   20815835.6544
      3197.2304
 04  9  8 15 47 14.9980000  0  5G20G11G14G25G 1
  -6294654.45347  -4897954.52743  22730401.6624   22730399.2994
      4175.6824
  -7818008.09449  -6067973.99645  20656869.2724   20656865.6584
      1936.5514
   2282364.14149   1771985.64545  21300386.1474   21300383.5184
     -1198.2034
 -10377635.52049  -8055078.99646  20572540.6864   20572538.3854
      2961.5144
 -10452096.18749  -8130325.74245  20806726.4594   20806725.2324
      3191.7604
 04  9  8 15 47 29.9980000  0  5G20G11G14G25G 1
  -6357274.09447  -4946749.04343  22718485.1234   22718483.0534
      4174.6434
  -7846919.93448  -6090502.70345  20651367.3974   20651363.9594
      1927.4564
   2300382.84449   1786026.18045  21303814.8814   21303812.0414
     -1201.2474
 -10421936.08648  -8089598.91046  20564110.9204   20564108.5144
      2953.3714
 -10499890.62149  -8167568.14845  20797631.7404   20797629.7874
      3186.2964
 04  9  8 15 47 44.9980000  0  5G20G11G14G25G 1
  -6419878.33247  -4995531.55943  22706572.1864   22706569.4754
      4173.6164
  -7875695.44949  -6112925.19545  20645891.8504   20645888.2754
      1918.3684
   2318446.82049   1800101.98045  21307252.4434   21307249.7644
     -1204.2654
 -10466114.54749  -8124023.66846  20555703.8184   20555701.6584
      2945.2314
 -10547603.24649  -8204746.80945  20788552.3424   20788550.5884
      3180.8424
 04  9  8 15 47 59.9980000  0  5G20G11G14G25G 1
  -6482465.21548  -5044300.53143  22694661.8114   22694659.9824
      4172.4594
  -7904332.73849  -6135239.96545  20640442.0924   20640439.1544
      1909.1534
   2336557.63748   1814214.28944  21310698.2174   21310696.0374
     -1207.3884
 -10510168.87149  -8158351.70746  20547320.6474   20547318.6194
      2936.9554
 -10595232.31649  -8241860.35945  20779488.7794   20779486.8694
      3175.2714
 04  9  8 15 48 14.9980000  0  5G20G11G14G25G 1
  -6545036.50048  -5093057.38743  22682754.6934   22682752.9084
      4171.4194
  -7932833.63748  -6157448.47345  20635018.2874   20635015.3734
      1900.0604
   2354713.11349   1828361.39844  21314153.5374   21314150.6074
     -1210.3654
 -10554101.00448  -8192584.53145  20538960.3184   20538958.4434
      2928.8094
 -10642779.66449  -8278910.23845  20770440.5294   20770438.8384
      3169.8234
 04  9  8 15 48 29.9980000  0  5G20G11G14G25G 1
  -6607591.34847  -5141801.40643  22670852.1004   22670848.8974
      4170.3234
  -7961197.33249  -6179550.07045  20629621.3114   20629617.6744
      1890.9134
   2372913.85548   1842543.78144  21317617.1704   21317614.3504
     -1213.3834
 -10597909.97749  -8226721.39146  20530624.1624   20530621.9474
      2920.5984
 -10690244.58249  -8315895.86745  20761408.4824   20761406.4754
      3164.3284
 04  9  8 15 48 44.9980000  0  5G20G11G14G25G 1
  -6670128.64548  -5190531.75843  22658951.3974   22658948.7914
      4169.1534
  -7989422.76648  -6201543.91045  20624249.6394   20624246.3734
      1881.6964
   2391160.55949   1856761.97744  21321088.9984   21321086.5414
     -1216.4474
 -10641594.39148  -8260761.18746  20522311.3344   20522309.2294
      2912.2944
 -10737626.01649  -8352816.46145  20752392.5844   20752390.2484
      3158.7624
 04  9  8 15 48 59.9980000  0  5G20G11G14G25G 1
  -6732649.16848  -5239249.06243  22647054.3264   22647051.5414
      4168.0354
  -8017510.81248  -6223430.70745  20618904.9674   20618901.4674
      1872.5364
   2409452.09849   1871015.09445  21324570.0454   21324567.6704
     -1219.4364
 -10685154.93448  -8294704.44546  20514022.1314   20514019.8934
      2904.0364
 -10784924.87949  -8389672.71145  20743391.9674   20743389.9164
      3153.2584
 04  9  8 15 49 14.9980000  0  5G20G11G14G25G 1
  -6795153.72747  -5287953.90243  22635159.2874   22635157.4634
      4166.9714
  -8045462.20749  -6245211.02346  20613586.1154   20613582.6824
      1863.4264
   2427787.33649   1885302.27344  21328059.1784   21328056.2954
     -1222.3494
 -10728592.53149  -8328551.90646  20505755.8034   20505753.7254
      2895.8404
 -10832142.14149  -8426465.37545  20734406.6394   20734404.4864
      3147.8174
 04  9  8 15 49 29.9980000  0  5G20G11G14G25G 1
  -6857641.68747  -5336645.80143  22623268.4044   22623266.1544
      4165.8644
  -8073276.29748  -6266884.35245  20608293.0844   20608290.2324
      1854.2734
   2446166.60948   1899623.77044  21331556.2724   21331553.7094
     -1225.2854
 -10771906.55548  -8362303.07446  20497513.6784   20497511.4794
      2887.6024
 -10879277.14549  -8463193.94145  20725436.4754   20725434.7404
      3142.3344
 04  9  8 15 49 44.9980000  0  5G20G11G14G25G 1
  -6920111.60547  -5385323.66043  22611381.1074   22611378.3184
      4164.6614
  -8100951.75448  -6288449.65645  20603027.0294   20603023.6234
      1845.0304
   2464590.96548   1913980.37944  21335062.8734   21335060.2174
     -1228.2904
 -10815095.53948  -8395956.82846  20489294.7324   20489292.9284
      2879.2664
 -10926328.65649  -8499857.44145  20716483.4754   20716481.6044
      3136.7674
 04  9  8 15 49 59.9980000  0  5G20G11G14G25G 1
  -6982564.47748  -5433988.23843  22599496.4594   22599493.9044
      4163.5254
  -8128489.59448  -6309907.72345  20597786.7794   20597782.8694
      1835.8564
   2483059.07448   1928371.10244  21338577.2484   21338573.9594
     -1231.2074
 -10858160.34048  -8429513.79746  20481099.8814   20481097.5294
      2870.9874
 -10973297.69949  -8536456.69145  20707544.8504   20707543.2524
      3131.2704
 04  9  8 15 50 14.9980000  0  5G20G11G14G25G 1
  -7045000.06647  -5482639.31243  22587614.8974   22587613.1074
      4162.3734
  -8155889.70748  -6331258.46145  20592572.4434   20592569.0414
      1826.6744
   2501570.94948   1942795.91444  21342099.7954   21342096.5254
     -1234.1254
 -10901100.61749  -8462973.74646  20472928.3574   20472926.5104
      2862.6854
 -11020184.14549  -8572991.56645  20698622.4824   20698621.0494
      3125.7634
 04  9  8 15 50 29.9980000  0  5G20G11G14G25G 1
  -7107416.91047  -5531275.79343  22575737.8894   22575735.7364
      4161.1234
  -8183150.67248  -6352500.77745  20587384.4514   20587381.5574
      1817.3984
   2520127.60548   1957255.64144  21345630.5614   21345628.1194
     -1237.1104
 -10943914.89548  -8496335.51646  20464781.1074   20464779.0374
      2854.2854
 -11066986.71149  -8609461.10245  20689717.1544   20689714.7874
      3120.1714
 04  9  8 15 50 44.9980000  0  5G20G11G14G25G 1
  -7169816.55147  -5579898.88343  22563863.4434   22563861.3814
      4159.9764
  -8210274.08248  -6373635.91446  20582224.0534   20582220.4084
      1808.2274
   2538727.16048   1971748.76244  21349170.4824   21349167.4474
     -1239.9704
 -10986604.82048  -8529600.39146  20456657.9904   20456655.6394
      2845.9954
 -11113707.02749  -8645866.53945  20680826.0064   20680824.6004
      3114.6884
 04  9  8 15 50 59.9980000  0  5G20G11G14G25G 1
  -7232198.34447  -5628508.06242  22551992.7014   22551990.0024
      4158.7864
  -8237259.36748  -6394663.41445  20577088.3184   20577085.1934
      1799.0194
   2557369.93048   1986275.58644  21352717.9594   21352714.4984
     -1242.8514
 -11029169.59048  -8562767.72346  20448558.1314   20448555.8144
      2837.6514
 -11160344.48049  -8682207.39545  20671951.2564   20671950.0534
      3109.1644
 04  9  8 15 51 14.9980000  0  5G20G11G14G25G 1
  -7294560.58247  -5677102.00442  22540125.0294   22540122.4474
      4157.4834
  -8264104.80548  -6415581.95345  20571979.6394   20571976.9044
      1789.6964
   2576057.27748   2000837.14844  21356273.8034   21356270.6234
     -1245.8234
 -11071607.55549  -8595836.25446  20440482.2724   20440480.2324
      2829.1984
 -11206897.56649  -8718482.51645  20663092.5454   20663091.1624
      3103.5394
 04  9  8 15 51 29.9980000  0  5G20G11G14G25G 1
  -7356905.24647  -5725682.27042  22528261.0064   22528258.4944
      4156.3114
  -8290812.34048  -6436393.02345  20566897.4754   20566894.0454
      1780.5024
   2594786.94148   2015431.66444  21359838.0224   21359834.9474
     -1248.6444
 -11113920.53948  -8628807.39846  20432429.9754   20432428.2684
      2820.8664
 -11253368.40249  -8754693.53945  20654249.4594   20654247.5924
      3098.0564
 04  9  8 15 51 44.9980000  0  5G20G11G14G25G 1
  -7419229.21547  -5774246.39842  22516401.4284   22516398.9634
      4154.9314
  -8317379.14148  -6457094.43445  20561841.7874   20561838.7564
      1771.1204
   2613561.60248   2030061.24244  21363410.9044   21363408.0064
     -1251.6444
 -11156105.43048  -8661678.74246  20424402.5764   20424400.5964
      2812.3264
 -11299754.01249  -8790838.16845  20645422.5454   20645421.0804
      3092.3744
 04  9  8 15 51 59.9980000  0  5G20G11G14G25G 1
  -7481535.59447  -5822796.82043  22504544.7404   22504542.5254
      4153.7594
  -8343808.35948  -6477688.64146  20556812.8894   20556809.6934
      1761.9484
   2632377.75448   2044723.16444  21366991.8344   21366988.7174
     -1254.4104
 -11198165.14848  -8694452.53546  20416399.2324   20416396.7254
      2803.9814
 -11346057.63349  -8826918.89545  20636611.1934   20636609.6864
      3086.9084
 04  9  8 15 52 14.9980000  0  5G20G11G14G25G 1
  -7543823.61747  -5871332.91843  22492692.4434   22492689.2644
      4152.5354
  -8370099.19548  -6498175.01646  20551809.7014   20551806.7484
      1752.7224
   2651235.93448   2059417.82444  21370580.0684   21370577.2324
     -1257.2124
 -11240099.11748  -8727128.33646  20408419.1234   20408417.3034
      2795.5984
 -11392278.56249  -8862935.19545  20627815.6234   20627814.0924
      3081.3954
 04  9  8 15 52 29.9980000  0  5G20G11G14G25G 1
  -7606093.14848  -5919854.63343  22480842.8114   22480840.0064
      4151.3024
  -8396251.53548  -6518553.46546  20546833.5064   20546830.1584
      1743.4894
   2670135.92248   2074145.07844  21374175.6934   21374173.2254
     -1259.9994
 -11281906.99648  -8759705.89546  20400463.4754   20400461.5144
      2787.1924
 -11438416.76649  -8898887.03146  20619035.9984   20619033.9794
      3075.8804
 04  9  8 15 52 44.9980000  0  5G20G11G14G25G 1
  -7668343.79348  -5968361.61343  22468996.1864   22468994.1234
      4150.0434
  -8422264.99648  -6538823.69946  20541882.9204   20541879.4864
      1734.2314
   2689077.87548   2088905.00444  21377781.2724   21377778.3654
     -1262.7974
 -11323588.40248  -8792184.91446  20392532.3114   20392530.0964
      2778.7604
 -11484471.87949  -8934774.12545  20610271.7404   20610270.2484
      3070.3414
 04  9  8 15 52 59.9980000  0  5G20G11G14G25G 1
  -7730575.42247  -6016853.79343  22457154.7874   22457151.9244
      4148.7754
  -8448139.62949  -6558985.76245  20536959.3184   20536956.1114
      1724.9764
   2708061.38347   2103697.36344  21381393.4434   21381390.4434
     -1265.5674
 -11365143.34448  -8824565.37546  20384624.3974   20384622.2484
      2770.3294
 -11530444.09049  -8970596.61345  20601523.4984   20601521.9364
      3064.8144
 04  9  8 15 53 14.9980000  0  5G20G11G14G25G 1
  -7792786.85248  -6065330.23043  22445316.4674   22445313.2874
      4147.4294
  -8473874.29348  -6579038.76645  20532061.9824   20532058.6004
      1715.6444
   2727087.51647   2118522.89844  21385013.7724   21385011.0574
     -1268.4094
 -11406570.50049  -8856846.25846  20376740.9514   20376739.0224
      2761.8104
 -11576332.09049  -9006353.47745  20592791.8504   20592789.6154
      3059.2004
 04  9  8 15 53 29.9980000  0  5G20G11G14G25G 1
  -7854979.50448  -6113792.01242  22433480.4124   22433478.3974
      4146.1774
  -8499470.59848  -6598983.94945  20527191.1314   20527188.0684
      1706.4204
   2746154.36748   2133380.15644  21388641.8974   21388639.4594
     -1271.1234
 -11447871.14548  -8889028.57046  20368881.3114   20368879.5064
      2753.3764
 -11622137.60549  -9042046.06645  20584074.9204   20584072.9944
      3053.7014
 04  9  8 15 53 44.9980000  0  5G20G11G14G25G 1
  -7917152.44948  -6162238.44942  22421649.5924   22421647.0064
      4144.8634
  -8524927.55948  -6618820.54346  20522346.9824   20522343.5104
      1697.1314
   2765262.48448   2148269.58244  21392278.7324   21392276.0494
     -1273.8744
 -11489044.48048  -8921111.68746  20361046.3814   20361044.6624
      2744.8894
 -11667859.81649  -9077673.75845  20575374.3974   20575372.4944
      3048.1474
 04  9  8 15 53 59.9980000  0  5G20G11G14G25G 1
  -7979306.43048  -6210670.11742  22409822.5224   22409819.3814
      4143.5994
  -8550245.93049  -6638549.15246  20517529.0764   20517525.7094
      1687.8914
   2784410.84047   2163190.35944  21395921.8424   21395919.9514
     -1276.5574
 -11530091.17249  -8953096.10946  20353235.3734   20353233.5844
      2736.4464
 -11713499.58649  -9113237.21145  20566689.3264   20566687.5024
      3042.6514
 04  9  8 15 54 14.9980000  0  5G20G11G14G25G 1
  -8041442.32848  -6259087.68743  22397998.5684   22397995.5144
      4142.3934
  -8575426.85949  -6658170.67245  20512736.9594   20512734.0104
      1678.7294
   2803598.20748   2178141.50844  21399573.6314   21399570.6864
     -1279.1584
 -11571012.07448  -8984982.51646  20345448.3894   20345446.4434
      2728.0604
 -11759057.91849  -9148737.17645  20558019.8114   20558018.1314
      3037.2224
 04  9  8 15 54 29.9980000  0  5G20G11G14G25G 1
  -8103559.21548  -6307490.45742  22386176.7324   22386175.0844
      4141.1264
  -8600469.39148  -6677684.34045  20507971.9204   20507968.8574
      1669.5024
   2822825.07848   2193123.48444  21403233.0764   21403229.8344
     -1281.7914
 -11611806.23448  -9016770.16046  20337685.5684   20337683.8034
      2719.6114
 -11804533.94149  -9184173.03945  20549365.6864   20549363.9434
      3031.7354
 04  9  8 15 54 44.9980000  0  5G20G11G14G25G 1
  -8165655.55948  -6355877.18442  22374361.4284   22374358.0684
      4139.7564
  -8625372.12148  -6697089.07445  20503233.1864   20503229.7834
      1660.1824
   2842092.77748   2208137.25844  21406898.8184   21406896.6394
     -1284.5134
 -11652472.24648  -9048457.95746  20329947.2404   20329945.0294
      2711.0674
 -11849926.27349  -9219543.68045  20540728.1544   20540726.0064
      3026.1554
 04  9  8 15 54 59.9980000  0  5G20G11G14G25G 1
  -8227731.74248  -6404248.25042  22362548.8894   22362545.7054
      4138.4124
  -8650135.35248  -6716385.09845  20498520.8654   20498517.4044
      1650.8824
   2861400.56648   2223182.25044  21410572.6004   21410570.9824
     -1287.1864
 -11693010.29348  -9080046.03946  20322232.9124   20322230.7754
      2702.5364
 -11895235.48849  -9254849.55145  20532105.7484   20532104.0224
      3020.6144
 04  9  8 15 55 14.9980000  0  5G20G11G14G25G 1
  -8289788.38748  -6452604.05942  22350739.3424   22350736.2994
      4137.1104
  -8674759.86748  -6735573.04345  20493834.7724   20493831.4394
      1641.6344
   2880747.54348   2238257.79344  21414255.0534   21414251.9794
     -1289.7984
 -11733420.90648  -9111534.81246  20314543.1864   20314541.0614
      2694.0414
 -11940462.21549  -9290091.14145  20523500.0534   20523498.2134
      3015.1154
 04  9  8 15 55 29.9980000  0  5G20G11G14G25G 1
  -8351824.87948  -6500944.18042  22338933.6394   22338931.2094
      4135.7664
  -8699245.28548  -6754652.60945  20489175.7324   20489172.1074
      1632.3614
   2900133.86748   2253364.03544  21417944.0224   21417940.7214
     -1292.4224
 -11773703.60548  -9142923.92646  20306877.3424   20306875.1114
      2685.5134
 -11985606.13749  -9325268.21145  20514908.6704   20514907.3654
      3009.5954
 04  9  8 15 55 44.9980000  0  5G20G11G14G25G 1
  -8413840.55548  -6549268.08642  22327133.8424   22327129.8694
      4134.3784
  -8723590.84849  -6773623.18445  20484542.9044   20484539.6624
      1623.0374
   2919560.00448   2268501.27344  21421640.5534   21421637.8544
     -1295.0764
 -11813857.63349  -9174212.77746  20299236.6074   20299234.6274
      2676.9354
 -12030666.57049  -9360380.22745  20506334.0374   20506332.7524
      3004.0294
 04  9  8 15 55 59.9970000  0  5G20G11G14G25G 1
  -8475830.57048  -6597571.98442  22315336.1654   22315334.4784
      4132.6684
  -8747794.41049  -6792483.10545  20479937.0794   20479933.8964
      1613.5714
   2939024.80948   2283668.60544  21425344.4384   21425342.0524
     -1297.6544
 -11853879.76649  -9205398.85246  20291620.8294   20291618.3374
      2668.1424
 -12075640.07849  -9395424.51245  20497776.0094   20497774.2394
      2998.2344
 04  9  8 15 56 14.9970000  0  5G20G11G14G25G 1
  -8537803.84447  -6645862.83642  22303544.1104   22303541.1574
      4131.5524
  -8771859.97749  -6811235.50445  20475357.4934   20475354.3804
      1604.3714
   2958529.99248   2298867.43044  21429056.3064   21429053.6694
     -1300.3464
 -11893776.05148  -9236486.84446  20284028.1344   20284026.4154
      2659.7524
 -12120533.42249  -9430406.32445  20489233.2594   20489231.2634
      2992.8904
 04  9  8 15 56 29.9970000  0  5G20G11G14G25G 1
  -8599757.10248  -6694138.09442  22291754.9934   22291751.6774
      4130.2174
  -8795786.88749  -6829879.84445  20470804.3294   20470801.1384
      1595.1274
   2978073.02048   2314095.75844  21432775.7984   21432772.4114
     -1302.8684
 -11933544.50449  -9267475.23446  20276460.7674   20276458.7354
      2651.2304
 -12165344.60549  -9465324.12146  20480705.8294   20480704.1854
      2987.4124
 04  9  8 15 56 44.9970000  0  5G20G11G14G25G 1
  -8661687.91847  -6742395.86742  22279969.5634   22279966.8134
      4128.7214
  -8819572.77349  -6848414.31646  20466278.1574   20466274.7474
      1585.7264
   2997656.01648   2329355.21544  21436501.7824   21436499.1264
     -1305.5334
 -11973182.64849  -9298362.10546  20268918.3684   20268915.8994
      2642.5434
 -12210071.29349  -9500176.07046  20472194.9934   20472193.2744
      2981.7794
 04  9  8 15 56 59.9970000  0  5G20G11G14G25G 1
  -8723597.75848  -6790637.30942  22268189.0714   22268185.1144
      4127.3234
  -8843219.39849  -6866840.25046  20461778.0954   20461774.7244
      1576.4424
   3017277.25448   2344644.46544  21440235.8374   21440232.9154
     -1308.0834
 -12012692.05149  -9329148.62946  20261399.2904   20261397.3064
      2633.9604
 -12254715.04749  -9534963.40646  20463699.3844   20463697.7394
      2976.2504
 04  9  8 15 57 14.9970000  0  5G20G11G14G25G 1
  -8785484.83248  -6838860.98843  22256411.3374   22256408.3804
      4125.8054
  -8866724.77749  -6885156.14145  20457305.2594   20457302.1184
      1567.0254
   3036938.02048   2359964.53544  21443977.2354   21443974.5054
     -1310.7184
 -12052070.97349  -9359833.48446  20253905.7594   20253903.6924
      2625.2614
 -12299274.26249  -9569684.85246  20455220.0094   20455218.4504
      2970.6144
 04  9  8 15 57 29.9970000  0  5G20G11G14G25G 1
  -8847348.55948  -6887066.49242  22244639.6344   22244636.4464
      4124.2484
  -8890088.31648  -6903361.50045  20452859.5714   20452856.1964
      1557.5694
   3056638.74648   2375315.71144  21447725.9544   21447723.1854
     -1313.3824
 -12091318.68748  -9390416.11746  20246437.6884   20246434.7474
      2616.5144
 -12343748.46149  -9604340.05946  20446756.7984   20446754.7514
      2964.9474
 04  9  8 15 57 44.9970000  0  5G20G11G14G25G 1
  -8909189.04348  -6935253.87542  22232871.7044   22232868.6034
      4122.6994
  -8913310.35949  -6921456.60946  20448439.9624   20448437.2514
      1548.1364
   3076378.95748   2390697.68444  21451482.1574   21451479.5564
     -1316.0144
 -12130435.29749  -9420896.57846  20238993.4784   20238991.2784
      2607.7744
 -12388137.88349  -9638929.21145  20438309.8534   20438307.8844
      2959.2954
 04  9  8 15 57 59.9970000  0  5G20G11G14G25G 1
  -8971005.80148  -6983422.75442  22221108.0954   22221104.8604
      4121.1174
  -8936390.50848  -6939441.14145  20444048.3214   20444044.9504
      1538.6774
   3096158.82448   2406110.55544  21455246.1104   21455243.4384
     -1318.6584
 -12169420.34448  -9451274.54346  20231575.2744   20231573.0054
      2599.0034
 -12432442.19549  -9673452.03545  20429878.9234   20429877.2314
      2953.6214
 04  9  8 15 58 14.9970000  0  5G20G11G14G25G 1
  -9032798.81648  -7031573.16442  22209349.2984   22209346.6964
      4119.5344
  -8959328.90249  -6957315.22745  20439683.6814   20439679.9354
      1529.2264
   3115977.83248   2421553.91844  21459018.0404   21459015.8214
     -1321.2674
 -12208273.95749  -9481550.07046  20224181.5634   20224179.4274
      2590.2414
 -12476661.53549  -9707908.65646  20421464.3844   20421462.9154
      2947.9564
 04  9  8 15 58 29.9970000  0  5G20G11G14G25G 1
  -9094570.03948  -7079706.55943  22197594.6264   22197591.9274
      4118.0824
  -8982127.74249  -6975080.55145  20435344.5014   20435341.2594
      1519.9234
   3135833.74248   2437026.01644  21462796.3294   21462794.3964
     -1323.7274
 -12246998.03949  -9511724.68746  20216812.4934   20216810.6304
      2581.6054
 -12520797.98049  -9742300.68746  20413065.2984   20413063.7084
      2942.4304
 04  9  8 15 58 44.9970000  0  5G20G11G14G25G 1
  -9156317.05948  -7127821.11743  22185844.5634   22185841.5324
      4116.4684
  -9004784.66849  -6992735.31245  20431033.5874   20431030.4034
      1510.4624
   3155728.62148   2452528.51244  21466582.4784   21466579.1774
     -1326.3254
 -12285590.31249  -9541796.57046  20209468.6344   20209466.2784
      2572.8184
 -12564849.38349  -9776626.43746  20404682.6494   20404680.8804
      2936.7604
 04  9  8 15 58 59.9970000  0  5G20G11G14G25G 1
  -9218040.31248  -7175917.16443  22174098.7594   22174095.8924
      4114.8844
  -9027300.06649  -7010279.78146  20426748.9234   20426745.5444
      1501.0274
   3175661.79348   2468060.85244  21470375.4464   21470372.7594
     -1328.8784
 -12324050.95349  -9571765.88746  20202149.8684   20202147.8964
      2564.0434
 -12608816.19949  -9810886.28946  20396316.3374   20396314.4424
      2931.1214
 04  9  8 15 59 14.9970000  0  5G20G11G14G25G 1
  -9279742.15648  -7223996.52343  22162357.1884   22162354.4154
      4113.4564
  -9049676.55949  -7027716.02046  20422490.8534   20422487.4584
      1491.7664
   3195630.42648   2483620.79744  21474175.7904   21474173.2284
     -1331.2424
 -12362382.47349  -9601634.60946  20194855.4464   20194853.5564
      2555.4354
 -12652701.00449  -9845082.24246  20387965.2044   20387963.0364
      2925.6544
 04  9  8 15 59 29.9970000  0  5G20G11G14G25G 1
  -9341420.60948  -7272057.64843  22150620.8764   22150617.8414
      4111.8974
  -9071912.14149  -7045042.44945  20418259.3064   20418256.3684
      1482.3724
   3215636.19948   2499209.68844  21477982.2124   21477980.1574
     -1333.7184
 -12400582.91849  -9631401.18746  20187586.4314   20187584.4074
      2546.6964
 -12696501.94149  -9879212.83246  20379629.6264   20379628.1064
      2920.0634
 04  9  8 15 59 44.9970000  0  5G20G11G14G25G 1
  -9403074.43748  -7320099.59443  22138887.9384   22138886.0214
      4110.2554
  -9094005.94549  -7062258.40246  20414055.2354   20414052.0054
      1472.9204
   3235680.05548   2514828.23444  21481796.3454   21481794.2204
     -1336.2574
 -12438651.19149  -9661064.77346  20180341.9934   20180339.9464
      2537.8854
 -12740217.94949  -9913277.23846  20371311.5404   20371309.2594
      2914.4014
 04  9  8 15 59 59.9970000  0  5G20G11G14G25G 1
  -9464705.12148  -7368123.49243  22127160.2824   22127158.2004
      4108.7124
  -9115959.30149  -7079364.93046  20409877.8534   20409874.6104
      1463.5574
   3255760.10948   2530475.00444  21485617.4074   21485615.1574
     -1338.6704
 -12476588.61749  -9690626.39846  20173122.9934   20173120.6224
      2529.1624
 -12783850.53149  -9947276.64846  20363008.0794   20363006.3174
      2908.8394
 04  9  8 16  0 14.9970000  0  5G20G11G14G25G 1
  -9526313.57048  -7416130.07443  22115436.1344   22115434.5014
      4107.2304
  -9137773.46149  -7096362.96946  20405726.5174   20405723.2124
      1454.2774
   3275875.12548   2546149.02044  21489445.8684   21489443.1964
     -1341.0014
 -12514396.19549  -9720086.83646  20165927.9314   20165926.3214
      2520.5054
 -12827400.85549  -9981211.96146  20354720.7904   20354718.9384
      2903.3554
 04  9  8 16  0 29.9970000  0  5G20G11G14G25G 1
  -9587899.37548  -7464119.00043  22103717.2824   22103714.6424
      4105.7204
  -9159447.96949  -7113252.19546  20401601.9544   20401598.7554
      1444.9674
   3296025.26248   2561850.43844  21493279.5634   21493277.6034
     -1343.3424
 -12552073.41849  -9749445.71946  20158758.8294   20158756.5604
      2511.8154
 -12870868.60249 -10015082.92646  20346449.3604   20346447.3604
      2897.8504
 04  9  8 16  0 44.9970000  0  5G20G11G14G25G 1
  -9649462.11748  -7512089.96543  22092002.0564   22091999.7004
      4104.1834
  -9180982.54749  -7130032.40246  20397503.9854   20397500.9934
      1435.6394
   3316210.54748   2577579.20344  21497120.3064   21497118.5674
     -1345.6864
 -12589619.98449  -9778702.77046  20151613.6424   20151611.9074
      2503.1044
 -12914253.57449 -10048889.37946  20338193.3764   20338191.6304
      2892.3324
 04  9  8 16  0 59.9970000  0  5G20G11G14G25G 1
  -9711001.82048  -7560042.96943  22080291.6264   22080289.2944
      4102.6474
  -9202377.42649  -7146703.75446  20393432.8134   20393429.4034
      1426.3254
   3336430.57048   2593335.01644  21500968.2434   21500966.1224
     -1348.0024
 -12627035.88349  -9807858.01246  20144494.0174   20144491.7514
      2494.3934
 -12957555.92249 -10082631.46145  20329953.4234   20329951.5444
      2886.8234
 04  9  8 16  1 14.9970000  0  5G20G11G14G25G 1
  -9772516.57848  -7607976.52743  22068586.1104   22068583.6814
      4100.9844
  -9223630.82849  -7163264.84445  20389388.3064   20389385.0604
      1416.8934
   3356686.86748   2609119.11744  21504823.4854   21504820.3764
     -1350.4204
 -12664319.28949  -9836910.00846  20137399.3454   20137397.1494
      2485.5604
 -13000773.89549 -10116307.79746  20321728.9854   20321727.0174
      2881.1984
 04  9  8 16  1 29.9970000  0  5G20G11G14G25G 1
  -9834007.64848  -7655891.66443  22056884.1184   22056882.1814
      4099.4054
  -9244743.91049  -7179716.60546  20385370.8994   20385367.0174
      1407.5394
   3376977.96949   2624930.37144  21508684.5954   21508681.8374
     -1352.7404
 -12701471.50449  -9865859.77346  20130329.2514   20130327.0484
      2476.8144
 -13043908.84849 -10149919.45346  20313520.8374   20313518.6774
      2875.6644
 04  9  8 16  1 44.9970000  0  5G20G11G14G25G 1
  -9895475.14148  -7703788.39843  22045187.6734   22045185.2714
      4097.8334
  -9265717.26649  -7196059.49245  20381379.5174   20381376.3294
      1398.2244
   3397303.30148   2640768.27044  21512552.6424   21512550.3254
     -1355.0224
 -12738492.77749  -9894707.50846  20123284.4384   20123281.9464
      2468.0854
 -13086961.15649 -10183466.68746  20305327.8454   20305326.0634
      2870.1544
 04  9  8 16  1 59.9970000  0  5G20G11G14G25G 1
  -9956919.09048  -7751666.79343  22033495.8134   22033492.8254
      4096.2634
  -9286550.88749  -7212293.48445  20377415.0794   20377411.5564
      1388.9084
   3417662.61348   2656632.63744  21516426.7284   21516424.1104
     -1357.2874
 -12775383.11349  -9923453.22746  20116264.2674   20116261.9384
      2459.3564
 -13129930.97349 -10216949.66446  20297151.1734   20297149.1734
      2864.6544
 04  9  8 16  2 14.9970000  0  5G20G11G14G25G 1
 -10018340.83248  -7799527.87943  22021807.0094   22021804.2514
      4094.7834
  -9307246.27349  -7228419.76645  20373477.2204   20373473.8294
      1379.6924
   3438054.13748   2672522.12144  21520307.2824   21520303.7164
     -1359.4354
 -12812143.73849  -9952097.85546  20109269.1034   20109266.4314
      2450.7084
 -13172819.74649 -10250369.47746  20288989.9384   20288987.6534
      2859.2524
 04  9  8 16  2 29.9970000  0  5G20G11G14G25G 1
 -10079737.54748  -7847369.44943  22010123.5484   22010120.9504
      4093.1144
  -9327800.63349  -7244436.15645  20369565.4314   20369562.3134
      1370.2914
   3458480.43448   2688438.70744  21524194.5324   21524191.9074
     -1361.7534
 -12848771.81249  -9980639.20346  20102298.9544   20102296.5134
      2441.8724
 -13215624.70749 -10283723.97346  20280843.9624   20280841.9314
      2853.6644
 04  9  8 16  2 44.9970000  0  5G20G11G14G25G 1
 -10141108.84448  -7895191.24243  21998445.1034   21998442.3684
      4091.4204
  -9348213.92649  -7260342.62945  20365681.4234   20365677.7394
      1360.8864
   3478941.30148   2704382.19544  21528087.5564   21528085.3804
     -1364.0584
 -12885267.41449 -10009077.33246  20095354.0564   20095351.4584
      2433.0404
 -13258345.85949 -10317013.17646  20272714.4074   20272712.3214
      2848.0774
 04  9  8 16  2 59.9970000  0  5G20G11G14G25G 1
 -10202455.42648  -7942993.77343  21986771.4314   21986768.6224
      4089.7724
  -9368486.72749  -7276139.62545  20361823.0634   20361819.7434
      1351.5204
   3499435.96548   2720352.04344  21531987.7594   21531985.0244
     -1366.3114
 -12921631.02349 -10037412.60546  20088434.1344   20088432.0134
      2424.2414
 -13300983.98049 -10350237.69145  20264600.5564   20264598.8174
      2842.5414
 04  9  8 16  3 14.9970000  0  5G20G11G14G25G 1
 -10263777.46948  -7990777.16843  21975101.5564   21975099.2084
      4088.1364
  -9388619.58649  -7291827.57445  20357991.8294   20357988.6924
      1342.1914
   3519963.82448   2736347.77344  21535893.6964   21535891.4114
     -1368.5244
 -12957862.82849 -10065645.17646  20081539.6034   20081537.0284
      2415.4544
 -13343539.46149 -10383397.78946  20256502.2204   20256500.6304
      2837.0324
 04  9  8 16  3 29.9970000  0  5G20G11G14G25G 1
 -10325075.91848  -8038542.18443  21963436.9464   21963434.4854
      4086.5634
  -9408613.57849  -7307407.31646  20354187.2984   20354184.2004
      1332.9334
   3540523.60948   2752368.36743  21539806.2354   21539803.6574
     -1370.6524
 -12993963.84049 -10093775.82846  20074670.0244   20074666.8994
      2406.7344
 -13386013.27349 -10416494.26245  20248420.0714   20248418.3724
      2831.5884
 04  9  8 16  3 44.9970000  0  5G20G11G14G25G 1
 -10386349.75048  -8086288.01243  21951776.6424   21951774.2394
      4084.9224
  -9428467.79349  -7322878.13345  20350408.9544   20350406.2394
      1323.6144
   3561115.96948   2768414.35244  21543724.7984   21543722.5834
     -1372.8244
 -13029933.12549 -10121803.83246  20067824.5564   20067822.5324
      2397.9524
 -13428404.67649 -10449526.50846  20240352.8994   20240351.7244
      2826.0934
 04  9  8 16  3 59.9970000  0  5G20G11G14G25G 1
 -10447599.30948  -8134014.93443  21940121.4154   21940118.9314
      4083.3044
  -9448182.81249  -7338240.50045  20346657.8994   20346654.6574
      1314.3354
   3581740.15648   2784485.10944  21547649.7594   21547647.1144
     -1374.9464
 -13065771.01249 -10149729.45346  20061005.4934   20061003.1574
      2389.1924
 -13470714.16049 -10482494.93446  20232302.1884   20232300.2554
      2820.6324
 04  9  8 16  4 14.9970000  0  5G20G11G14G25G 1
 -10508826.77048  -8181724.62543  21928470.0954   21928467.6384
      4081.8314
  -9467760.80949  -7353496.09046  20342932.0714   20342929.3064
      1305.2004
   3602393.75448   2800578.80144  21551580.2824   21551577.0754
     -1376.9074
 -13101479.80149 -10177554.48046  20054209.8844   20054207.9854
      2380.5864
 -13512944.04749 -10515401.32846  20224266.3684   20224264.0954
      2815.3264
 04  9  8 16  4 29.9970000  0  5G20G11G14G25G 1
 -10570028.94148  -8229414.60943  21916823.9314   21916821.4664
      4080.1454
  -9487198.76249  -7368642.55546  20339233.0874   20339229.8924
      1295.8644
   3623079.67249   2816697.67644  21555516.7674   21555514.0214
     -1379.0614
 -13137056.07849 -10205276.25046  20047439.8684   20047437.9704
      2371.7524
 -13555091.21149 -10548243.26246  20216245.7204   20216244.0014
      2809.8114
 04  9  8 16  4 44.9970000  0  5G20G11G14G25G 1
 -10631208.03148  -8277086.61343  21905181.9314   21905179.6224
      4078.6064
  -9506498.96149  -7383681.66845  20335560.1654   20335557.4464
      1286.6804
   3643795.27049   2832839.69944  21559458.7514   21559455.5674
     -1381.0404
 -13172502.34449 -10232896.71146  20040695.2284   20040692.6924
      2363.0844
 -13597158.10249 -10581022.64546  20208240.9934   20208238.8994
      2804.4594
 04  9  8 16  4 59.9970000  0  5G20G11G14G25G 1
 -10692363.82848  -8324740.49643  21893544.2744   21893542.4504
      4077.0534
  -9525661.35249  -7398613.41046  20331913.8064   20331910.7514
      1277.4934
   3664540.47748   2849004.78544  21563406.1734   21563403.4424
     -1383.0144
 -13207818.44949 -10260415.75046  20033974.6574   20033972.2084
      2354.4074
 -13639144.68449 -10613739.44546  20200250.8764   20200248.7514
      2799.1054
 04  9  8 16  5 14.9970000  0  6G20G11G14G23G25G 1
 -10753495.12948  -8372375.24643  21881912.0014   21881909.0604
      4075.4204
  -9544684.99249  -7413437.04746  20328294.0484   20328290.7354
      1268.2434
   3685316.10548   2865193.57044  21567359.6034   21567357.1104
     -1385.0424
   -381734.84015                  23193515.774

 -13243003.24249 -10287832.46946  20027279.1494   20027276.8644
      2345.6534
 -13681049.89149 -10646392.84846  20192276.8994   20192274.5794
      2793.6804
 04  9  8 16  5 29.9970000  0  6G20G11G14G23G25G 1
 -10814599.35948  -8419988.93043  21870283.3764   21870281.2084
      4073.6154
  -9563567.49249  -7428150.68446  20324700.9314   20324697.0914
      1258.8334
   3706124.43048   2881407.83244  21571319.1494   21571316.7984
     -1387.2224
   -446386.37546   -275599.21552  23181212.6034   23181208.9664
      4310.1024
 -13278054.25849 -10315144.94946  20020609.0174   20020606.7164
      2336.7344
 -13722871.36749 -10678981.00846  20184318.0794   20184316.2204
      2788.0984
 04  9  8 16  5 44.9970000  0  6G20G11G14G23G25G 1
 -10875677.86748  -8467582.57443  21858660.8684   21858657.9074
      4071.9014
  -9582310.32449  -7442755.49646  20321134.3064   20321130.8534
      1249.5224
   3726963.58648   2897646.10244  21575285.2674   21575282.7984
     -1389.2774
   -511002.02046   -325949.05942  23168916.1104   23168912.3684
      4307.7104
 -13312972.91849 -10342354.28546  20013964.3214   20013961.8494
      2327.9114
 -13764610.66449 -10711505.12146  20176375.4544   20176373.6344
      2782.6204
 04  9  8 16  5 59.9970000  0  6G20G11G14G23G25G 1
 -10936730.70348  -8515156.20343  21847042.5794   21847040.3024
      4070.1894
  -9600913.68049  -7457251.62145  20317593.9934   20317590.4584
      1240.2244
   3747833.26248   2913908.15244  21579256.2674   21579254.2594
     -1391.3124
   -575581.73846   -376270.84042  23156626.4464   23156623.8134
      4305.3154
 -13347759.19149 -10369460.46546  20007345.0634   20007342.4624
      2319.0854
 -13806267.93749 -10743965.32046  20168448.6034   20168446.4704
      2777.1524
 04  9  8 16  6 14.9970000  0  6G20G11G14G23G25G 1
 -10997757.11348  -8562709.24243  21835429.7044   21835427.3964
      4068.4274
  -9619377.00049  -7471638.63745  20314081.0324   20314077.1144
      1230.8884
   3768733.99648   2930194.39844  21583233.6814   21583231.6344
     -1393.3824
   -640124.92247   -426564.22342  23144345.1034   23144341.7124
      4302.8794
 -13382412.44949 -10396462.99246  20000750.3924   20000747.8724
      2310.2174
 -13847842.57049 -10776361.12546  20160537.1424   20160534.9314
      2771.6424
 04  9  8 16  6 29.9970000  0  6G20G11G14G23G25G 1
 -11058756.58248  -8610241.28143  21823822.0404   21823819.5174
      4066.6314
  -9637700.07849  -7485916.35945  20310593.8684   20310590.2944
      1221.5394
   3789665.87149   2946504.94144  21587217.2124   21587214.0214
     -1395.4584
   -704631.19546   -476828.82442  23132070.2594   23132066.4034
      4300.4184
 -13416932.15249 -10423361.46146  19994181.5954   19994178.4894
      2301.3144
 -13889334.30549 -10808692.34446  20152641.8294   20152639.2204
      2766.1164
 04  9  8 16  6 44.9970000  0  6G20G11G14G23G25G 1
 -11119729.14848  -8657752.37143  21812219.1654   21812217.3644
      4064.8384
  -9655882.91049  -7500084.80545  20307133.3924   20307130.2864
      1212.1894
   3810628.48048   2962839.43444  21591206.1184   21591203.1104
     -1397.5074
   -769100.60546   -527064.69542  23119800.9234   23119797.9074
      4297.9614
 -13451318.59049 -10450156.08646  19987638.1654   19987635.4464
      2292.4294
 -13930743.30949 -10840959.09446  20144761.2594   20144758.9974
      2760.6004
 04  9  8 16  6 59.9970000  0  6G20G11G14G23G25G 1
 -11180674.80948  -8705242.50043  21800622.2744   21800619.4544
      4063.0444
  -9673925.78149  -7514144.19945  20303700.3604   20303696.9424
      1202.8584
   3831621.59849   2979197.68844  21595201.0094   21595198.1344
     -1399.5414
   -833533.15246   -577271.84442  23107541.0634   23107536.6384
      4295.5034
 -13485571.73049 -10476846.83646  19981119.8604   19981117.0524
      2283.5434
 -13972069.79349 -10873161.53546  20136897.3764   20136895.2594
      2755.0994
 04  9  8 16  7 14.9970000  0  6G20G11G14G23G25G 1
 -11241593.30148  -8752711.44543  21789029.7434   21789027.1694
      4061.2334
  -9691828.50849  -7528094.38745  20300293.7514   20300290.2434
      1193.5154
   3852645.14548   2995579.65644  21599201.8454   21599198.5444
     -1401.5704
   -897928.79747   -627450.26642  23095287.0794   23095283.0134
      4293.0434
 -13519691.44949 -10503433.61746  19974626.6884   19974624.9624
      2274.6484
 -14013313.60949 -10905299.57046  20129048.7514   20129047.2164
      2749.5884
 04  9  8 16  7 29.9970000  0  6G20G11G14G23G25G 1
 -11302485.01648  -8800159.54343  21777442.5634   21777439.7784
      4059.4484
  -9709591.66049  -7541935.80545  20296913.4784   20296909.8414
      1184.2104
   3873698.25048   3011984.65644  21603208.0634   21603204.9894
     -1403.5404
   -962287.97746   -677600.20342  23083039.6734   23083034.9354
      4290.6124
 -13553678.18449 -10529916.77046  19968159.3374   19968157.1184
      2265.7824
 -14054475.33649 -10937373.62146  20121215.8374   20121214.5444
      2744.1154
 04  9  8 16  7 44.9970000  0  6G20G11G14G23G25G 1
 -11363348.63748  -8847585.71143  21765860.6344   21765858.0214
      4057.5754
  -9727214.09849  -7555667.58246  20293559.5014   20293556.6224
      1174.8294
   3894781.93848   3028413.49243  21607219.9154   21607217.4464
     -1405.5794
  -1026609.35546   -727720.69542  23070798.8534   23070795.8924
      4288.0924
 -13587530.66849 -10556295.32446  19961717.4234   19961715.1964
      2256.8324
 -14095553.85949 -10969382.84846  20113398.5874   20113397.1104
      2738.5684
 04  9  8 16  7 59.9970000  0  6G20G11G14G23G25G 1
 -11424186.50848  -8894991.85243  21754282.9074   21754281.0324
      4055.8584
  -9744698.43449  -7569291.75445  20290232.4934   20290229.5914
      1165.6224
   3915893.62948   3044864.14143  21611237.7984   21611234.5364
     -1407.4464
  -1090895.31646   -777813.64842  23058565.5954   23058562.5214
      4285.7314
 -13621251.24249 -10582571.09846  19955300.8214   19955298.2784
      2248.0384
 -14136551.60549 -11001329.13346  20105597.2594   20105595.5014
      2733.1834
 04  9  8 16  8 14.9970000  0  6G20G11G14G23G25G 1
 -11484998.51648  -8942377.80543  21742710.7284   21742708.5244
      4054.1344
  -9762044.63749  -7582808.28145  20286931.9074   20286928.6614
      1156.4144
   3937033.09848   3061336.44143  21615260.3214   21615257.6104
     -1409.2984
  -1155145.86747   -827878.99642  23046339.8454   23046335.7674
      4283.3704
 -13654839.92249 -10608744.09046  19948909.1964   19948907.0634
      2239.2454
 -14177468.69549 -11033212.57846  20097810.7984   20097809.2714
      2727.8064
 04  9  8 16  8 29.9970000  0  6G20G11G14G23G25G 1
 -11545780.92648  -8989740.72343  21731144.7904   21731141.6184
      4052.1614
  -9779249.28949  -7596214.51246  20283657.7434   20283654.3724
      1146.9774
   3958203.60248   3077832.91843  21619289.1034   21619285.9234
     -1411.3674
  -1219357.51246   -877913.98842  23034119.2204   23034116.1654
      4280.7764
 -13688293.02349 -10634811.43446  19942543.1264   19942540.6104
      2230.2074
 -14218301.61749 -11065030.43046  20090040.7284   20090039.0674
      2722.1954
 04  9  8 16  8 44.9970000  0  6G20G11G14G23G25G 1
 -11606532.82448  -9037079.85543  21719583.8764   21719580.9314
      4050.1274
  -9796311.60249  -7609509.82446  20280410.9154   20280407.4034
      1137.4884
   3979405.69948   3094354.02742  21623323.0244   21623321.1304
     -1413.4734
  -1283529.30946   -927917.99642  23021908.1814   23021904.8134
      4278.1204
 -13721609.89849 -10660772.62546  19936203.2984   19936200.9194
      2221.1254
 -14259049.64549 -11096782.12546  20082286.5244   20082285.0014
      2716.5354
 04  9  8 16  8 59.9970000  0  6G20G11G14G23G25G 1
 -11667256.14148  -9084396.72743  21708028.6734   21708025.9464
      4048.2214
  -9813233.56649  -7622695.77746  20277191.1494   20277187.7634
      1128.1314
   4000637.30148   3110898.11342  21627363.8924   21627361.0954
     -1415.4404
  -1347663.32046   -977892.55142  23009704.0324   23009699.8454
      4275.6014
 -13754792.31249 -10686629.05146  19929888.8924   19929886.4074
      2212.1614
 -14299714.89849 -11128469.32846  20074548.4074   20074546.9194
      2711.0174
 04  9  8 16  9 14.9970000  0  6G20G11G14G23G25G 1
 -11727952.12148  -9131692.28544  21696478.5794   21696475.8064
      4046.3994
  -9830016.67649  -7635773.53946  20273997.2594   20273994.2634
      1118.8744
   4021896.83647   3127463.98042  21631409.0714   21631406.3884
     -1417.3024
  -1411760.73447  -1027838.54742  22997507.1734   22997503.3454
      4273.1614
 -13787841.72749 -10712381.83646  19923599.4704   19923597.1344
      2203.2944
 -14340298.71549 -11160093.06246  20066825.3844   20066824.0094
      2705.5884
 04  9  8 16  9 29.9970000  0  6G20G11G14G23G25G 1
 -11788617.79747  -9178964.23443  21684934.4784   21684931.5014
      4044.3784
  -9846658.26649  -7648741.02746  20270830.8454   20270827.2244
      1109.4394
   4043186.63347   3144053.40642  21635461.0014   21635457.2284
     -1419.3204
  -1475818.77047  -1077753.87942  22985316.9934   22985312.9234
      4270.5364
 -13820755.31649 -10738028.78546  19917336.9154   19917334.2164
      2194.2394
 -14380798.50049 -11191651.32846  20059118.6814   20059117.4114
      2699.9864
 04  9  8 16  9 44.9970000  0  6G20G11G14G23G25G 1
 -11849253.78547  -9226213.05143  21673395.5564   21673392.6384
      4042.3994
  -9863159.12549  -7661598.84846  20267691.1104   20267687.3174
      1100.0574
   4064505.84848   3160665.75042  21639517.5874   21639515.1104
     -1421.2814
  -1539838.15247  -1127639.10542  22973134.6184   22973131.7904
      4267.9594
 -13853533.91449 -10763570.55146  19911099.1734   19911096.3604
      2185.2404
 -14421214.96549 -11223144.66846  20051427.5874   20051425.6264
      2694.4314
 04  9  8 16  9 59.9970000  0  6G20G11G14G23G25G 1
 -11909862.31648  -9273440.46543  21661862.1884   21661859.5284
      4040.5694
  -9879521.63749  -7674348.86746  20264576.8454   20264573.7594
      1090.8344
   4085851.93047   3177299.04342  21643579.6104   21643576.8604
     -1423.0724
  -1603821.22747  -1177496.05542  22960958.7354   22960955.4544
      4265.5384
 -13886179.75849 -10789008.85546  19904886.6574   19904884.0014
      2176.3904
 -14461550.54349 -11254574.98046  20043751.8994   20043750.0284
      2689.0394
 04  9  8 16 10 14.9970000  0  6G20G11G14G23G25G 1
 -11970442.94947  -9320646.16043  21650333.7514   21650331.4234
      4038.7094
  -9895745.50049  -7686990.84446  20261489.5404   20261486.6534
      1081.5914
   4107224.99247   3193953.34842  21647646.8294   21647644.1964
     -1424.8714
  -1667767.54747  -1227324.30942  22948790.4624   22948786.5634
      4263.0884
 -13918692.32849 -10814343.32846  19898699.5244   19898697.2044
      2167.5054
 -14501804.94949 -11285942.03546  20036091.8764   20036089.9354
      2683.6274
 04  9  8 16 10 29.9970000  0  6G20G11G14G23G25G 1
 -12030992.67647  -9367827.74644  21638812.1424   21638808.5604
      4036.6484
  -9911827.96149  -7699522.64546  20258429.1814   20258426.1184
      1072.1644
   4128627.73847   3210630.77342  21651719.5874   21651717.4504
     -1426.8504
  -1731674.27747  -1277121.74242  22936628.5244   22936625.1064
      4260.4494
 -13951068.81649 -10839571.74646  19892538.5874   19892536.3724
      2158.4334
 -14541975.35949 -11317243.64846  20028447.3844   20028445.5714
      2678.0274
 04  9  8 16 10 44.9970000  0  6G20G11G14G23G25G 1
 -12091513.77747  -9414987.04344  21627294.6734   21627292.4814
      4034.7404
  -9927771.44149  -7711946.14146  20255394.9784   20255392.0444
      1062.8994
   4150057.64146   3227329.38342  21655796.9784   21655795.8684
     -1428.6604
  -1795543.73847  -1326890.13742  22924475.6964   22924471.4034
      4257.9644
 -13983311.37949 -10864695.81646  19886403.0794   19886400.5404
      2149.5044
 -14582064.12949 -11348481.64146  20020819.2284   20020817.3254
      2672.5854
 04  9  8 16 10 59.9970000  0  6G20G11G14G23G25G 1
 -12152003.96948  -9462122.25443  21615784.4074   21615781.4974
      4032.6794
  -9943573.97749  -7724259.80946  20252388.2284   20252384.4744
      1053.5024
   4171516.43847   3244050.49642  21659880.4464   21659878.7354
     -1430.5864
  -1859373.74247  -1376627.77342  22912328.6034   22912324.4354
      4255.3344
 -14015418.03149 -10889713.98046  19880293.2674   19880290.8804
      2140.4434
 -14622069.27749 -11379654.45746  20013206.1034   20013204.4544
      2667.0104
 04  9  8 16 11 14.9970000  0  6G20G11G14G23G25G 1
 -12212464.87548  -9509234.64844  21604278.8134   21604276.2824
      4030.7274
  -9959237.24649  -7736464.96546  20249407.3764   20249404.2084
      1044.2184
   4193002.28546   3260792.69542  21663969.4384   21663967.2514
     -1432.3904
  -1923165.88747  -1426335.93042  22900189.3924   22900185.7554
      4252.8104
 -14047390.42249 -10914627.53946  19874209.1424   19874206.8334
      2131.4934
 -14661992.60249 -11410763.53946  20005609.2284   20005607.0954
      2661.5554
 04  9  8 16 11 29.9970000  0  6G20G11G14G23G25G 1
 -12272894.02748  -9556322.28143  21592779.2354   21592777.1104
      4028.6104
  -9974759.07049  -7748559.89846  20246453.8684   20246450.6654
      1034.7884
   4214517.28946   3277557.60242  21668063.4314   21668061.4354
     -1434.3344
  -1986917.98847  -1476012.87142  22888058.3134   22888053.7984
      4250.1404
 -14079226.41049 -10939434.79346  19868150.8924   19868148.6614
      2122.3994
 -14701831.83249 -11441807.07846  19998028.0244   19998026.3844
      2655.9494
 04  9  8 16 11 44.9970000  0  6G20G11G14G23G25G 1
 -12333294.89848  -9603387.89544  21581285.5954   21581283.2674
      4026.7254
  -9990143.17249  -7760547.51646  20243526.2044   20243522.7004
      1025.6074
   4236057.55547   3294342.20742  21672163.6344   21672160.2904
     -1436.0184
  -2050633.64147  -1525661.44942  22875933.1734   22875930.1344
      4247.7104
 -14110929.46549 -10964138.46946  19862117.9704   19862115.5134
      2113.5374
 -14741590.71149 -11472788.01246  19990462.4314   19990460.4854
      2650.5924
 04  9  8 16 11 59.9970000  0  6G20G11G14G23G25G 1
 -12393665.74247  -9650430.09043  21569796.6814   21569794.9424
      4024.7234
 -10005388.01649  -7772426.60946  20240624.8134   20240622.1464
      1016.3234
   4257624.57446   3311147.65642  21676266.7904   21676264.2394
     -1437.8014
  -2114311.15647  -1575280.25842  22863816.0794   22863812.2554
      4245.1684
 -14142497.85949 -10988737.21146  19856111.1964   19856108.0754
      2104.5604
 -14781267.62949 -11503705.09446  19982911.8604   19982910.0524
      2645.1284
 04  9  8 16 12 14.9970000  0  6G20G11G14G23G25G 1
 -12454006.83247  -9697449.11344  21558315.0634   21558312.5364
      4022.7394
 -10020494.07449  -7784197.58646  20237750.8134   20237747.5914
      1007.0714
   4279217.79746   3327973.52742  21680376.0874   21680373.8254
     -1439.5484
  -2177950.87947  -1624869.63342  22851705.2824   22851701.1494
      4242.6484
 -14173932.09449 -11013231.40646  19850129.2204   19850126.5564
      2095.6164
 -14820863.10949 -11534558.70346  19975377.0874   19975375.7124
      2639.6994
 04  9  8 16 12 29.9970000  0  6G20G11G14G23G25G 1
 -12514318.82847  -9744445.47744  21546837.9784   21546835.4744
      4020.8004
 -10035462.05549  -7795860.95346  20234901.8764   20234899.3564
       997.8654
   4300836.03946   3344818.88742  21684489.1814   21684487.0094
     -1441.2164
  -2241553.36747  -1674430.00042  22839602.3374   22839598.4274
      4240.1664
 -14205232.97349 -11037621.68746  19844172.8454   19844170.1734
      2086.7254
 -14860377.99249 -11565349.51246  19967857.6964   19967855.8724
      2634.3264
 04  9  8 16 12 44.9970000  0  6G20G11G14G23G25G 1
 -12574600.50048  -9791418.19144  21535366.5484   21535364.1184
      4018.7784
 -10050291.06649  -7807416.03946  20232080.4314   20232077.4194
       988.6014
   4322480.30145   3361684.53941  21688608.8134   21688605.6104
     -1442.9514
  -2305117.64847  -1723960.56642  22827506.9464   22827502.6464
      4237.6194
 -14236399.26649 -11061907.10246  19838241.9784   19838239.3534
      2077.7534
 -14899811.26249 -11596076.72346  19960353.2984   19960351.9384
      2628.8854
 04  9  8 16 12 59.9970000  0  6G20G11G14G23G25G 1
 -12634851.86747  -9838367.29744  21523901.6264   21523898.6694
      4016.7584
 -10064981.32849  -7818862.99246  20229285.3924   20229281.5674
       979.3514
   4344150.30545   3378570.21941  21692732.9384   21692728.6144
     -1444.6674
  -2368643.75447  -1773461.40642  22815418.3684   22815414.5674
      4235.0744
 -14267431.09049 -11086087.73846  19832336.7354   19832334.3294
      2068.7884
 -14939162.93749 -11626740.35546  19952865.4784   19952863.6464
      2623.4454
 04  9  8 16 13 14.9970000  0  6G20G11G14G23G25G 1
 -12695072.59847  -9885292.53944  21512441.1264   21512439.0834
      4014.7154
 -10079532.75449  -7830201.78146  20226516.0094   20226512.4504
       970.0954
   4365845.83645   3395475.84041  21696860.6184   21696857.6424
     -1446.3694
  -2432131.59047  -1822932.39142  22803337.4934   22803333.1654
      4232.5224
 -14298328.21149 -11110163.41446  19826457.6574   19826454.8924
      2059.8084
 -14978433.03949 -11657340.43046  19945392.7824   19945390.4934
      2618.0074
 04  9  8 16 13 29.9970000  0  6G20G11G14G23G25G 1
 -12755263.16047  -9932194.28944  21500987.8214   21500985.0244
      4012.7044
 -10093945.98849  -7841432.88745  20223773.1104   20223769.7864
       960.8824
   4387566.24245   3412400.82441  21700994.2514   21700991.3334
     -1448.0274
  -2495581.54347  -1872373.89842  22791262.0014   22791259.2904
      4229.9974
 -14329091.15249 -11134134.52346  19820603.3454   19820600.5484
      2050.8634
 -15017622.17649 -11687877.41046  19937935.1814   19937932.9624
      2612.6094
 04  9  8 16 13 44.9970000  0  6G20G11G14G23G25G 1
 -12815423.43448  -9979072.39844  21489539.7204   21489536.9034
      4010.6854
 -10108221.23849  -7852556.46545  20221056.8764   20221053.4974
       951.6834
   4409311.29745   3429345.02741  21705131.6734   21705128.8104
     -1449.6704
  -2558993.74647  -1921785.99642  22779195.4854   22779192.4274
      4227.4804
 -14359719.99249 -11158001.14146  19814774.4154   19814772.2904
      2041.9234
 -15056730.46949 -11718351.39146  19930493.4074   19930491.0564
      2607.2204
 04  9  8 16 13 59.9970000  0  6G20G11G14G23G25G 1
 -12875551.68447 -10025925.57844  21478097.8454   21478094.8064
      4008.5504
 -10122357.04749  -7863571.38745  20218366.8454   20218363.4854
       942.3874
   4431082.14145   3446309.25841  21709275.2594   21709271.6144
     -1451.3904
  -2622366.65247  -1971167.45343  22767136.0874   22767132.8964
      4224.8604
 -14390213.21549 -11181762.09446  19808972.0014   19808969.6384
      2032.8824
 -15095756.48849 -11748761.26646  19923066.5324   19923064.6464
      2601.7354
 04  9  8 16 14 14.9970000  0  6G20G11G14G23G25G 1
 -12935646.66048 -10072752.81644  21466661.6494   21466658.8684
      4006.3324
 -10136352.27349  -7874476.76646  20215703.4384   20215700.2824
       933.0154
   4452879.96945   3463294.54341  21713422.7284   21713420.2434
     -1453.1894
  -2685698.89547  -2020517.22342  22755084.6184   22755081.0874
      4222.1494
 -14420569.55949 -11205416.38346  19803195.7984   19803192.7944
      2023.7564
 -15134699.08649 -11779106.14846  19915656.2284   19915654.4504
      2596.1734
 04  9  8 16 14 29.9970000  0  6G20G11G14G23G25G 1
 -12995710.67248 -10119555.94544  21455232.0954   21455229.0284
      4004.2674
 -10150209.46149  -7885274.58246  20213066.9234   20213063.5484
       923.8134
   4474702.07845   3480298.77041  21717575.2514   21717573.0954
     -1454.8074
  -2748992.93447  -2069837.22743  22743039.0564   22743036.1924
      4219.6034
 -14450791.45749 -11228965.90246  19797444.3534   19797441.9814
      2014.7934
 -15173560.80949 -11809387.99646  19908261.0174   19908259.0244
      2590.7824
 04  9  8 16 14 44.9970000  0  6G20G11G14G23G25G 1
 -13055743.19948 -10166334.53144  21443808.4464   21443805.7204
      4002.1684
 -10163928.18749  -7895964.50846  20210456.2284   20210453.1464
       914.5824
   4496548.70345   3497322.07041  21721733.1494   21721730.3644
     -1456.4424
  -2812248.38747  -2119127.16443  22731003.6494   22730998.8134
      4217.0304
 -14480878.62149 -11252410.44546  19791718.9704   19791716.3294
      2005.8114
 -15212341.22749 -11839606.49646  19900881.3064   19900879.5604
      2585.3614
 04  9  8 16 14 59.9970000  0  6G20G11G14G23G25G 1
 -13115743.71548 -10213088.17244  21432390.5014   21432388.1694
      4000.0344
 -10177508.29749  -7906546.42646  20207872.0174   20207868.5604
       905.3414
   4518419.98845   3514364.59041  21725894.5794   21725892.6494
     -1458.0864
  -2875464.81647  -2168386.68442  22718973.3844   22718969.9704
      4214.4294
 -14510830.68449 -11275749.70746  19786019.7514   19786016.8534
      1996.8044
 -15251040.04349 -11869761.41846  19893517.0564   19893515.4384
      2579.9214
 04  9  8 16 15 14.9970000  0  6G20G11G14G23G25G 1
 -13175711.81648 -10259816.54344  21420978.8994   21420976.1574
      3997.8734
 -10190949.59449  -7917020.18046  20205313.9854   20205310.8294
       896.0864
   4540315.92645   3531426.34042  21730061.0954   21730058.9464
     -1459.7294
  -2938641.90247  -2217615.58642  22706951.4464   22706947.9424
      4211.8064
 -14540647.39549 -11298983.51646  19780345.3454   19780343.2244
      1987.7814
 -15289657.10549 -11899852.63346  19886168.5174   19886166.4664
      2574.4714
 04  9  8 16 15 29.9970000  0  6G20G11G14G23G25G 1
 -13235647.96148 -10306520.02344  21409573.1184   21409570.8534
      3995.7434
 -10204252.75849  -7927386.29346  20202783.0564   20202779.5714
       886.8784
   4562235.65245   3548506.60941  21734232.9704   21734230.3604
     -1461.3154
  -3001780.26247  -2266814.25443  22694935.3534   22694933.2674
      4209.2244
 -14570329.32849 -11322112.28146  19774697.1184   19774694.8064
      1978.7964
 -15328193.11749 -11929880.69146  19878835.4314   19878833.2904
      2569.0674
 04  9  8 16 15 44.9970000  0  6G20G11G14G23G25G 1
 -13295550.46548 -10353197.30144  21398174.5484   21398171.8294
      3993.5004
 -10217416.39549  -7937643.67646  20200277.6964   20200274.6494
       877.5764
   4584180.60944   3565606.53941  21738409.2434   21738406.3964
     -1462.9974
  -3064878.31647  -2315981.52742  22682928.3214   22682925.2594
      4206.5374
 -14599874.86349 -11345134.77346  19769074.8534   19769072.2714
      1969.7024
 -15366646.68049 -11959844.49246  19871517.8604   19871515.8994
      2563.5714
 04  9  8 16 15 59.9970000  0  6G20G11G14G23G25G 1
 -13355419.23448 -10399848.28144  21386781.6034   21386779.1924
      3991.2514
 -10230440.67649  -7947792.47345  20197799.4384   20197796.3804
       868.2854
   4606150.60543   3582725.97341  21742589.8924   21742587.1034
     -1464.6664
  -3127935.94547  -2365117.34443  22670930.2434   22670925.9934
      4203.8424
 -14629284.04349 -11368051.01646  19763478.2674   19763475.7944
      1960.6124
 -15405017.79749 -11989744.05546  19864216.4624   19864214.0954
      2558.0744
 04  9  8 16 16 14.9970000  0  6G20G11G14G23G25G 1
 -13415256.30148 -10446474.56644  21375394.9704   21375392.5094
      3989.1384
 -10243327.85549  -7957834.44146  20195347.0094   20195344.0284
       859.1454
   4628143.17644   3599863.10541  21746774.6574   21746772.0484
     -1466.1714
  -3190955.40247  -2414223.38343  22658937.9384   22658934.5324
      4201.2974
 -14658559.03549 -11390862.68446  19757907.4314   19757905.1104
      1951.6664
 -15443308.73449 -12019581.13746  19856929.5714   19856927.3924
      2552.7294
 04  9  8 16 16 29.9960000  0  6G20G11G14G23G25G 1
 -13475056.11748 -10493071.78944  21364015.1844   21364012.9694
      3986.6544
 -10256075.72349  -7967767.84446  20192921.0044   20192917.8914
       849.8584
   4650158.18044   3617017.68841  21750964.6994   21750960.8564
     -1467.6674
  -3253930.98448  -2463295.25443  22646953.9734   22646950.3914
      4198.3724
 -14687696.47749 -11413567.17246  19752363.0044   19752360.2814
      1942.4964
 -15481515.51649 -12049352.64846  19849659.0594   19849657.4454
      2547.1194
 04  9  8 16 16 44.9960000  0  6G20G11G14G23G25G 1
 -13534826.72348 -10539646.28544  21352641.0514   21352639.0354
      3984.7074
 -10268686.25849  -7977594.24646  20190521.2704   20190518.0314
       840.7024
   4672198.11744   3634191.62541  21755158.3094   21755154.7664
     -1469.3294
  -3316871.27747  -2512339.62143  22634976.2314   22634972.2584
      4196.0204
 -14716700.45749 -11436167.67246  19746843.5434   19746841.0904
      1933.5994
 -15519643.53549 -12079062.78146  19842403.7074   19842401.5904
      2541.8684
 04  9  8 16 16 59.9960000  0  6G20G11G14G23G25G 1
 -13594564.52748 -10586195.22744  21341274.0354   21341271.7664
      3982.5204
 -10281159.19149  -7987313.41046  20188147.7074   20188144.8054
       831.5294
   4694260.73044   3651383.19941  21759357.0904   21759353.7194
     -1470.8414
  -3379772.57047  -2561353.59443  22623007.1214   22623003.3444
      4193.4204
 -14745569.60249 -11458663.09846  19741350.0984   19741347.2624
      1924.6104
 -15557690.85949 -12108710.04346  19835163.3404   19835161.5394
      2536.4884
 04  9  8 16 17 14.9960000  0  6G20G11G14G23G25G 1
 -13654268.14548 -10632717.51244  21329912.4654   21329910.1884
      3980.2414
 -10293493.55149  -7996924.60946  20185800.7624   20185797.9844
       822.2914
   4716347.13745   3668593.41841  21763559.1134   21763556.6024
     -1472.4274
  -3442633.67248  -2610336.23843  22611044.3564   22611040.3054
      4190.7404
 -14774302.62949 -11481052.46546  19735882.2544   19735879.7314
      1915.5354
 -15595656.33249 -12138293.51646  19827938.9344   19827936.9884
      2531.0324
 04  9  8 16 17 29.9960000  0  6G20G11G14G23G25G 1
 -13713937.24248 -10679212.89544  21318558.0904   21318555.6374
      3977.9404
 -10305689.20749  -8006427.73046  20183479.6134   20183477.0234
       813.0444
   4738457.17245   3685821.89141  21767767.5274   21767763.5084
     -1474.0024
  -3505454.31647  -2659287.36342  22599090.1374   22599086.5784
      4188.0434
 -14802899.39149 -11503335.66846  19730440.4734   19730438.0354
      1906.4514
 -15633539.93049 -12167813.20346  19820729.4344   19820727.9184
      2525.5734
 04  9  8 16 17 44.9960000  0  6G20G11G14G23G25G 1
 -13773573.30148 -10725682.54344  21307209.0824   21307206.9884
      3975.7374
 -10317747.94549  -8015824.15246  20181185.4024   20181182.0514
       803.9164
   4760589.14144   3703067.47341  21771978.4654   21771974.5274
     -1475.4654
  -3568236.05548  -2708208.16843  22587143.1374   22587139.3094
      4185.4494
 -14831361.45749 -11525513.88346  19725024.2384   19725022.2894
      1897.4714
 -15671343.23449 -12197270.30946  19813535.7234   19813533.9454
      2520.2204
 04  9  8 16 17 59.9960000  0  6G20G11G14G23G25G 1
 -13833174.00848 -10772124.64544  21295868.2384   21295865.2814
      3973.3804
 -10329667.68449  -8025112.27046  20178916.9964   20178913.9494
       794.6494
   4782744.97344   3720331.58241  21776194.1064   21776190.0164
     -1477.0554
  -3630976.87148  -2757097.10943  22575203.9814   22575199.7344
      4182.7214
 -14859686.77749 -11547585.56246  19719634.0514   19719631.9064
      1888.3554
 -15709064.25849 -12226663.30946  19806357.8954   19806355.9184
      2514.7354
 04  9  8 16 18 14.9960000  0  6G20G11G14G23G25G 1
 -13892741.73848 -10818541.03144  21284532.1684   21284529.7894
      3971.1824
 -10341450.96949  -8034294.05545  20176674.6684   20176671.9924
       785.5524
   4804921.88744   3737612.32041  21780414.7934   21780410.8284
     -1478.4614
  -3693678.96947  -2805955.86742  22563272.3794   22563268.2774
      4180.1404
 -14887877.64849 -11569552.48046  19714269.6914   19714267.2584
      1879.3914
 -15746705.50449 -12255994.13346  19799194.9494   19799193.3404
      2509.4164
 04  9  8 16 18 29.9960000  0  6G20G11G14G23G25G 1
 -13952277.44948 -10864932.50044  21273203.6374   21273200.9414
      3969.0474
 -10353099.10249  -8043370.53145  20174458.0124   20174455.1804
       776.5424
   4827118.57444   3754908.47741  21784639.6524   21784635.3564
     -1479.7794
  -3756343.58647  -2854785.38743  22551346.7154   22551344.0044
      4177.6414
 -14915935.34049 -11591415.60946  19708930.4414   19708928.2314
      1870.5134
 -15784268.17649 -12285263.73446  19792046.8324   19792045.4534
      2504.1784
 04  9  8 16 18 44.9960000  0  6G20G11G14G23G25G 1
 -14011778.00848 -10911296.55144  21261880.6764   21261878.2274
      3966.7044
 -10364609.16849  -8052339.41445  20172267.7854   20172265.1094
       767.3384
   4849338.07844   3772222.39141  21788867.8164   21788862.9224
     -1481.3004
  -3818967.50448  -2903583.24643  22539430.8634   22539425.9774
      4174.9284
 -14943856.80549 -11613172.59046  19703616.9414   19703614.7584
      1861.4314
 -15821749.25449 -12314469.76246  19784914.4344   19784912.7704
      2498.7394
 04  9  8 16 18 59.9960000  0  6G20G11G14G23G25G 1
 -14071243.51248 -10957633.30944  21250565.1064   21250562.2314
      3964.3674
 -10375981.52049  -8061200.99646  20170103.5354   20170100.8594
       758.1574
   4871579.85543   3789553.66441  21793100.3794   21793095.9104
     -1482.7854
  -3881551.13347  -2952349.70343  22527520.6604   22527517.1564
      4172.2424
 -14971642.32449 -11634823.63346  19698329.6454   19698327.7074
      1852.3684
 -15859149.15249 -12343612.53546  19777797.5354   19777795.7114
      2493.3274
 04  9  8 16 19 14.9960000  0  6G20G11G14G23G25G 1
 -14130672.46148 -11003941.55544  21239256.0904   21239253.0984
      3961.9304
 -10387214.94149  -8069954.31646  20167965.9654   20167963.2384
       748.8954
                                  21797334.9344   21797333.2464
     -1484.2704
  -3944093.06648  -3001083.64542  22515620.1914   22515615.9304
      4169.4624
 -14999290.70349 -11656367.82846  19693068.4024   19693066.2664
      1843.2254
 -15896466.65249 -12372691.10246  19770696.2774   19770694.4344
      2487.8334
 04  9  8 16 19 29.9960000  0  6G20G11G14G23G25G 1
 -14190066.02048 -11050222.24644  21227953.2384   21227951.2194
      3959.5714
 -10398310.83249  -8078600.48046  20165854.6684   20165852.1134
       739.7264
   4916131.90213                  21801577.824
     -1485.755
  -4006594.53147  -3049786.10242  22503725.7384   22503722.9534
      4166.7644
 -15026803.28549 -11677806.19946  19687833.3014   19687830.9144
      1834.1724
 -15933702.99649 -12401706.42646  19763610.6454   19763608.5864
      2482.4234
 04  9  8 16 19 44.9960000  0  6G20G11G14G23G25G 1
 -14249424.93048 -11096475.93744  21216657.8954   21216655.6644
      3957.2614
 -10409270.21549  -8087140.26246  20163769.0124   20163766.4064
       730.6264
                                  21805821.613
     -1487.240
  -4069056.38348  -3098457.62542  22491840.0044   22491836.4654
      4164.1234
 -15054180.92649 -11699139.41446  19682623.2154   19682620.8564
      1825.1764
 -15970859.22349 -12430659.31646  19756540.0124   19756538.0744
      2477.0824
 04  9  8 16 19 59.9960000  0  5G20G11G23G25G 1
 -14308749.25048 -11142702.66044  21205369.3634   21205366.2934
      3954.9554
 -10420093.32849  -8095573.85946  20161709.5904   20161706.7854
       721.5414
  -4131478.75448  -3147098.39842  22479961.3634   22479957.3954
      4161.4914
 -15081423.69949 -11720367.54746  19677438.9654   19677436.5234
      1816.1854
 -16007935.55549 -12459549.94546  19749484.4884   19749482.7704
      2471.7554
 04  9  8 16 20 14.9960000  0  5G20G11G23G25G 1
 -14368039.44148 -11188902.81244  21194086.3714   21194084.0594
      3952.6794
 -10430781.11349  -8103902.00846  20159675.6454   20159672.5514
       712.5194
  -4193862.31248  -3195708.93042  22468090.0984   22468086.3364
      4158.9044
 -15108532.29749 -11741491.13346  19672280.4024   19672278.0554
      1807.2404
 -16044932.68449 -12488378.87546  19742444.1844   19742442.5354
      2466.4754
 04  9  8 16 20 29.9960000  0  5G20G11G23G25G 1
 -14427292.89848 -11235074.32844  21182810.6064   21182808.1134
      3950.2304
 -10441331.05549  -8112122.76245  20157667.7624   20157664.8094
       703.3294
  -4256204.55947  -3244287.33242  22456226.5664   22456222.6994
      4156.1504
 -15135504.21549 -11762508.21146  19667147.9184   19667145.1214
      1798.1284
 -16081848.27049 -12517144.26646  19735419.8954   19735417.7704
      2461.0394
 04  9  8 16 20 44.9960000  0  5G20G11G23G25G 1
 -14486509.64548 -11281217.23444  21171541.9964   21171539.3484
      3947.7834
 -10451743.52749  -8120236.37945  20155686.8954   20155683.4814
       694.1654
  -4318505.65247  -3292833.60242  22444370.9884   22444367.1604
      4153.4064
 -15162339.80549 -11783419.05146  19662041.1844   19662038.9924
      1789.0394
 -16118682.57849 -12545846.31246  19728409.9264   19728408.2584
      2455.6214
 04  9  8 16 20 59.9960000  0  5G20G11G23G25G 1
 -14545689.47749 -11327331.38344  21160280.3564   21160277.7624
      3945.3224
 -10462018.45749  -8128242.83645  20153731.4964   20153728.2344
       684.9954
  -4380765.47348  -3341347.72742  22432523.9264   22432519.6914
      4150.6554
 -15189039.01649 -11804223.63346  19656960.6524   19656958.2814
      1779.9474
 -16155435.52049 -12574484.95746  19721416.2384   19721413.9924
      2450.1964
 04  9  8 16 21 14.9960000  0  5G20G11G23G25G 1
 -14604832.03148 -11373416.46944  21149025.8244   21149023.1914
      3942.8374
 -10472156.03149  -8136142.24646  20151802.7544   20151799.7274
       675.8384
  -4442983.84048  -3389829.55942  22420683.6214   22420679.5274
      4147.8914
 -15215601.59849 -11824921.73046  19651905.8324   19651903.5204
      1770.8394
 -16192107.05949 -12603060.18046  19714437.7234   19714436.0904
      2444.7694
 04  9  8 16 21 29.9960000  0  5G20G11G23G25G 1
 -14663940.03948 -11419474.64144  21137778.4104   21137775.4494
      3940.5344
 -10482159.12949  -8143936.88746  20149898.8954   20149896.3134
       666.8734
  -4505163.48447  -3438281.21942  22408851.6604   22408847.6294
      4145.3104
 -15242030.41049 -11845515.62146  19646876.6604   19646874.3594
      1761.9214
 -16228700.10549 -12631574.23046  19707474.4184   19707472.2704
      2439.5364
 04  9  8 16 21 44.9960000  0  5G20G11G23G25G 1
 -14723010.99648 -11465503.94544  21126537.6684   21126535.0664
      3938.0644
 -10492025.40249  -8151624.89845  20148021.9574   20148018.6174
       657.7524
  -4567302.06648  -3486700.87143  22397027.1524   22397022.9104
      4142.5724
 -15268323.23449 -11866003.53146  19641873.6064   19641871.2584
      1752.8554
 -16265212.43449 -12660025.39546  19700526.2464   19700524.4964
      2434.1554
 04  9  8 16 21 59.9960000  0  5G20G11G23G25G 1
 -14782044.80948 -11511504.31244  21115303.8324   21115301.5594
      3935.5884
 -10501755.14549  -8159206.52745  20146169.5354   20146166.5474
       648.6494
  -4629399.56647  -3535088.52043  22385209.7544   22385206.5164
      4139.8334
 -15294480.04349 -11886385.45346  19636895.6914   19636893.5274
      1743.7874
 -16301644.17249 -12688413.75446  19693593.7314   19693591.7894
      2428.7834
 04  9  8 16 22 14.9960000  0  5G20G11G23G25G 1
 -14841040.20748 -11557474.74244  21104077.3874   21104074.7314
      3933.0274
 -10511347.37549  -8166681.00045  20144344.4734   20144341.1994
       639.4824
  -4691454.89547  -3583443.34442  22373401.2154   22373397.2934
      4137.0224
 -15320499.74249 -11906660.54346  19631944.2704   19631941.8324
      1734.6474
 -16337994.25449 -12716738.48046  19686676.3404   19686674.4494
      2423.3394
 04  9  8 16 22 29.9960000  0  5G20G11G23G25G 1
 -14900000.28948 -11603417.65644  21092857.7544   21092854.9574
      3930.6724
 -10520805.48449  -8174050.96145  20142544.8874   20142541.9574
       630.5414
  -4753471.26247  -3631767.71143  22361600.2854   22361597.0984
      4134.4244
 -15346385.58249 -11926831.32446  19627018.3714   19627016.0824
      1725.7234
 -16374265.94549 -12745002.13746  19679774.1844   19679771.6174
      2418.1134
 04  9  8 16 22 44.9960000  0  5G20G11G23G25G 1
 -14958923.24248 -11649331.64844  21081644.8564   21081642.1684
      3928.1974
 -10530128.10249  -8181315.34445  20140770.6064   20140767.6994
       621.5084
  -4815447.09848  -3680060.59042  22349806.5664   22349802.0944
      4131.7224
 -15372136.14549 -11946896.69546  19622118.2854   19622115.9844
      1716.7044
 -16410457.80549 -12773203.57046  19672886.9104   19672884.6024
      2412.7914
 04  9  8 16 22 59.9960000  0  5G20G11G23G25G 1
 -15017806.71949 -11695214.85244  21070439.3324   21070437.5434
      3925.5654
 -10539312.98449  -8188472.40245  20139022.5204   20139019.9964
       612.3264
  -4877379.98847  -3728319.96142  22338020.7154   22338016.3364
      4128.8594
 -15397749.22349 -11966854.93446  19617244.2234   19617242.1644
      1707.5394
 -16446567.63749 -12801341.09046  19666015.3954   19666013.4654
      2407.3224
 04  9  8 16 23 14.9960000  0  5G20G11G23G25G 1
 -15076652.17649 -11741068.44544  21059242.0984   21059239.4264
      3923.0304
 -10548361.80149  -8195523.43045  20137300.8014   20137298.0274
       603.2544
  -4939271.60947  -3776547.15243  22326243.1524   22326239.4574
      4126.1084
 -15423226.36349 -11986707.24646  19612395.7384   19612394.0314
      1698.4764
 -16482597.10949 -12829416.00846  19659159.5904   19659157.4304
      2401.9654
 04  9  8 16 23 29.9960000  0  5G20G11G23G25G 1
 -15135460.27748 -11786892.93744  21048050.7704   21048048.3204
      3920.5404
 -10557275.66849  -8202469.30145  20135604.5664   20135602.0004
       594.2584
  -5001122.68448  -3824742.77342  22314473.3874   22314470.1994
      4123.4054
 -15448568.33649 -12006454.24646  19607573.8014   19607571.3714
      1689.4654
 -16518547.17649 -12857429.04346  19652317.9814   19652316.7504
      2396.6714
 04  9  8 16 23 44.9960000  0  5G20G11G23G25G 1
 -15194229.35249 -11832687.00444  21036868.1684   21036865.0084
      3917.9384
 -10566053.22349  -8209308.97345  20133933.7544   20133931.6994
       585.1704
  -5062931.83647  -3872905.76242  22302710.9414   22302708.2154
      4120.6104
 -15473773.81649 -12026094.87546  19602777.3954   19602774.7624
      1680.3654
 -16554416.31249 -12885379.01246  19645492.7854   19645490.9614
      2391.2764
 04  9  8 16 23 59.9960000  0  5G20G11G23G25G 1
 -15252959.94548 -11878451.10244  21025690.9344   21025688.4614
      3915.3734
 -10574695.24649  -8216043.03146  20132289.6134   20132287.2704
       576.1354
  -5124699.53547  -3921036.38742  22290956.7704   22290954.3134
      4117.8474
 -15498843.44149 -12045629.64546  19598006.3564   19598003.9884
      1671.3084
 -16590205.29749 -12913266.51646  19638682.2704   19638680.4144
      2385.9324
 04  9  8 16 24 14.9960000  0  5G20G11G23G25G 1
 -15311652.07848 -11924185.22744  21014522.6294   21014520.5514
      3912.8094
 -10583202.17249  -8222671.80546  20130670.7624   20130668.1914
       567.1284
  -5186426.05947  -3969134.98042  22279211.2544   22279207.1684
      4115.1024
 -15523777.67249 -12065058.91046  19593262.1844   19593259.1764
      1662.2824
 -16625914.48849 -12941091.85946  19631886.8324   19631884.7664
      2380.6134
 04  9  8 16 24 29.9960000  0  5G20G11G23G25G 1
 -15370306.62948 -11969890.05944  21003361.0044   21003358.7854
      3910.3034
 -10591575.10249  -8229196.16045  20129077.7384   20129074.9494
       558.1954
  -5248112.30947  -4017202.18042  22267472.8954   22267468.9494
      4112.4174
 -15548577.27349 -12084383.27746  19588542.6294   19588540.4814
      1653.3074
 -16661544.89549 -12968855.80946  19625106.5274   19625104.3714
      2375.3604
 04  9  8 16 24 44.9960000  0  5G20G11G23G25G 1
 -15428922.73848 -12015564.93444  20992206.6844   20992204.4414
      3907.7414
 -10599813.44949  -8235615.66445  20127509.5434   20127507.4344
       549.2234
  -5309757.71947  -4065237.54743  22255742.2234   22255738.4964
      4109.6944
 -15573241.78149 -12103602.37946  19583849.3484   19583846.8874
      1644.3014
 -16697096.07049 -12996558.00846  19618341.5204   19618339.5474
      2370.0784
 04  9  8 16 24 59.9960000  0  5G20G11G23G25G 1
 -15487499.61748 -12061209.25844  20981059.4024   20981057.5394
      3905.1254
 -10607916.66449  -8241929.86346  20125967.7074   20125965.8874
       540.2144
  -5371361.40248  -4113240.42643  22244020.4734   22244015.5084
      4106.9124
 -15597770.59049 -12122715.73046  19579181.4344   19579179.2624
      1635.2544
 -16732567.35949 -13024197.96546  19611591.4884   19611589.9224
      2364.7534
 04  9  8 16 25 14.9960000  0  5G20G11G23G25G 1
 -15546035.71548 -12106821.78944  20969920.7234   20969918.1994
      3902.4074
 -10615883.57049  -8248137.85945  20124451.7314   20124449.3014
       531.1274
  -5432922.11748  -4161209.79343  22232304.9104   22232301.3134
      4104.0484
 -15622162.12149 -12141722.11746  19574539.7624   19574537.2894
      1626.1024
 -16767957.36349 -13051774.59446  19604856.9964   19604855.1724
      2359.3344
 04  9  8 16 25 29.9960000  0  5G20G11G23G25G 1
 -15604532.42248 -12152403.64144  20958789.6604   20958786.9574
      3899.7804
 -10623715.92649  -8254241.00445  20122961.4024   20122958.6644
       522.1574
  -5494441.31248  -4209146.81643  22220597.8714   22220594.4384
      4101.2804
 -15646418.08249 -12160622.84846  19569924.0204   19569921.5274
      1617.0644
 -16803267.80949 -13079289.21546  19598137.7624   19598135.7344
      2354.0304
 04  9  8 16 25 44.9960000  0  5G20G11G23G25G 1
 -15662989.59449 -12197954.66044  20947664.9024   20947662.7704
      3897.1454
 -10631413.81249  -8260239.36745  20121496.5354   20121494.0514
       513.1924
  -5555918.89848  -4257051.40643  22208899.2624   22208895.4694
      4098.5064
 -15670538.53949 -12179418.00446  19565333.9414   19565331.7734
      1608.0304
 -16838498.73449 -13106741.88746  19591433.9734   19591431.5204
      2348.7284
 04  9  8 16 25 59.9960000  0  5G20G11G23G25G 1
 -15721406.66849 -12243474.45344  20936548.6764   20936546.4104
      3894.4724
 -10638977.05149  -8266132.80945  20120056.8954   20120054.3874
       504.2164
  -5617354.59848  -4304923.37943  22197209.0044   22197204.3364
      4095.7134
 -15694523.19949 -12198107.34847  19560769.8484   19560767.5354
      1598.9774
 -16873649.89549 -13134132.39146  19584744.0744   19584742.4344
      2343.4114
 04  9  8 16 26 14.9960000  0  5G20G11G23G25G 1
 -15779784.79749 -12288963.89544  20925439.7624   20925437.1334
      3891.8754
 -10646407.14149  -8271922.50445  20118643.9264   20118640.9694
       495.3394
  -5678749.64848  -4352763.68443  22185525.0744   22185521.5594
      4093.0034
 -15718373.56649 -12216692.05946  19556231.5434   19556229.0704
      1590.0244
 -16908722.69549 -13161461.84446  19578070.5824   19578068.3284
      2338.1874
 04  9  8 16 26 29.9960000  0  5G20G11G23G25G 1
 -15838121.64849 -12334421.17644  20914338.6844   20914335.9264
      3889.1234
 -10653702.06649  -8277606.86345  20117255.6524   20117252.9064
       486.3284
  -5740101.86348  -4400570.60543  22173850.2384   22173846.7894
      4090.1484
 -15742087.45349 -12235170.39846  19551718.8564   19551716.7424
      1580.9264
 -16943715.02049 -13188728.57846  19571411.2854   19571409.7464
      2332.8224
 04  9  8 16 26 44.9960000  0  5G20G11G23G25G 1
 -15896419.04348 -12379847.71544  20903245.0664   20903242.2234
      3886.4934
 -10660863.75049  -8283187.41045  20115892.3794   20115889.6214
       477.4464
  -5801413.16848  -4448345.62943  22162182.6914   22162179.4104
      4087.4204
 -15765666.81649 -12253543.93047  19547231.5434   19547229.5474
      1571.9584
 -16978628.88349 -13215934.17646  19564767.9574   19564765.7734
      2327.5914
 04  9  8 16 26 59.9960000  0  5G20G11G23G25G 1
 -15954675.75048 -12425242.54744  20892159.1454   20892156.4494
      3883.7804
 -10667891.34849  -8288663.47345  20114554.6454   20114552.2114
       468.5074
  -5862682.41448  -4496087.85243  22150524.4344   22150520.2584
      4084.6164
 -15789110.64149 -12271811.84446  19542770.5514   19542768.5204
      1562.9224
 -17013463.30549 -13243077.87546  19558138.6844   19558137.0164
      2322.2954
 04  9  8 16 27 14.9960000  0  5G20G11G23G25G 1
 -16012891.36748 -12470605.36344  20881081.0984   20881078.3634
      3881.0414
 -10674785.00849  -8294035.17245  20113243.4414   20113240.7424
       459.5774
  -5923909.44948  -4543797.23043  22138872.8954   22138868.9494
      4081.8024
 -15812418.78549 -12289974.02746  19538335.0594   19538332.7734
      1553.8764
 -17048218.21149 -13270159.61346  19551525.2774   19551523.4264
      2316.9944
 04  9  8 16 27 29.9960000  0  5G20G11G23G25G 1
 -16071065.47349 -12515935.81644  20870010.9574   20870008.2274
      3878.2744
 -10681544.41849  -8299302.24645  20111957.5594   20111954.5664
       450.6274
  -5985093.80148  -4591473.34443  22127229.5354   22127226.2384
      4078.9574
 -15835591.10949 -12308030.39846  19533926.0744   19533923.1764
      1544.8224
 -17082893.37549 -13297179.21946  19544926.8094   19544924.8914
      2311.6784
 04  9  8 16 27 44.9960000  0  5G20G11G23G25G 1
 -16129199.26249 -12561234.87144  20858948.6294   20858945.9614
      3875.5864
 -10688171.09449  -8304465.91045  20110695.9814   20110693.0594
       441.7784
  -6046237.00848  -4639117.39543  22115595.0354   22115591.1914
      4076.2144
 -15858628.83249 -12325981.85946  19529541.5744   19529539.5434
      1535.8484
 -17117490.23449 -13324137.80546  19538343.2074   19538341.6024
      2306.4574
 04  9  8 16 27 59.9960000  0  5G20G11G23G25G 1
 -16187291.81249 -12606501.79344  20847894.2774   20847891.3094
      3872.8374
 -10694664.49249  -8309525.70345  20109460.5204   20109457.6604
       432.8934
  -6107338.15248  -4686728.64843  22103968.2464   22103964.3984
      4073.4104
 -15881531.29749 -12343827.93047  19525183.3014   19525180.9734
      1526.8314
 -17152008.02049 -13351034.78146  19531774.5124   19531772.5234
      2301.1864
 04  9  8 16 28 14.9960000  0  5G20G11G23G25G 1
 -16245342.91849 -12651736.41044  20836847.0824   20836844.2704
      3870.0744
 -10701024.85249  -8314481.83645  20108250.0984   20108246.8484
       424.0244
  -6168397.26248  -4734307.14843  22092348.3484   22092344.7424
      4070.6074
 -15904298.58649 -12361568.66847  19520850.6684   19520848.7774
      1517.8194
 -17186446.88349 -13377870.25446  19525221.0434   19525219.2314
      2295.9244
 04  9  8 16 28 29.9960000  0  5G20G11G23G25G 1
 -16303351.01649 -12696937.50444  20825809.1294   20825806.1254
      3867.2074
 -10707250.87949  -8319333.29745  20107065.4264   20107062.3674
       415.0684
  -6229412.89148  -4781851.77743  22080738.1374   22080732.5084
      4067.7094
 -15926929.41049 -12379203.07446  19516544.5354   19516542.1094
      1508.7224
 -17220805.50849 -13404643.19946  19518682.8634   19518681.0664
      2290.5754
 04  9  8 16 28 44.9960000  0  5G20G11G23G25G 1
 -16361318.14148 -12742106.69944  20814777.5124   20814775.4964
      3864.4754
 -10713344.86349  -8324081.87145  20105905.8954   20105902.7974
       406.2664
  -6290387.17248  -4829364.17243  22069134.3714   22069129.5664
      4064.9524
 -15949426.02349 -12396732.89146  19512263.4654   19512261.3914
      1499.7744
 -17255086.11749 -13431355.36346  19512159.4654   19512157.7704
      2285.3744
 04  9  8 16 28 59.9960000  0  5G20G11G23G25G 1
 -16419244.91849 -12787244.43744  20803754.6684   20803751.7114
      3861.7854
 -10719307.96549  -8328728.46145  20104770.9344   20104768.2194
       397.5404
  -6351320.90248  -4876844.97343  22057539.2074   22057534.8794
      4062.2494
 -15971789.22349 -12414158.77746  19508008.1914   19508005.7034
      1490.8804
 -17289289.68449 -13458007.48446  19505650.5664   19505648.8524
      2280.2384
 04  9  8 16 29 14.9960000  0  5G20G11G23G25G 1
 -16477129.85249 -12832349.56644  20792739.3484   20792736.7504
      3858.9964
 -10725138.73049  -8333271.92245  20103661.6764   20103658.6804
       388.7184
  -6412212.57448  -4924293.01643  22045951.7704   22045946.9814
      4059.4454
 -15994017.55149 -12431479.53946  19503778.0124   19503775.6334
      1481.8894
 -17323414.79749 -13484598.47346  19499156.9884   19499155.0004
      2275.0084
 04  9  8 16 29 29.9960000  0  5G20G11G23G25G 1
 -16534972.54348 -12877421.78544  20781731.7704   20781729.6724
      3856.1794
 -10730837.25449  -8337712.34045  20102576.9964   20102574.0744
       379.9024
  -6473062.18748  -4971708.26643  22034372.9184   22034368.5944
      4056.6414
 -16016111.27049 -12448695.41446  19499573.9414   19499571.2074
      1472.9154
 -17357461.48449 -13511128.35246  19492677.8484   19492676.1804
      2269.7794
 04  9  8 16 29 44.9960000  0  5G20G11G23G25G 1
 -16592773.21148 -12922461.26244  20770733.0204   20770730.4534
      3853.3784
 -10736403.97349  -8342050.05145  20101517.8404   20101514.9574
       371.1154
  -6533870.01248  -5019090.96543  22022801.5274   22022797.7154
      4053.8554
 -16038070.60949 -12465806.58246  19495394.5044   19495393.0314
      1463.9564
 -17391430.14549 -13537597.43446  19486213.9654   19486211.6844
      2264.5774
 04  9  8 16 29 59.9960000  0  5G20G11G23G25G 1
 -16650530.33649 -12967466.79344  20759742.3094   20759739.7664
      3850.4754
 -10741837.74249  -8346284.17245  20100483.8954   20100480.8634
       362.2514
  -6594634.66048  -5066440.01243  22011238.4964   22011234.4104
      4050.9774
 -16059894.28949 -12482812.05946  19491242.1684   19491239.8364
      1454.9124
 -17425319.53149 -13564004.74246  19479765.1764   19479763.1804
      2259.2924
 04  9  8 16 30 14.9960000  0  5G20G11G23G25G 1
 -16708244.38348 -13012438.78944  20748759.6134   20748757.1524
      3847.6034
 -10747139.46949  -8350415.39845  20099474.9494   20099472.1064
       353.4484
  -6655356.77748  -5113755.93743  21999683.3404   21999678.9694
      4048.1414
 -16081582.94949 -12499712.31246  19487115.1454   19487112.8164
      1445.9114
 -17459130.34049 -13590350.82046  19473330.8014   19473329.6214
      2254.0544
 04  9  8 16 30 29.9960000  0  5G20G11G23G25G 1
 -16765915.69949 -13057377.45744  20737785.4024   20737783.0354
      3844.7544
 -10752309.86749  -8354444.28145  20098491.0904   20098488.3794
       344.6934
  -6716036.71148  -5161038.99643  21988136.1524   21988131.6374
      4045.3294
 -16103137.15249 -12516507.77746  19483013.3404   19483011.1524
      1436.9474
 -17492863.12949 -13616636.11346  19466912.0984   19466910.3834
      2248.8534
 04  9  8 16 30 44.9960000  0  5G20G11G23G25G 1
 -16823542.89549 -13102281.76244  20726819.3794   20726816.6604
      3841.8134
 -10757347.90249  -8358370.03945  20097531.8714   20097529.5354
       335.8694
  -6776673.36748  -5208288.32843  21976597.0664   21976592.8204
      4042.4444
 -16124555.87949 -12533197.70346  19478937.5824   19478934.9224
      1427.9154
 -17526516.81649 -13642859.75846  19460507.9574   19460506.5084
      2243.5794
 04  9  8 16 30 59.9960000  0  5G20G11G23G25G 1
 -16881126.55549 -13147152.14144  20715861.7774   20715858.8594
      3838.9114
 -10762254.45349  -8362193.34045  20096598.6214   20096596.0704
       327.1034
  -6837267.43048  -5255504.44943  21965066.6684   21965062.3794
      4039.6044
 -16145839.93449 -12549782.68046  19474887.4574   19474884.9144
      1418.9374
 -17560092.24649 -13669022.41046  19454118.6844   19454116.6174
      2238.3624
 04  9  8 16 31 14.9960000  0  5G20G11G23G25G 1
 -16938666.25449 -13191988.26244  20704911.8714   20704909.3834
      3835.9804
 -10767029.31649  -8365914.02345  20095689.9264   20095687.5234
       318.3244
  -6897818.57447  -5302687.17642  21953543.2854   21953539.3284
      4036.7434
 -16166989.18049 -12566262.59846  19470862.4344   19470860.4534
      1409.9504
 -17593589.20349 -13695123.94146  19447744.3874   19447742.6134
      2233.1304
 04  9  8 16 31 29.9960000  0  5G20G11G23G25G 1
 -16996161.62549 -13236789.83644  20693970.6914   20693968.4344
      3833.0254
 -10771672.71149  -8369532.26645  20094805.9494   20094804.1804
       309.5604
  -6958326.53148  -5349836.23042  21942029.5204   21942024.6174
      4033.8644
 -16188003.33649 -12582637.25046  19466863.7314   19466861.7974
      1400.9444
 -17627007.57849 -13721164.21946  19441385.3484   19441383.1094
      2227.8924
 04  9  8 16 31 44.9960000  0  5G20G11G23G25G 1
 -17053612.87549 -13281557.04344  20683038.5514   20683035.8984
      3830.0834
 -10776185.22349  -8373048.52746  20093947.9884   20093945.2584
       300.8344
  -7018791.81648  -5396952.02743  21930523.9574   21930519.2234
      4031.0194
 -16208882.95749 -12598907.10546  19462890.5744   19462888.1134
      1391.9754
 -17660347.93749 -13747143.71546  19435040.8484   19435039.0004
      2222.6914
 04  9  8 16 31 59.9960000  0  5G20G11G23G25G 1
 -17111019.39149 -13326289.38744  20672114.3094   20672112.1334
      3827.1014
 -10780566.37949  -8376462.41845  20093114.1134   20093111.4924
       292.0774
  -7079213.87947  -5444034.14143  21919025.2384   21919022.0514
      4028.1374
 -16229627.80149 -12615071.90646  19458943.1684   19458940.7034
      1382.9904
 -17693609.88349 -13773062.11346  19428710.9884   19428709.4224
      2217.4634
 04  9  8 16 32 14.9960000  0  5G20G11G23G25G 1
 -17168380.30149 -13370986.19545  20661198.4104   20661196.5744
      3824.0614
 -10784815.74249  -8379773.61745  20092305.0824   20092302.5664
       283.2914
  -7139591.96147  -5491081.98442  21907536.0904   21907531.7154
      4025.2054
 -16250237.10249 -12631131.10546  19455021.1374   19455018.8014
      1373.9534
 -17726792.78149 -13798918.89846  19422396.5514   19422394.5784
      2212.1934
 04  9  8 16 32 29.9960000  0  5G20G11G23G25G 1
 -17225697.25048 -13415648.74645  20650291.6994   20650288.8914
      3821.1304
 -10788935.10249  -8382983.51645  20091521.3164   20091518.7734
       274.6244
  -7199927.84047  -5538096.94142  21896054.7544   21896049.3094
      4022.3924
 -16270712.84449 -12647086.21146  19451124.6064   19451122.2544
      1365.0494
 -17759898.48849 -13824715.55946  19416096.1844   19416094.9884
      2207.0474
 04  9  8 16 32 44.9960000  0  5G20G11G23G25G 1
 -17282968.22348 -13460275.46944  20639393.4104   20639391.1804
      3818.0654
 -10792923.12148  -8386091.07845  20090762.9264   20090759.5984
       265.8684
  -7260219.64847  -5585077.52342  21884580.7384   21884576.1644
      4019.4544
 -16291053.24249 -12662935.87946  19447254.0274   19447251.7384
      1356.0274
 -17792925.28148 -13850450.71146  19409811.7854   19409810.0474
      2201.7864
 04  9  8 16 32 59.9960000  0  5G20G11G23G25G 1
 -17340192.47749 -13504865.79744  20628504.3484   20628501.7074
      3814.9504
 -10796779.35548  -8389095.93745  20090029.0204   20090026.2894
       257.0824
  -7320466.97747  -5632023.48842  21873115.8094   21873111.7114
      4016.4894
 -16311257.73849 -12678679.64146  19443409.2774   19443406.5744
      1346.9664
 -17825872.69148 -13876124.01646  19403542.0514   19403540.6134
      2196.4944
 04  9  8 16 33 14.9960000  0  5G20G11G23G25G 1
 -17397371.48849 -13549420.85244  20617623.8954   20617620.9104
      3811.9344
 -10800505.53949  -8391999.46545  20089320.0274   20089317.4814
       248.4124
  -7380671.19147  -5678935.79742  21861660.3014   21861655.1374
      4013.6144
 -16331328.03549 -12694318.82846  19439590.1134   19439587.5274
      1338.0204
 -17858742.45749 -13901736.82446  19397287.7854   19397285.4774
      2191.3184
 04  9  8 16 33 29.9960000  0  5G20G11G23G25G 1
 -17454506.45749 -13593941.60944  20606750.8874   20606748.4454
      3808.9984
 -10804103.28149  -8394802.91845  20088635.6994   20088632.8524
       239.8494
  -7440833.91447  -5725815.81242  21850211.6764   21850206.6174
      4010.8484
 -16351265.77749 -12709854.73046  19435796.3634   19435793.8524
      1329.1834
 -17891536.16049 -13927290.34846  19391047.0984   19391045.5084
      2186.2474
 04  9  8 16 33 44.9960000  0  5G20G11G23G25G 1
 -17511595.44549 -13638426.52345  20595887.4184   20595884.6844
      3805.9334
 -10807570.91849  -8397504.98045  20087975.4414   20087972.3914
       231.1764
  -7500953.12947  -5772661.94143  21838770.9104   21838766.5044
      4007.9484
 -16371069.03549 -12725285.83646  19432027.8014   19432025.0354
      1320.2174
 -17924251.90249 -13952783.12946  19384821.1294   19384819.3914
      2181.0494
 04  9  8 16 33 59.9960000  0  5G20G11G23G25G 1
 -17568638.99649 -13682876.02744  20585032.2934   20585029.6214
      3802.9034
 -10810909.54348  -8400106.52045  20087339.6454   20087337.2314
       222.5754
  -7561029.61747  -5819474.77342  21827337.7774   21827334.0664
      4005.0994
 -16390738.77049 -12740612.89546  19428284.7384   19428281.8794
      1311.3164
 -17956890.65649 -13978215.92246  19378610.7544   19378608.3984
      2175.9174
 04  9  8 16 34 14.9960000  0  5G20G11G23G25G 1
 -17625635.40649 -13727288.82045  20574186.3714   20574183.3874
      3799.7614
 -10814117.71148  -8402606.39145  20086729.8484   20086726.8834
       213.8784
  -7621061.80147  -5866253.03942  21815914.2854   21815910.5474
      4002.1464
 -16410273.52049 -12755834.77046  19424567.3164   19424564.5204
      1302.3174
 -17989450.88748 -14003587.51646  19372414.3404   19372412.4144
      2170.6824
 04  9  8 16 34 29.9960000  0  5G20G11G23G25G 1
 -17682586.01249 -13771665.89545  20563348.6684   20563346.5124
      3796.7074
 -10817197.13348  -8405005.96145  20086143.4024   20086140.7894
       205.2954
  -7681051.17648  -5912997.96543  21804499.6064   21804495.3284
      3999.2924
 -16429674.85549 -12770952.69147  19420875.3564   19420872.5234
      1293.4224
 -18021934.18449 -14028899.18046  19366233.0204   19366231.2854
      2165.5534
 04  9  8 16 34 44.9960000  0  5G20G11G23G25G 1
 -17739490.78149 -13816007.27345  20552520.1134   20552517.8524
      3793.6514
 -10820148.13748  -8407305.46145  20085581.9654   20085579.4454
       196.7344
  -7740997.86748  -5959709.65243  21793091.0904   21793087.3324
      3996.4464
 -16448942.98849 -12785966.82446  19417208.3874   19417206.1024
      1284.5424
 -18054340.83649 -14054151.10246  19360065.9814   19360064.6094
      2160.4434
 04  9  8 16 34 59.9960000  0  5G20G11G23G25G 1
 -17796350.71549 -13860313.70345  20541700.2464   20541697.6564
      3790.6624
 -10822972.37548  -8409506.17645  20085044.9104   20085041.7544
       188.2834
  -7800903.08648  -6006389.02743  21781692.2624   21781688.0084
      3993.6814
 -16468079.21149 -12800878.17646  19413567.6064   19413564.7774
      1275.7484
 -18086672.12149 -14079344.31247  19353913.4814   19353912.1764
      2155.4194
 04  9  8 16 35 14.9960000  0  5G20G11G23G25G 1
 -17853163.80949 -13904583.62145  20530888.8404   20530886.4534
      3787.5404
 -10825667.91048  -8411606.60545  20084531.8324   20084528.7974
       179.7024
  -7860764.92648  -6053034.58243  21770301.0514   21770296.7314
      3990.7894
 -16487081.95749 -12815685.48846  19409950.9184   19409948.7194
      1266.8504
 -18118926.32049 -14104477.45347  19347776.2384   19347773.9774
      2150.2804
 04  9  8 16 35 29.9960000  0  5G20G11G23G25G 1
 -17909930.23049 -13948817.19945  20520086.6914   20520084.0864
      3784.4284
 -10828235.30549  -8413607.16445  20084042.5664   20084040.1024
       171.1604
  -7920583.73048  -6099646.57443  21758917.6684   21758913.3014
      3987.9204
 -16505951.54749 -12830389.06646  19406360.5044   19406358.0274
      1257.9734
 -18151103.81249 -14129550.81646  19341653.0044   19341650.9454
      2145.1664
 04  9  8 16 35 44.9960000  0  5G20G11G23G25G 1
 -17966646.64849 -13993011.80945  20509294.1134   20509291.1724
      3781.0954
 -10830671.62948  -8415505.62545  20083578.8794   20083577.0824
       162.4224
  -7980356.34448  -6146222.59443  21747543.2384   21747538.9774
      3984.8414
 -16524685.09449 -12844986.62946  19402795.0824   19402793.0314
      1248.9034
 -18183201.52749 -14154562.01647  19335544.6684   19335543.0314
      2139.8484
 04  9  8 16 35 59.9960000  0  5G20G11G23G25G 1
 -18023314.58249 -14037168.63745  20498510.4574   20498507.8914
      3777.8624
 -10832978.85249  -8417303.46145  20083140.9024   20083137.9654
       153.8154
  -8040084.47748  -6192763.98043  21736177.4814   21736172.7774
      3981.8764
 -16543284.12949 -12859479.39146  19399256.2314   19399253.5434
      1239.9364
 -18215221.31649 -14179512.48846  19329451.7854   19329449.7464
      2134.6534
 04  9  8 16 36 14.9960000  0  5G20G11G23G25G 1
 -18079936.36749 -14081289.48045  20487735.2854   20487732.7424
      3774.7864
 -10835159.62148  -8419002.78145  20082725.6604   20082722.4344
       145.3854
  -8099770.55948  -6239272.57443  21724819.7704   21724815.7034
      3979.0724
 -16561751.25449 -12873869.34446  19395742.1294   19395739.7664
      1231.1424
 -18247165.69549 -14204404.21546  19323372.8094   19323371.1564
      2129.6254
 04  9  8 16 36 29.9960000  0  5G20G11G23G25G 1
 -18136510.42649 -14125373.16444  20476969.8484   20476967.0084
      3771.6044
 -10837212.83649  -8420602.70345  20082334.4024   20082331.8484
       136.8814
  -8159413.19948  -6285747.32043  21713469.6844   21713466.5044
      3976.1764
 -16580085.38349 -12888155.67246  19392252.7704   19392250.7974
      1222.2754
 -18279033.45749 -14229236.23046  19317308.8404   19317306.6294
      2124.5174
 04  9  8 16 36 44.9960000  0  5G20G11G23G25G 1
 -18193035.63348 -14169418.77744  20466213.0904   20466210.6254
      3768.3474
 -10839137.71949  -8422102.62945  20081968.5984   20081965.8484
       128.3264
  -8219011.32448  -6332187.37144  21702128.8874   21702125.2464
      3973.2084
 -16598285.57449 -12902337.64546  19388789.8564   19388787.2624
      1213.3464
 -18310823.60949 -14254007.77746  19311259.2154   19311257.2234
      2119.3434
 04  9  8 16 36 59.9950000  0  5G20G11G23G25G 1
 -18249508.89549 -14213423.89845  20455467.0694   20455464.1834
      3764.8844
 -10840935.18448  -8423503.26245  20081626.2494   20081623.6014
       119.8314
  -8278561.95348  -6378590.42643  21690796.4834   21690792.9294
      3970.0424
 -16616351.57049 -12916415.03946  19385351.9684   19385349.4334
      1204.4004
 -18342535.12949 -14278718.04346  19305224.5304   19305222.7184
      2114.1014
 04  9  8 16 37 14.9950000  0  5G20G11G23G25G 1
 -18305937.39848 -14257394.16844  20444728.2494   20444726.1714
      3761.9004
 -10842605.46949  -8424804.79345  20081307.8904   20081305.8314
       111.3524
  -8338072.63748  -6424962.35244  21679472.6794   21679468.3784
      3967.3794
 -16634285.59849 -12930389.59846  19381938.8984   19381936.8514
      1195.6024
 -18374172.08649 -14303370.21146  19299204.5624   19299202.8664
      2109.1304
 04  9  8 16 37 29.9950000  0  5G20G11G23G25G 1
 -18362318.29349 -14301327.32044  20434000.1084   20433997.0114
      3758.7264
 -10844149.81249  -8426008.18445  20081014.4994   20081011.9014
       102.9564
  -8397540.65648  -6471301.04744  21668156.3744   21668151.4254
      3964.5354
 -16652087.71949 -12944261.37146  19378551.1324   19378549.0344
      1186.8084
 -18405733.60249 -14327963.58246  19293198.2494   19293196.6834
      2104.1014
 04  9  8 16 37 44.9950000  0  5G20G11G23G25G 1
 -18418649.66849 -14345221.89844  20423279.9054   20423277.6404
      3755.4254
 -10845566.67249  -8427112.24645  20080744.4684   20080741.7264
        94.4574
  -8456964.25048  -6517605.10944  21656848.0934   21656843.5694
      3961.5734
 -16669756.39549 -12958029.16846  19375188.7494   19375186.4134
      1177.9124
 -18437218.01249 -14352496.89146  19287207.2574   19287205.5034
      2098.9614
 04  9  8 16 37 59.9950000  0  5G20G11G23G25G 1
 -18474932.50449 -14389078.65244  20412570.3354   20412567.5774
      3752.1894
 -10846857.42648  -8428118.02745  20080499.1794   20080496.1124
        86.0504
  -8516344.59848  -6563875.47744  21645548.2494   21645544.2964
      3958.6904
 -16687293.02349 -12971694.08246  19371851.8044   19371849.1014
      1169.1094
 -18468626.62549 -14376971.12546  19281230.3274   19281228.2454
      2093.9084
 04  9  8 16 38 14.9950000  0  5G20G11G23G25G 1
 -18531165.75049 -14432896.75444  20401869.3664   20401866.4404
      3748.8834
 -10848021.45349  -8429025.07445  20080278.2804   20080275.2184
        77.6024
  -8575680.68048  -6610111.36344  21634256.5624   21634253.1364
      3955.7394
 -16704696.64149 -12985255.33246  19368540.1084   19368537.4954
      1160.2414
 -18499958.56649 -14401385.62146  19275267.6634   19275265.8274
      2088.7964
 04  9  8 16 38 29.9950000  0  5G20G11G23G25G 1
 -18587348.07049 -14476675.16844  20391178.2334   20391175.3084
      3745.4884
 -10849057.87148  -8429832.68445  20080080.8744   20080078.0624
        69.0954
  -8634971.54348  -6656312.00444  21622974.7734   21622970.1084
      3952.7244
 -16721966.39849 -12998712.28546  19365253.9834   19365251.4994
      1151.3174
 -18531212.89149 -14425739.64146  19269320.1014   19269318.2764
      2083.6224
 04  9  8 16 38 44.9950000  0  5G20G11G23G25G 1
 -18643481.03148 -14520415.15244  20380495.9604   20380493.4014
      3742.1974
 -10849968.58648  -8430542.34845  20079907.5074   20079904.8744
        60.7144
  -8694218.74648  -6702478.62543  21611700.1554   21611695.8704
      3949.8144
 -16739103.98449 -13012066.24246  19361992.5624   19361990.2884
      1142.5064
 -18562391.36349 -14450034.54746  19263387.2264   19263385.3314
      2078.5654
 04  9  8 16 38 59.9950000  0  5G20G11G23G25G 1
 -18699564.44149 -14564116.49244  20369823.8904   20369821.4094
      3738.8944
 -10850753.71949  -8431154.15645  20079757.9764   20079755.2734
        52.3424
  -8753422.14148  -6748611.10544  21600433.7574   21600429.6944
      3946.8934
 -16756109.35548 -13025317.17646  19358756.9994   19358754.5464
      1133.6914
 -18593493.92648 -14474270.30546  19257469.2104   19257466.9724
      2073.5044
 04  9  8 16 39 14.9950000  0  5G20G11G23G25G 1
 -18755597.92649 -14607778.93444  20359161.2804   20359158.5194
      3735.5664
 -10851413.37148  -8431668.18445  20079632.2964   20079629.8274
        43.9774
  -8812581.63748  -6794709.37143  21589176.7964   21589171.6904
      3943.9664
 -16772982.57848 -13038465.14146  19355545.7024   19355543.2804
      1124.8824
 -18624520.59848 -14498446.93446  19251564.6324   19251562.6794
      2068.4454
 04  9  8 16 39 29.9950000  0  5G20G11G23G25G 1
 -18811580.35949 -14651401.60245  20348508.3274   20348505.2614
      3732.1624
 -10851946.81648  -8432083.85945  20079530.6634   20079528.5304
        35.5634
  -8871696.30148  -6840772.72744  21577925.9684   21577922.0854
      3940.9784
 -16789722.96948 -13051509.62146  19352360.3044   19352357.8004
      1116.0264
 -18655470.63748 -14522563.82846  19245674.5854   19245672.9014
      2063.3364
 04  9  8 16 39 44.9950000  0  5G20G11G23G25G 1
 -18867511.88749 -14694984.60244  20337864.4374   20337861.9404
      3728.7684
 -10852354.73848  -8432401.74245  20079453.4914   20079451.2104
        27.1954
  -8930766.47348  -6886801.41044  21566686.1404   21566681.9724
      3938.0114
 -16806330.96948 -13064450.91046  19349199.8194   19349197.4524
      1107.2004
 -18686344.41048 -14546621.31646  19239800.1874   19239797.7264
      2058.2524
 04  9  8 16 39 59.9950000  0  5G20G11G23G25G 1
 -18923392.65249 -14738528.04745  20327230.7264   20327227.6244
      3725.3844
 -10852637.54748  -8432622.12545  20079399.7104   20079397.1324
        18.8544
  -8989792.43448  -6932795.60544  21555454.3044   21555449.1084
      3935.0644
 -16822806.92649 -13077289.31246  19346064.4214   19346061.9254
      1098.3974
 -18717142.30548 -14570619.67646  19233939.2264   19233937.1594
      2053.1934
 04  9  8 16 40 14.9950000  0  5G20G11G23G25G 1
 -18979224.35549 -14782033.27045  20316606.6484   20316603.6874
      3722.1144
 -10852797.50048  -8432746.77045  20079369.1634   20079366.3904
        10.6644
  -9048776.18748  -6978756.94543  21544229.6714   21544226.0234
      3932.2504
 -16839152.98848 -13090026.49646  19342954.0234   19342951.3664
      1089.7384
 -18747866.44948 -14594560.55946  19228092.2494   19228090.6244
      2048.2764
 04  9  8 16 40 29.9950000  0  5G20G11G23G25G 1
 -19035004.82849 -14825498.56645  20305991.5304   20305988.8554
      3718.6984
 -10852832.71548  -8432774.21545  20079362.3354   20079359.6124
         2.3484
  -9107715.62547  -7024683.75044  21533013.6324   21533009.2494
      3929.2964
 -16855367.12948 -13102660.88746  19339868.7104   19339865.7374
      1080.9434
 -18778514.82848 -14618442.40246  19222260.3274   19222258.7574
      2043.2254
 04  9  8 16 40 44.9950000  0  5G20G11G23G25G 1
 -19090734.90649 -14868924.59445  20295386.5544   20295384.3004
      3715.3394
 -10852744.30148  -8432705.34045  20079379.3274   20079376.6554
        -5.8944
  -9166611.53948  -7070576.63743  21521805.7494   21521801.5504
      3926.3944
 -16871450.32448 -13115193.25046  19336807.9294   19336805.6834
      1072.2134
 -18809088.38748 -14642265.95746  19216442.6794   19216440.3234
      2038.2374
 04  9  8 16 40 59.9950000  0  5G20G11G23G25G 1
 -19146413.82449 -14912310.74645  20284791.1874   20284788.2654
      3711.9284
 -10852532.06648  -8432539.97745  20079420.2734   20079417.1124
       -14.1494
  -9225463.49647  -7116435.28143  21510606.8514   21510603.0974
      3923.4644
 -16887402.34048 -13127623.38746  19333772.2414   19333770.1484
      1063.4684
 -18839586.79348 -14666030.94546  19210638.9054   19210636.5114
      2033.2274
 04  9  8 16 41 14.9950000  0  5G20G11G23G25G 1
 -19202040.28549 -14955656.03145  20274206.0074   20274202.9804
      3708.4314
 -10852195.13748  -8432277.44145  20079484.3124   20079481.3904
       -22.4624
  -9284270.47346  -7162258.84443  21499415.8514   21499413.0194
      3920.4654
 -16903222.23449 -13139950.58646  19330762.2884   19330759.3394
      1054.6604
 -18870009.13348 -14689736.66046  19204849.5464   19204847.5774
      2028.1564
 04  9  8 16 41 29.9950000  0  5G20G11G23G25G 1
 -19257613.58649 -14998959.90245  20263630.7964   20263627.6404
      3704.8874
 -10851733.17649  -8431917.48445  20079571.8904   20079569.1484
       -30.7974
  -9343031.85947  -7208046.88343  21488234.0624   21488230.5584
      3917.4264
 -16918909.53549 -13152174.44946  19327776.7334   19327773.9524
      1045.8204
 -18900354.84848 -14713382.67246  19199075.4444   19199072.9564
      2023.0484
 04  9  8 16 41 44.9950000  0  5G20G11G23G25G 1
 -19313134.89149 -15042223.24245  20253065.5304   20253062.3394
      3701.4204
 -10851147.67248  -8431461.27045  20079683.3434   20079680.4724
       -39.0344
  -9401748.85547  -7253800.35943  21477061.2574   21477057.0074
      3914.4664
 -16934465.64849 -13164296.10246  19324816.5074   19324813.6874
      1037.0744
 -18930625.39848 -14736970.11746  19193314.6634   19193313.0154
      2018.0374
 04  9  8 16 41 59.9950000  0  5G20G11G23G25G 1
 -19368604.30549 -15085446.15645  20242509.9374   20242507.1554
      3697.9614
 -10850439.18748  -8430909.21945  20079818.8274   20079814.8154
       -47.2324
  -9460421.82447  -7299519.51643  21465896.1164   21465891.4684
      3911.5314
 -16949890.94549 -13176315.80546  19321881.1484   19321878.8154
      1028.3534
 -18960821.18448 -14760499.28946  19187569.1944   19187566.7264
      2013.0524
 04  9  8 16 42 14.9950000  0  5G20G11G23G25G 1
 -19424021.13349 -15128628.09445  20231964.5854   20231961.4874
      3694.4554
 -10849607.60249  -8430261.23045  20079976.4684   20079973.2734
       -55.4394
  -9519050.34047  -7345204.07044  21454739.0234   21454734.9094
      3908.5684
 -16965185.28949 -13188233.48046  19318970.6014   19318968.1714
      1019.6234
 -18990941.85949 -14783969.95746  19181837.0154   19181834.6444
      2008.0454
 04  9  8 16 42 29.9950000  0  5G20G11G23G25G 1
 -19479384.54349 -15171768.40645  20221428.6634   20221426.3664
      3690.8944
 -10848652.40249  -8429516.93045  20080157.6874   20080155.4644
       -63.6804
  -9577633.57447  -7390853.32443  21443589.8044   21443586.7104
      3905.5494
 -16980348.12949 -13200048.67246  19316085.0154   19316083.3084
      1010.8564
 -19020986.80549 -14807381.59846  19176119.4134   19176117.1484
      2002.9964
 04  9  8 16 42 44.9950000  0  5G20G11G23G25G 1
 -19534694.48449 -15214867.03945  20210903.7104   20210900.8554
      3687.3294
 -10847573.94948  -8428676.59845  20080363.4054   20080360.7414
       -71.8974
  -9636171.80947  -7436467.49643  21432451.4134   21432447.0854
      3902.5494
 -16995379.71549 -13211761.60946  19313224.9764   19313222.4764
      1002.1064
 -19050956.35249 -14830734.49646  19170416.2804   19170414.6794
      1997.9704
 04  9  8 16 42 59.9950000  0  5G20G11G23G25G 1
 -19589949.84849 -15257923.17245  20200389.5154   20200386.2614
      3683.6914
 -10846371.72749  -8427739.81245  20080592.4524   20080589.4604
       -80.1484
  -9694664.00848  -7482045.80943  21421320.0694   21421317.1364
      3899.4804
 -17010279.23049 -13223371.61346  19310389.6874   19310386.9014
       993.3014
 -19080849.66049 -14854027.96946  19164727.8824   19164725.9954
      1992.8874
 04  9  8 16 43 14.9950000  0  5G20G11G23G25G 1
 -19645152.76249 -15300938.42245  20189884.6244   20189881.7494
      3680.1944
 -10845048.18049  -8426708.48445  20080844.3434   20080841.2494
       -88.2364
  -9753112.62948  -7527590.13743  21410198.2734   21410195.0814
      3896.5754
 -17025049.09849 -13234880.60246  19307579.1244   19307576.4484
       984.6584
 -19110669.12949 -14877263.92246  19159053.4524   19159051.6324
      1987.9654
 04  9  8 16 43 29.9950000  0  5G20G11G23G25G 1
 -19700300.89149 -15343910.97345  20179390.2734   20179387.4484
      3676.5424
 -10843601.39849  -8425581.12545  20081119.1634   20081116.6834
       -96.4524
  -9811515.32047  -7573098.69544  21399084.5154   21399081.1794
      3893.5134
 -17039687.32049 -13246287.01246  19304793.8664   19304791.3704
       975.8824
 -19140412.66449 -14900440.69546  19153393.7884   19153391.5194
      1982.9024
 04  9  8 16 43 44.9950000  0  5G20G11G23G25G 1
 -19755396.67649 -15386842.74245  20168906.1634   20168903.3474
      3673.0524
 -10842033.94149  -8424359.74245  20081417.5854   20081414.8824
      -104.4974
  -9869874.67647  -7618573.49644  21387979.1874   21387975.1984
      3890.6244
 -17054196.62149 -13257592.94946  19302032.4914   19302030.6484
       967.2874
 -19170082.89149 -14923560.34846  19147747.3664   19147745.1714
      1978.0154
 04  9  8 16 43 59.9950000  0  5G20G11G23G25G 1
 -19810437.49249 -15429731.68445  20158432.5774   20158429.1244
      3669.3884
 -10840343.95748  -8423042.88745  20081739.2494   20081736.7104
      -112.6664
  -9928188.40247  -7664012.73843  21376882.4684   21376877.9404
      3887.5824
 -17068574.79349 -13268796.72746  19299296.8434   19299294.4294
       958.5454
 -19199677.59849 -14946621.15246  19142115.8354   19142113.6794
      1972.9804
 04  9  8 16 44 14.9950000  0  5G20G11G23G25G 1
 -19865424.16449 -15472578.44145  20147968.1484   20147965.4604
      3665.7784
 -10838532.66049  -8421631.49645  20082083.9444   20082081.1284
      -120.7534
  -9986457.51247  -7709417.21944  21365794.4444   21365789.8744
      3884.6074
 -17082822.94949 -13279899.18046  19296585.1554   19296583.1284
       949.8774
 -19229197.91449 -14969623.99246  19136498.1164   19136496.3354
      1968.0214
 04  9  8 16 44 29.9950000  0  5G20G11G23G25G 1
 -19920356.33249 -15515382.72745  20137515.4834   20137512.3514
      3662.1454
 -10836600.10948  -8420125.62145  20082450.9214   20082448.8124
      -128.8374
 -10044681.74247  -7754786.70743  21354714.5074   21354709.8514
      3881.6154
 -17096941.01248 -13290900.26246  19293898.4764   19293895.9214
       941.2044
 -19258643.75048 -14992568.80546  19130895.0544   19130892.8004
      1963.0564
 04  9  8 16 44 44.9950000  0  5G20G11G23G25G 1
 -19975232.96149 -15558143.71945  20127072.2184   20127069.7184
      3658.4424
 -10834545.71548  -8418524.81245  20082842.1324   20082839.7064
      -136.9604
 -10102860.26247  -7800120.60244  21343644.1944   21343638.9764
      3878.5684
 -17110928.27749 -13301799.43746  19291236.9604   19291234.2264
       932.4844
 -19288014.33249 -15015454.96146  19125305.6484   19125303.8704
      1958.0394
 04  9  8 16 44 59.9950000  0  5G20G11G23G25G 1
 -20030055.70349 -15600862.73445  20116639.7734   20116637.4014
      3654.8494
 -10832371.56248  -8416830.68045  20083255.8194   20083253.5114
      -144.9434
 -10160994.83647  -7845420.27043  21332581.2184   21332576.2454
      3875.6384
 -17124786.77348 -13312598.25846  19288599.7024   19288597.1984
       923.9004
 -19317311.59849 -15038283.99646  19119730.7964   19119728.9604
      1953.1514
 04  9  8 16 45 14.9950000  0  5G20G11G23G25G 1
 -20084823.31649 -15643538.78145  20106218.0464   20106215.3554
      3651.1744
 -10830076.86349  -8415042.62945  20083692.7734   20083690.5154
      -152.9804
 -10219084.37947  -7890684.80543  21321526.9994   21321522.5114
      3872.6364
 -17138515.71949 -13323296.14146  19285987.0624   19285984.8434
       915.2634
 -19346534.60949 -15061055.17246  19114169.6484   19114168.1164
      1948.2014
 04  9  8 16 45 29.9950000  0  5G20G11G23G25G 1
 -20139534.08249 -15686170.54345  20095806.9834   20095803.9134
      3647.3844
 -10827660.34048  -8413159.63345  20084152.7494   20084150.2534
      -161.1024
 -10277127.37947  -7935913.11743  21310481.3744   21310477.1834
      3869.5334
 -17152113.55948 -13333891.86746  19283399.4524   19283397.3394
       906.5234
 -19375681.92649 -15083767.36746  19108622.7264   19108621.3474
      1943.1544
 04  9  8 16 45 44.9950000  0  5G20G11G23G25G 1
 -20194189.30949 -15728759.01645  20085406.1944   20085403.5264
      3643.6824
 -10825123.56649  -8411182.94545  20084636.1714   20084633.1124
      -169.1184
 -10335125.25047  -7981106.25443  21299443.9524   21299440.7614
      3866.5254
 -17165581.88349 -13344386.66446  19280836.5934   19280834.2334
       897.8884
 -19404755.04749 -15106421.74246  19103090.8984   19103088.7184
      1938.2084
 04  9  8 16 45 59.9950000  0  5G20G11G23G25G 1
 -20248787.39549 -15771302.96545  20075016.2264   20075014.1754
      3639.8724
 -10822465.53148  -8409111.76245  20085141.4374   20085138.8434
      -177.2024
 -10393076.68447  -8026263.17244  21288417.0544   21288413.3354
      3863.4294
 -17178919.46548 -13354779.57846  19278298.2184   19278295.9564
       889.1724
 -19433752.75449 -15129017.35546  19097572.6404   19097570.5584
      1933.1804
 04  9  8 16 46 14.9950000  0  5G20G11G23G25G 1
 -20303332.01649 -15813805.26645  20064637.0384   20064633.9764
      3636.3084
 -10819690.55548  -8406949.45745  20085669.6484   20085666.8624
      -184.9984
 -10450985.71947  -8071387.07444  21277397.8744   21277393.2184
      3860.6024
 -17192130.44148 -13365073.85546  19275784.8434   19275782.0584
       880.7324
 -19462679.12949 -15151557.38746  19092068.2574   19092066.4604
      1928.4254
 04  9  8 16 46 29.9950000  0  5G20G11G23G25G 1
 -20357819.44549 -15856262.99645  20054268.5694   20054265.4604
      3632.4954
 -10816795.05549  -8404693.23845  20086220.5544   20086217.6014
      -193.0334
 -10508848.57847  -8116475.00044  21266386.0624   21266382.0114
      3857.5244
 -17205211.41048 -13375266.81646  19273295.3744   19273293.3124
       872.0654
 -19491530.65648 -15174039.08646  19086577.7734   19086575.9764
      1923.4354
 04  9  8 16 46 44.9950000  0  5G20G11G23G25G 1
 -20412249.86349 -15898676.30945  20043910.6874   20043907.7804
      3628.6954
 -10813779.74648  -8402343.65245  20086794.1324   20086790.9604
      -201.0214
 -10566665.64146  -8161527.23043  21255384.2654   21255380.0734
      3854.4714
 -17218162.87149 -13385358.87146  19270830.5624   19270828.6204
       863.4314
 -19520307.82049 -15196462.84846  19081101.8434   19081099.6874
      1918.4784
 04  9  8 16 46 59.9950000  0  5G20G11G23G25G 1
 -20466623.50049 -15941045.35245  20033564.1164   20033560.8154
      3624.9094
 -10810645.27748  -8399901.21945  20087390.8274   20087387.9294
      -208.9654
 -10624437.32847  -8206544.12543  21244390.3274   21244386.1014
      3851.4464
 -17230985.39548 -13395350.44946  19268390.8984   19268388.7264
       854.8354
 -19549011.14148 -15218829.07046  19075639.8514   19075637.9404
      1913.5554
 04  9  8 16 47 14.9950000  0  5G20G11G23G25G 1
 -20520939.63749 -15983369.61345  20023227.8984   20023224.9254
      3621.0764
 -10807391.45748  -8397365.78945  20088009.4684   20088007.5264
      -216.9214
 -10682163.15647  -8251525.25843  21233406.2414   21233401.1874
      3848.3894
 -17243678.70349 -13405241.32846  19265974.9764   19265972.8514
       846.2214
 -19577640.18449 -15241137.41846  19070192.0154   19070189.6484
      1908.6034
 04  9  8 16 47 29.9950000  0  5G20G11G23G25G 1
 -20575197.85549 -16025648.74645  20012902.6944   20012899.7224
      3617.2154
 -10804018.31649  -8394737.39545  20088651.9054   20088649.6514
      -224.8764
 -10739842.87147  -8296470.45343  21222429.6874   21222425.3984
      3845.3144
 -17256242.57049 -13415031.36346  19263584.3124   19263582.0034
       837.5914
 -19606194.84849 -15263387.80146  19064757.5694   19064755.7614
      1903.6444
 04  9  8 16 47 44.9950000  0  5G20G11G23G25G 1
 -20629398.05949 -16067882.66045  20002588.7104   20002585.9444
      3613.3474
 -10800526.12548  -8392016.20745  20089316.4914   20089314.2734
      -232.8134
 -10797476.37547  -8341379.66043  21211461.9604   21211457.9804
      3842.2344
 -17268677.31249 -13424720.77746  19261218.3984   19261215.5074
       828.9834
 -19634675.18049 -15285580.26246  19059338.4214   19059336.4374
      1898.6894
 04  9  8 16 47 59.9950000  0  5G20G11G23G25G 1
 -20683539.84849 -16110071.06245  19992285.5544   19992283.0074
      3609.4534
 -10796914.92648  -8389202.29745  20090003.8584   20090001.4054
      -240.7474
 -10855063.58647  -8386252.78143  21200503.9294   21200499.7304
      3839.1474
 -17280982.93049 -13434309.56646  19258876.5774   19258874.3004
       820.3744
 -19663081.16449 -15307714.78946  19053932.7414   19053930.8314
      1893.7324
 04  9  8 16 48 14.9950000  0  5G20G11G23G25G 1
 -20737623.52749 -16152214.17645  19981993.8124   19981991.5734
      3605.5794
 -10793185.62548  -8386296.36345  20090713.7184   20090710.8784
      -248.6204
 -10912604.97747  -8431090.20743  21189553.5934   21189549.5934
      3836.0934
 -17293159.97349 -13443798.17246  19256559.0934   19256557.2494
       811.8034
 -19691413.40649 -15329791.86346  19048541.6084   19048539.5424
      1888.8164
 04  9  8 16 48 29.9950000  0  5G20G11G23G25G 1
 -20791649.23049 -16194312.11745  19971713.3984   19971710.6754
      3601.7144
 -10789338.66449  -8383298.74645  20091445.5544   20091443.0264
      -256.4644
 -10970100.93747  -8475892.21943  21178613.0544   21178608.2844
      3833.0644
 -17305208.98849 -13453187.02346  19254266.3124   19254264.2534
       803.2684
 -19719672.28949 -15351811.77046  19043163.8354   19043162.1244
      1883.9264
 04  9  8 16 48 44.9950000  0  5G20G11G23G25G 1
 -20845615.90249 -16236364.05145  19961443.5544   19961440.8824
      3597.7784
 -10785373.52348  -8380209.04745  20092199.8434   20092197.9214
      -264.3434
 -11027550.54347  -8520658.14144  21167680.3044   21167675.8154
      3829.9744
 -17317129.30149 -13462475.57446  19251997.9684   19251995.3944
       794.6884
 -19747857.15249 -15373774.00046  19037800.8824   19037798.3864
      1878.9914
 04  9  8 16 48 59.9950000  0  5G20G11G23G25G 1
 -20899523.23849 -16278369.77745  19951185.2884   19951182.6284
      3593.8224
 -10781290.29348  -8377027.32045  20092976.8664   20092974.8824
      -272.2154
 -11084953.65247  -8565387.83244  21156756.6634   21156752.8124
      3826.8744
 -17328920.92249 -13471663.87146  19249754.4444   19249751.8744
       786.1084
 -19775967.98849 -15395678.53946  19032451.2804   19032449.4604
      1874.0564
 04  9  8 16 49 14.9950000  0  5G20G11G23G25G 1
 -20953372.93449 -16320330.56645  19940938.1634   19940935.1284
      3589.9804
 -10777091.24648  -8373755.34845  20093776.0384   20093773.5504
      -279.9364
 -11142312.23447  -8610082.79744  21145841.6404   21145837.8664
      3823.9054
 -17340585.93049 -13480753.46946  19247534.5234   19247532.3154
       777.6674
 -19804006.80549 -15417526.96546  19027115.6554   19027113.9644
      1869.2544
 04  9  8 16 49 29.9950000  0  5G20G11G23G25G 1
 -21007164.01249 -16362245.69545  19930702.2104   19930699.4374
      3586.0724
 -10772775.79348  -8370392.66445  20094597.6404   20094594.6514
      -287.6974
 -11199625.35547  -8654742.37144  21134935.7734   21134931.4404
      3820.8754
 -17352123.69549 -13489743.94146  19245338.8124   19245336.2414
       769.1844
 -19831972.89549 -15439318.71946  19021793.8984   19021791.7024
      1864.4064
 04  9  8 16 49 44.9950000  0  5G20G11G23G25G 1
 -21060894.49649 -16404113.59045  19920477.4524   19920474.9254
      3582.0324
 -10768342.59048  -8366938.23045  20095440.3824   20095438.3124
      -295.5474
 -11256891.33647  -8699365.22343  21124037.5544   21124033.9914
      3817.7324
 -17363532.64849 -13498634.03546  19243167.7024   19243165.1514
       760.5974
 -19859864.51249 -15461052.44146  19016486.3124   19016484.2804
      1859.4414
 04  9  8 16 49 59.9950000  0  5G20G11G23G25G 1
 -21114565.05949 -16445934.80545  19910264.8824   19910261.6404
      3578.0384
 -10763792.51248  -8363392.73045  20096306.3664   20096304.1904
      -303.3394
 -11314111.05147  -8743951.96543  21113150.0304   21113145.8474
      3814.6484
 -17374813.70749 -13507424.47346  19241021.0384   19241018.4684
       752.0714
 -19887682.61749 -15482728.88746  19011192.7804   19011190.6444
      1854.5404
 04  9  8 16 50 14.9950000  0  5G20G11G23G25G 1
 -21168175.99249 -16487709.54745  19900062.9684   19900059.6874
      3574.0624
 -10759126.35549  -8359756.77045  20097194.3664   20097192.3944
      -311.0774
 -11371284.93047  -8788503.05944  21102268.8664   21102266.0894
      3811.5924
 -17385967.49249 -13516115.73846  19238899.1634   19238896.4254
       743.5864
 -19915427.79349 -15504348.49646  19005912.9444   19005910.9524
      1849.6784
 04  9  8 16 50 29.9950000  0  5G20G11G23G25G 1
 -21221726.62949 -16529437.30545  19889872.4764   19889869.1904
      3570.0424
 -10754343.96548  -8356030.25445  20098104.8274   20098102.0544
      -318.8264
 -11428412.43047  -8833017.97344  21091398.8744   21091395.1324
      3808.5004
 -17396993.84448 -13524707.69547  19236800.3744   19236798.2764
       735.0904
 -19943099.71149 -15525911.02746  19000647.0774   19000644.9564
      1844.7954
 04  9  8 16 50 44.9950000  0  5G20G11G23G25G 1
 -21275217.19549 -16571118.25045  19879693.3744   19879690.3584
      3566.0384
 -10749446.19949  -8352213.82445  20099037.1084   20099033.8584
      -326.5184
 -11485494.13348  -8877497.21144  21080536.3514   21080532.3624
      3805.4474
 -17407893.41449 -13533200.88346  19234726.7024   19234724.0114
       726.6384
 -19970698.98849 -15547416.96146  18995395.5544   18995393.1634
      1839.9524
 04  9  8 16 50 59.9950000  0  5G20G11G23G25G 1
 -21328646.42649 -16612751.41845  19869526.5464   19869522.9404
      3561.9494
 -10744431.95748  -8348306.63345  20099991.0464   20099988.1124
      -334.2834
 -11542528.81648  -8921939.80544  21069684.1324   21069679.0854
      3802.3124
 -17418665.25449 -13541594.51646  19232676.2804   19232674.1324
       718.1234
 -19998224.52749 -15568865.42246  18990157.5624   18990155.2184
      1835.0364
 04  9  8 16 51 14.9950000  0  5G20G11G23G25G 1
 -21382014.50849 -16654336.93045  19859370.2184   19859367.2844
      3557.8724
 -10739302.08649  -8344309.34445  20100967.1404   20100964.3084
      -341.9914
 -11599516.82047  -8966346.04344  21058838.7024   21058834.6164
      3799.2004
 -17429309.89149 -13549889.03146  19230650.8434   19230648.2884
       709.6424
 -20025676.83249 -15590256.83246  18984933.0624   18984931.0624
      1830.1544
 04  9  8 16 51 29.9950000  0  5G20G11G23G25G 1
 -21435322.96949 -16695875.98045  19849225.7024   19849223.2304
      3553.8974
 -10734058.60549  -8340223.52345  20101964.7494   20101962.4334
      -349.5654
 -11656460.02747  -9010717.35244  21048002.9134   21047998.8904
      3796.2144
 -17439829.23849 -13558085.93746  19228649.5234   19228646.6794
       701.2904
 -20053057.84449 -15611592.68046  18979722.9294   18979720.6324
      1825.4014
 04  9  8 16 51 44.9950000  0  5G20G11G23G25G 1
 -21488571.41049 -16737368.27045  19839093.5304   19839090.5154
      3549.8964
 -10728701.59849  -8336049.24245  20102984.3274   20102981.5234
      -357.1344
 -11713358.12947  -9055053.51644  21037175.3194   21037171.6324
      3793.2074
 -17450223.18449 -13566185.09846  19226671.2184   19226668.6324
       692.9304
 -20080367.46549 -15632872.90646  18974526.0074   18974523.8434
      1820.6414
 04  9  8 16 51 59.9950000  0  5G20G11G23G25G 1
 -21541758.07849 -16778812.42245  19828972.1484   19828969.4564
      3545.7784
 -10723229.68748  -8331785.43045  20104025.8124   20104022.9564
      -364.7944
 -11770209.57447  -9099353.32044  21026356.8194   21026353.1714
      3790.0964
 -17460490.41048 -13574185.53946  19224717.6014   19224714.8824
       684.4824
 -20107604.14849 -15654096.28146  18969343.2734   18969340.9444
      1815.7794
 04  9  8 16 52 14.9950000  0  5G20G11G23G25G 1
 -21594883.43749 -16820208.80145  19818862.8354   19818859.8784
      3541.6914
 -10717643.71948  -8327432.73445  20105088.6014   20105085.7494
      -372.3984
 -11827014.93448  -9143617.23444  21015547.0544   21015543.1364
      3787.0244
 -17470631.72749 -13582087.86746  19222787.8124   19222785.3314
       676.0884
 -20134768.61749 -15675263.40246  18964173.2184   18964171.7764
      1810.9654
 04  9  8 16 52 29.9950000  0  5G20G11G23G25G 1
 -21647947.51249 -16861557.43045  19808764.7804   19808762.0974
      3537.6054
 -10711944.41848  -8322991.73845  20106173.1404   20106170.7804
      -379.9534
 -11883774.59848  -9187845.52044  21004746.6244   21004742.4834
      3783.9784
 -17480647.62149 -13589892.46946  19220882.1554   19220879.9954
       667.7264
 -20161861.36749 -15696374.64146  18959018.2264   18959016.1084
      1806.1834
 04  9  8 16 52 44.9950000  0  5G20G11G23G25G 1
 -21700948.33649 -16902856.75845  19798679.3984   19798676.1834
      3533.3884
 -10706130.19148  -8318461.19145  20107279.5384   20107277.4604
      -387.6154
 -11940486.63747  -9232036.69144  20993954.5464   20993950.0814
      3780.8034
 -17490536.42649 -13597598.03146  19219000.2654   19218997.6364
       659.2544
 -20188880.58649 -15717428.57046  18953876.6084   18953874.4134
      1801.2814
 04  9  8 16 52 59.9950000  0  5G20G11G23G25G 1
 -21753887.31649 -16944107.91045  19788605.4444   19788602.1754
      3529.2654
 -10700202.96948  -8313842.59045  20108407.8434   20108404.9564
      -395.1484
 -11997152.68747  -9276192.05144  20983170.8124   20983166.9724
      3777.7374
 -17500299.80549 -13605205.85546  19217142.1944   19217139.5114
       650.8924
 -20215828.00849 -15738426.55546  18948748.5154   18948746.5654
      1796.4954
 04  9  8 16 53 14.9950000  0  5G20G11G23G25G 1
 -21806764.49249 -16985310.90645  19778543.0774   19778540.0974
      3525.1454
 -10694163.14548  -8309136.25445  20109556.8514   20109553.9684
      -402.6554
 -12053772.94547  -9320311.72344  20972396.2334   20972392.5344
      3774.6844
 -17509938.32049 -13612716.38746  19215307.8354   19215305.4564
       642.5684
 -20242704.00449 -15759368.89846  18943634.6404   18943632.1674
      1791.7334
 04  9  8 16 53 29.9950000  0  5G20G11G23G25G 1
 -21859577.55949 -17026463.93445  19768492.7734   19768489.8984
      3520.8714
 -10688009.03948  -8304340.85545  20110727.7184   20110725.3664
      -410.2744
 -12110345.27048  -9364394.02744  20961631.6404   20961626.7614
      3771.4884
 -17519450.10949 -13620128.17246  19213497.7734   19213495.0774
       634.1194
 -20269506.53149 -15780253.97346  18938533.9214   18938531.9954
      1786.8354
 04  9  8 16 53 44.9950000  0  5G20G11G23G25G 1
 -21912327.38349 -17067567.69145  19758455.6484   19758452.4254
      3516.6554
 -10681741.92648  -8299457.40245  20111920.5624   20111918.1364
      -417.8084
 -12166870.83648  -9408439.89544  20950874.9684   20950870.3234
      3768.3714
 -17528836.37148 -13627442.14146  19211711.8044   19211709.2884
       625.7514
 -20296236.72749 -15801082.69546  18933447.5774   18933445.1874
      1782.0134
 04  9  8 16 53 59.9950000  0  5G20G11G23G25G 1
 -21965014.94548 -17108622.92245  19748428.8984   19748425.8354
      3512.5044
 -10675363.25048  -8294487.01245  20113134.5624   20113132.3394
      -425.2454
 -12223350.73048  -9452450.18444  20940127.4134   20940122.5504
      3765.3264
 -17538098.35949 -13634659.27746  19209949.3124   19209946.6794
       617.4664
 -20322895.93049 -15821856.09446  18928374.3664   18928372.2764
      1777.2804
 04  9  8 16 54 14.9950000  0  5G20G11G23G25G 1
 -22017637.52049 -17149627.52045  19738415.5234   19738412.3474
      3508.1724
 -10668870.74648  -8289427.93745  20114369.7964   20114367.6944
      -432.8344
 -12279782.40648  -9496422.89144  20929389.0074   20929384.2224
      3762.1124
 -17547233.87949 -13641777.85546  19208210.8044   19208208.2884
       609.0354
 -20349481.68449 -15842572.26646  18923315.3434   18923313.0114
      1772.3844
 04  9  8 16 54 29.9950000  0  5G20G11G23G25G 1
 -22070198.46549 -17190584.09845  19728412.8824   19728410.6084
      3504.0634
 -10662268.45748  -8284283.31645  20115626.3194   20115623.5654
      -440.1534
 -12336169.44948  -9540360.84844  20918658.5074   20918654.0034
      3759.1364
 -17556246.63349 -13648800.79346  19206495.6244   19206493.5234
       600.8504
 -20375997.71949 -15863234.10946  18918269.5154   18918267.1674
      1767.7364
 04  9  8 16 54 44.9950000  0  5G20G11G23G25G 1
 -22122694.57848 -17231490.14545  19718423.5774   19718421.1944
      3499.7414
 -10655553.48848  -8279050.88745  20116904.1554   20116901.7964
      -447.6654
 -12392508.94548  -9584261.71544  20907938.0154   20907932.8984
      3755.9664
 -17565133.79749 -13655725.85546  19204804.7574   19204802.1404
       592.4784
 -20402441.13349 -15883839.36346  18913237.2804   18913235.0304
      1762.8944
 04  9  8 16 54 59.9950000  0  5G20G11G23G25G 1
 -22175125.62948 -17272345.50845  19708446.4914   19708443.5814
      3495.4034
 -10648726.14548  -8273730.88745  20118202.8274   20118200.9254
      -455.1564
 -12448800.71548  -9628125.41044  20897225.3984   20897221.3584
      3752.7854
 -17573895.54349 -13662553.18746  19203137.2654   19203134.8314
       584.1164
 -20428811.91049 -15904388.02346  18908219.2184   18908216.9764
      1758.0524
 04  9  8 16 55 14.9950000  0  5G20G11G23G25G 1
 -22227491.50848 -17313150.08245  19698481.3434   19698478.7494
      3491.0594
 -10641786.78148  -8268323.62145  20119524.0624   20119521.5774
      -462.6244
 -12505044.88348  -9671952.03144  20886522.7654   20886518.0544
      3749.6114
 -17582532.06649 -13669282.94946  19201494.0694   19201491.3274
       575.7684
 -20455110.29349 -15924880.26246  18903214.8584   18903212.2414
      1753.2264
 04  9  8 16 55 29.9950000  0  5G20G11G23G25G 1
 -22279794.16448 -17353905.39845  19688528.8434   19688525.9684
      3486.8444
 -10634737.95748  -8262831.04345  20120865.4134   20120862.8784
      -469.9224
 -12561243.67648  -9715743.27744  20875827.6714   20875823.7654
      3746.5864
 -17591045.89549 -13675917.10946  19199873.5774   19199871.2574
       567.5894
 -20481338.67649 -15945317.95346  18898223.7574   18898221.4254
      1748.5594
 04  9  8 16 55 44.9950000  0  5G20G11G23G25G 1
 -22332032.22348 -17394610.37945  19678587.7804   19678584.8744
      3482.5374
 -10627578.72348  -8257252.43745  20122227.3514   20122225.1084
      -477.2824
 -12617395.93048  -9759498.23844  20865142.9684   20865137.7844
      3743.4844
 -17599436.02048 -13682454.85946  19198277.0854   19198274.5384
       559.3424
 -20507495.85249 -15965700.18446  18893246.0154   18893243.9174
      1743.8124
 04  9  8 16 55 59.9950000  0  5G20G11G23G25G 1
 -22384205.45348 -17435264.83645  19668659.9914   19668656.8744
      3478.2154
 -10620309.29348  -8251587.96545  20123610.0544   20123608.1594
      -484.6294
 -12673501.58648  -9803216.91444  20854465.5774   20854461.3474
      3740.3774
 -17607702.52049 -13688896.28146  19196704.2024   19196701.7304
       551.1004
 -20533581.99649 -15986027.03146  18888282.0074   18888279.7494
      1739.0764
 04  9  8 16 56 14.9950000  0  5G20G11G23G25G 1
 -22436313.10548 -17475868.19545  19658743.8984   19658740.8584
      3473.8434
 -10612929.54348  -8245837.51645  20125015.1084   20125012.9444
      -491.9834
 -12729559.96548  -9846898.77344  20843798.7184   20843793.8624
      3737.2254
 -17615845.00448 -13695241.08646  19195154.3984   19195152.3944
       542.8324
 -20559596.52049 -16006298.09446  18883331.7494   18883329.5154
      1734.3024
 04  9  8 16 56 29.9950000  0  5G20G11G23G25G 1
 -22488355.98848 -17516421.08245  19648840.3984   19648837.4764
      3469.5264
 -10605440.59048  -8240001.99644  20126440.7334   20126437.9834
      -499.2644
 -12785572.14548  -9890544.60244  20833139.6944   20833135.3004
      3734.1454
 -17623864.59848 -13701490.12546  19193628.6014   19193626.0584
       534.6404
 -20585540.55949 -16026514.21946  18878394.4444   18878392.2414
      1729.6034
 04  9  8 16 56 44.9950000  0  5G20G11G23G25G 1
 -22540333.95348 -17556923.39145  19638949.4914   19638946.3124
      3465.1984
 -10597842.90248  -8234081.74245  20127886.0464   20127883.5974
      -506.5124
 -12841538.20748  -9934154.50844  20822490.0854   20822485.3474
      3731.0714
 -17631761.62949 -13707643.66446  19192125.6714   19192122.8234
       526.4694
 -20611414.40249 -16046675.65646  18873470.9914   18873468.8664
      1724.9234
 04  9  8 16 56 59.9950000  0  5G20G11G23G25G 1
 -22592246.50448 -17597374.72345  19629070.9054   19629067.9484
      3460.8374
 -10590136.34048  -8228076.64145  20129352.4214   20129349.9684
      -513.7714
 -12897457.88748  -9977728.25444  20811848.5694   20811844.1984
      3727.9794
 -17639536.05948 -13713701.64846  19190645.7734   19190643.7374
       518.2954
 -20637217.72349 -16066782.13346  18868560.9294   18868558.8194
      1720.2214
 04  9  8 16 57 14.9950000  0  5G20G11G23G25G 1
 -22644093.51248 -17637774.97745  19619204.5234   19619201.7654
      3456.4674
 -10582321.37148  -8221987.06245  20130840.2264   20130837.5464
      -520.9984
 -12953331.05548 -10021265.76644  20801215.7574   20801211.6944
      3724.8784
 -17647188.09448 -13719664.28146  19189190.1324   19189187.8784
       510.1364
 -20662950.68749 -16086833.79346  18863664.0464   18863661.9764
      1715.5314
 04  9  8 16 57 29.9940000  0  5G20G11G23G25G 1
 -22695870.46548 -17678120.65245  19609351.7364   19609349.0254
      3451.7974
 -10574397.95348  -8215812.98045  20132347.2364   20132345.1664
      -528.2284
 -13009153.28548 -10064763.58644  20790593.7994   20790588.8654
      3721.4824
 -17654716.65648 -13725530.69946  19187757.4944   19187755.4204
       501.9044
 -20688610.96149 -16106828.80546  18858780.9474   18858778.5024
      1710.6854
 04  9  8 16 57 44.9940000  0  5G20G11G23G25G 1
 -22747584.58248 -17718417.35545  19599511.2054   19599508.1004
      3447.6084
 -10566365.94148  -8209554.29345  20133876.5654   20133873.7134
      -535.4674
 -13064932.48048 -10108227.87144  20779979.2684   20779974.4124
      3718.6134
 -17662123.48048 -13731302.24246  19186347.5254   19186345.3384
       493.7884
 -20714202.55549 -16126770.30546  18853910.9554   18853908.8774
      1706.1064
 04  9  8 16 57 59.9940000  0  5G20G11G23G25G 1
 -22799230.10248 -17758660.61345  19589683.0654   19589680.2524
      3443.0354
 -10558223.95348  -8203209.90245  20135425.5574   20135423.3184
      -542.7994
 -13120662.80548 -10151654.07444  20769373.7834   20769369.5574
      3715.3554
 -17669406.09048 -13736977.02346  19184962.2754   19184959.4284
       485.5074
 -20739721.75049 -16146655.39146  18849054.8544   18849052.6934
      1701.2804
 04  9  8 16 58 14.9940000  0  5G20G11G23G25G 1
 -22850809.38348 -17798852.25046  19579867.7054   19579864.9984
      3438.6194
 -10549974.90248  -8196782.09045  20136995.0804   20136992.6904
      -549.9374
 -13176346.81248 -10195044.20344  20758778.1044   20758772.9864
      3712.2674
 -17676567.17648 -13742557.09046  19183599.7754   19183597.0254
       477.4064
 -20765171.10549 -16166486.05546  18844211.8774   18844209.5924
      1696.6244
 04  9  8 16 58 29.9940000  0  5G20G11G23G25G 1
 -22902320.25048 -17838990.58246  19570065.6584   19570063.2404
      3434.0584
 -10541617.08648  -8190269.51245  20138585.5574   20138583.4084
      -557.1884
 -13231982.62548 -10238396.76644  20748190.9244   20748185.5224
      3709.0544
 -17683605.01649 -13748041.11746  19182260.2994   19182257.6704
       469.1894
 -20790548.82849 -16186260.90246  18839382.9084   18839380.7684
      1691.8484
 04  9  8 16 58 44.9940000  0  5G20G11G23G25G 1
 -22953762.89148 -17879075.75045  19560276.5104   19560273.8074
      3429.5094
 -10533151.15648  -8183672.70344  20140196.7754   20140194.2684
      -564.3954
 -13287570.52048 -10281711.98044  20737612.4004   20737608.1474
      3705.8604
 -17690520.27048 -13753429.62146  19180944.1824   19180942.2254
       461.0174
 -20815855.46949 -16205980.35946  18834567.3384   18834565.1474
      1687.1094
 04  9  8 16 58 59.9940000  0  5G20G11G23G25G 1
 -23005138.54748 -17919108.71946  19550499.9944   19550496.8654
      3425.0444
 -10524578.84848  -8176993.00445  20141828.0104   20141825.9674
      -571.4874
 -13343111.99248 -10324991.03544  20727043.0964   20727039.0924
      3702.7654
 -17697314.52749 -13758723.85946  19179651.6904   19179649.0654
       452.9514
 -20841092.53149 -16225645.60246  18829764.7364   18829762.5614
      1682.4714
 04  9  8 16 59 14.9940000  0  5G20G11G23G25G 1
 -23056446.01648 -17959088.55546  19540736.4714   19540733.4674
      3420.4984
 -10515899.62548  -8170229.98445  20143479.4794   20143476.9474
      -578.6154
 -13398605.98848 -10368233.08644  20716483.0964   20716478.3814
      3699.6004
 -17703987.07048 -13763923.24246  19178381.3154   19178379.3224
       444.8364
 -20866259.21149 -16245255.99647  18824975.9164   18824973.4284
      1677.7794
 04  9  8 16 59 29.9940000  0  5G20G11G23G25G 1
 -23107686.22349 -17999015.98046  19530986.4404   19530982.6474
      3416.0144
 -10507114.84449  -8163384.71544  20145151.1974   20145148.8114
      -585.6524
 -13454053.68748 -10411439.07044  20705931.8544   20705926.8424
      3696.5134
 -17710539.17648 -13769028.78146  19177134.4944   19177132.3694
       436.8074
 -20891356.71149 -16264812.48847  18820199.9164   18820197.5294
      1673.1674
 04  9  8 16 59 44.9940000  0  5G20G11G23G25G 1
 -23158858.96948 -18038890.84846  19521248.1904   19521245.1704
      3411.5164
 -10498224.75448  -8156457.39544  20146842.6274   20146839.8894
      -592.6734
 -13509455.11748 -10454609.00044  20695390.0724   20695384.1934
      3693.4294
 -17716970.96948 -13774040.57446  19175910.6504   19175908.6074
       428.7864
 -20916385.03149 -16284315.07846  18815437.0964   18815435.1154
      1668.5554
 04  9  8 16 59 59.9940000  0  5G20G11G23G25G 1
 -23209962.58249 -18078711.83645  19511523.1974   19511520.5844
      3406.9084
 -10489228.14848  -8149447.07044  20148555.0574   20148552.2644
      -599.7744
 -13564808.73847 -10497741.66844  20684855.3774   20684851.0254
      3690.2414
 -17723281.22749 -13778957.66046  19174709.8934   19174707.9514
       420.6844
 -20941342.88749 -16303762.75446  18810687.8304   18810685.8464
      1663.8574
 04  9  8 17  0 14.9940000  0  5G20G11G23G25G 1
 -23260995.90649 -18118478.05545  19501812.5964   19501808.9364
      3402.2224
 -10480124.67248  -8142353.46944  20150287.3384   20150284.7914
      -606.8984
 -13620113.60948 -10540836.35544  20674331.2684   20674326.7684
      3686.9914
 -17729469.31249 -13783779.54746  19173532.8224   19173529.9434
       412.5394
 -20966229.48449 -16323154.89846  18805952.1354   18805949.6974
      1659.1074
 04  9  8 17  0 29.9940000  0  5G20G11G23G25G 1
 -23311958.27349 -18158188.97745  19492114.0024   19492110.9244
      3397.4914
 -10470914.02048  -8135176.35244  20152039.8614   20152037.1904
      -614.0434
 -13675369.13747 -10583892.58644  20663817.0654   20663812.0764
      3683.7024
 -17735534.90249 -13788505.97746  19172378.4554   19172376.0924
       404.3734
 -20991044.33249 -16342491.14546  18801229.5964   18801227.6074
      1654.3234
 04  9  8 17  0 44.9940000  0  5G20G11G23G25G 1
 -23362850.25049 -18197845.06246  19482429.6744   19482426.9244
      3392.7984
 -10461597.30948  -8127916.59444  20153812.8774   20153809.5844
      -621.1144
 -13730576.17248 -10626911.04744  20653311.1504   20653306.7564
      3680.4694
 -17741479.06249 -13793137.79346  19171247.0964   19171245.0104
       396.2774
 -21015788.41849 -16361772.25446  18796520.9244   18796519.1354
      1649.6064
 04  9  8 17  0 59.9940000  0  5G20G11G23G25G 1
 -23413673.19149 -18237447.34445  19472758.5184   19472755.7214
      3388.1964
 -10452176.19148  -8120575.48044  20155605.9404   20155602.3154
      -628.0744
 -13785736.37948 -10669893.00444  20642814.7444   20642810.0724
      3677.3474
 -17747303.48049 -13797676.31246  19170138.9864   19170135.9714
       388.2954
 -21040463.39149 -16380999.50446  18791825.8694   18791823.6474
      1644.9984
 04  9  8 17  1 14.9940000  0  5G20G11G23G25G 1
 -23464426.17649 -18276995.11345  19463100.7914   19463097.3264
      3383.5324
 -10442650.39548  -8113152.80144  20157418.3774   20157415.6664
      -635.0534
 -13840849.13748 -10712837.98044  20632326.5724   20632322.5414
      3674.1844
 -17753007.85949 -13802121.27746  19169053.0104   19169050.7914
       380.2924
 -21065068.75849 -16400172.51646  18787143.1664   18787141.5884
      1640.3584
 04  9  8 17  1 29.9940000  0  5G20G11G23G25G 1
 -23515106.99649 -18316486.65646  19453456.5494   19453453.4244
      3378.7214
 -10433018.10948  -8105647.14845  20159252.0654   20159248.9084
      -642.1524
 -13895912.25048 -10755744.28944  20621848.3224   20621844.4904
      3670.8744
 -17758590.15249 -13806471.11746  19167991.1194   19167989.1394
       372.1534
 -21089602.45749 -16419289.67646  18782474.8614   18782472.8854
      1635.5804
 04  9  8 17  1 44.9940000  0  5G20G11G23G25G 1
 -23565714.37948 -18355920.97746  19443826.5024   19443823.3694
      3373.8264
 -10423278.68048  -8098058.00444  20161104.4474   20161102.6974
      -649.2954
 -13950924.52348 -10798610.99644  20611379.6274   20611375.8034
      3667.4854
 -17764049.48849 -13810725.15246  19166951.9084   19166949.5964
       363.9564
 -21114063.42249 -16438350.16046  18777819.7134   18777818.3504
      1630.7314
 04  9  8 17  1 59.9940000  0  5G20G11G23G25G 1
 -23616248.70748 -18395298.37546  19434209.6744   19434206.5184
      3368.9554
 -10413433.12148  -8090386.16044  20162978.9244   20162975.7174
      -656.3714
 -14005886.80147 -10841438.68744  20600920.7444   20600916.5224
      3664.1524
 -17769386.73849 -13814884.04746  19165936.3384   19165933.6624
       355.8174
 -21138452.49249 -16457354.63746  18773179.0334   18773177.0964
      1625.9384
 04  9  8 17  2 14.9940000  0  5G20G11G23G25G 1
 -23666710.53548 -18434619.27045  19424607.2994   19424603.8544
      3364.1224
 -10403482.28548  -8082632.29344  20164872.4864   20164869.5144
      -663.3894
 -14060799.57047 -10884227.85244  20590471.8384   20590467.0374
      3660.8514
 -17774602.83649 -13818948.53946  19164944.2294   19164941.7604
       347.7404
 -21162770.44149 -16476303.68446  18768551.4244   18768549.5334
      1621.1974
 04  9  8 17  2 29.9940000  0  5G20G11G23G25G 1
 -23717098.98848 -18473882.99246  19415018.6434   19415015.4514
      3359.2304
 -10393425.96148  -8074796.20344  20166785.3224   20166783.2874
      -670.4224
 -14115662.18048 -10926977.91044  20580031.4324   20580027.1974
      3657.5074
 -17779697.42249 -13822918.34846  19163974.2444   19163972.1664
       339.6394
 -21187016.67649 -16495196.84846  18763937.4324   18763935.5804
      1616.4164
 04  9  8 17  2 44.9940000  0  5G20G11G23G25G 1
 -23767414.97748 -18513090.25846  19405443.5494   19405440.2644
      3354.3994
 -10383265.64548  -8066879.09044  20168718.9714   20168716.5614
      -677.3544
 -14170475.96948 -10969689.93444  20569600.9714   20569596.6354
      3654.2534
 -17784671.82049 -13826794.51246  19163027.7134   19163025.8184
       331.6274
 -21211192.60549 -16514035.23846  18759337.0104   18759335.0654
      1611.7294
 04  9  8 17  2 59.9940000  0  5G20G11G23G25G 1
 -23817657.72748 -18552240.45746  19395882.8694   19395880.0494
      3349.5174
 -10373001.06648  -8058880.73844  20170672.4404   20170669.9124
      -684.3054
 -14225240.30148 -11012363.42644  20559179.5494   20559175.2874
      3650.9554
 -17789525.80949 -13830576.84446  19162104.4634   19162101.6664
       323.5994
 -21235297.73449 -16532818.44546  18754749.7054   18754747.7484
      1607.0094
 04  9  8 17  3 14.9940000  0  5G20G11G23G25G 1
 -23867827.14148 -18591333.49646  19386335.7524   19386332.7524
      3344.6284
 -10362632.52348  -8050801.36744  20172645.8614   20172643.1504
      -691.2364
 -14279955.25848 -11054998.42244  20548767.6194   20548763.1194
      3647.6644
 -17794259.48848 -13834265.42246  19161203.4244   19161201.0224
       315.5794
 -21259332.14549 -16551546.55947  18750176.2364   18750174.3344
      1602.2944
 04  9  8 17  3 29.9940000  0  5G20G11G23G25G 1
 -23917924.96948 -18630370.75846  19376802.3774   19376799.6194
      3339.8554
 -10352162.27048  -8042642.75444  20174638.1354   20174635.4944
      -698.0174
 -14334622.77748 -11097596.47344  20538364.7294   20538360.4904
      3644.5014
 -17798875.13349 -13837862.03146  19160324.9864   19160322.3574
       307.7104
 -21283298.00849 -16570221.25447  18745615.5804   18745613.7174
      1597.7244
 04  9  8 17  3 44.9940000  0  5G20G11G23G25G 1
 -23967948.73048 -18669350.31246  19367283.4714   19367280.3304
      3334.9174
 -10341588.38748  -8034403.38345  20176650.3154   20176647.9404
      -704.9264
 -14389240.70347 -11140155.85944  20527970.9164   20527967.1274
      3641.1954
 -17803370.68449 -13841365.06246  19159469.6354   19159466.9514
       299.7034
 -21307193.14549 -16588840.84846  18741068.7994   18741066.7524
      1593.0094
 04  9  8 17  3 59.9940000  0  5G20G11G23G25G 1
 -24017899.18048 -18708272.73846  19357778.2604   19357775.2604
      3330.0304
 -10330912.24248  -8026084.33244  20178681.8854   20178679.4474
      -711.7434
 -14443809.93747 -11182677.31644  20517586.4714   20517582.7644
      3637.9494
 -17807747.31648 -13844775.43046  19158637.3774   19158634.4984
       291.7764
 -21331018.66849 -16607406.18746  18736535.1044   18736532.8814
      1588.3684
 04  9  8 17  4 14.9940000  0  5G20G11G23G25G 1
 -24067778.16048 -18747139.48045  19348286.4164   19348283.5414
      3325.2654
 -10320136.27748  -8017687.50044  20180732.5884   20180730.0024
      -718.3984
 -14498332.40647 -11225162.35944  20507211.6044   20507207.6394
      3634.8314
 -17812007.31649 -13848094.90646  19157826.2914   19157823.7684
       284.0004
 -21354776.69949 -16625918.94146  18732013.8224   18732011.7524
      1583.8694
 04  9  8 17  4 29.9940000  0  5G20G11G23G25G 1
 -24117583.53949 -18785948.85946  19338808.7444   19338805.8184
      3320.3594
 -10309258.78548  -8009211.56244  20182802.0804   20182799.6904
      -725.1664
 -14552806.28948 -11267609.50844  20496845.4554   20496841.6114
      3631.5924
 -17816148.94149 -13851322.15246  19157038.1194   19157035.7994
       276.1084
 -21378465.40649 -16644377.67246  18727506.1904   18727503.9794
      1579.2474
 04  9  8 17  4 44.9940000  0  5G20G11G23G25G 1
 -24167314.94548 -18824700.60245  19329344.9864   19329342.2604
      3315.4274
 -10298279.90648  -8000656.59844  20184891.6584   20184889.2014
      -731.9254
 -14607231.32047 -11310018.62144  20486488.6824   20486484.7294
      3628.3354
 -17820172.27049 -13854457.21546  19156272.8074   19156269.8264
       268.2224
 -21402084.68749 -16662782.30947  18723011.6824   18723009.5334
      1574.6194
 04  9  8 17  4 59.9940000  0  5G20G11G23G25G 1
 -24216972.51248 -18863394.80146  19319895.6194   19319892.7254
      3310.5044
 -10287200.27748  -7992023.13744  20186999.3544   20186997.6624
      -738.6424
 -14661607.82448 -11352389.89844  20476141.5494   20476137.2834
      3625.1004
 -17824077.98449 -13857500.62546  19155528.9634   19155526.7404
       260.3814
 -21425634.99649 -16681133.19946  18718529.9474   18718527.6744
      1570.0214
 04  9  8 17  5 14.9940000  0  5G20G11G23G25G 1
 -24266556.94948 -18902032.02046  19310460.1584   19310456.9044
      3305.6294
 -10276021.21548  -7983312.18444  20189126.9004   20189124.6624
      -745.2714
 -14715936.77048 -11394724.11744  20465801.9944   20465798.5654
      3621.9304
 -17827867.10248 -13860453.18446  19154807.8224   19154805.9904
       252.6084
 -21449117.31649 -16699431.12146  18714061.8464   18714059.0574
      1565.4884
 04  9  8 17  5 29.9940000  0  5G20G11G23G25G 1
 -24316066.73848 -18940611.07446  19301038.4164   19301035.2834
      3300.6534
 -10264741.76248  -7974523.02345  20191274.0024   20191271.3774
      -751.9644
 -14770216.91048 -11437020.33644  20455473.5104   20455469.2214
      3618.6764
 -17831538.50049 -13863314.02046  19154109.4244   19154107.2404
       244.7604
 -21472530.59449 -16717675.22347  18709606.2524   18709603.7254
      1560.8854
 04  9  8 17  5 44.9940000  0  5G20G11G23G25G 1
 -24365502.75448 -18979132.64546  19291631.5104   19291627.9754
      3295.7344
 -10253363.24648  -7965656.66845  20193439.4474   20193436.7524
      -758.5684
 -14824449.41847 -11479279.39844  20445153.8384   20445149.0254
      3615.5014
 -17835093.55549 -13866084.21146  19153433.1824   19153430.1234
       237.0044
 -21495876.03149 -16735866.46146  18705163.6904   18705161.5294
      1556.3634
 04  9  8 17  5 59.9940000  0  5G20G11G23G25G 1
 -24414862.53949 -19017594.82045  19282238.5964   19282235.3544
      3290.6524
 -10241883.79348  -7956711.64545  20195623.5884   20195621.0924
      -765.2974
 -14878631.81248 -11521499.42644  20434842.9714   20434838.7914
      3612.1604
 -17838530.30149 -13868762.19146  19152779.0964   19152776.5804
       229.1164
 -21519151.37149 -16754003.09446  18700734.5574   18700732.0964
      1551.6894
 04  9  8 17  6 14.9940000  0  5G20G11G23G25G 1
 -24464146.67648 -19055998.02346  19272860.1664   19272857.0724
      3285.6094
 -10230304.37948  -7947688.75445  20197826.6274   20197824.8384
      -771.9614
 -14932764.95748 -11563681.08244  20424542.2054   20424537.5764
      3608.8764
 -17841849.59849 -13871348.65246  19152147.3384   19152145.3074
       221.2864
 -21542357.53149 -16772085.81646  18696318.3934   18696316.5654
      1547.0774
 04  9  8 17  6 29.9940000  0  5G20G11G23G25G 1
 -24513355.75048 -19094342.76246  19263495.0334   19263493.2254
      3280.6054
 -10218626.20348  -7938588.89545  20200048.9714   20200047.3504
      -778.5454
 -14986849.74248 -11605825.04744  20414250.0414   20414245.7404
      3605.6524
 -17845052.68449 -13873844.55546  19151537.4474   19151535.3574
       213.5394
 -21565495.44549 -16790115.37146  18691915.9244   18691912.8734
      1542.5284
 04  9  8 17  6 44.9940000  0  5G20G11G23G25G 1
 -24562488.84849 -19132628.28146  19254145.9324   19254143.1474
      3275.5404
 -10206849.05548  -7929411.91445  20202290.5494   20202288.5684
      -785.1434
 -15040885.39148 -11647930.73444  20403967.2994   20403962.7874
      3602.3774
 -17848138.86749 -13876249.37947  19150950.4554   19150948.1864
       205.7464
 -21588564.54349 -16808091.29346  18687525.5254   18687523.1194
      1537.9404
 04  9  8 17  6 59.9940000  0  5G20G11G23G25G 1
 -24611547.00449 -19170855.41846  19244810.2994   19244807.5684
      3270.5444
 -10194974.36748  -7920158.92645  20204549.7914   20204547.8504
      -791.6464
 -15094873.08648 -11689999.04344  20393693.3154   20393689.5144
      3599.1804
 -17851109.62549 -13878564.27346  19150385.3074   19150383.0294
       198.0514
 -21611566.11349 -16826014.58646  18683148.5334   18683146.2294
      1533.4384
 04  9  8 17  7 14.9940000  0  5G20G11G23G25G 1
 -24660529.19548 -19209023.34846  19235489.2754   19235486.8694
      3265.4794
 -10183001.60548  -7910829.51645  20206828.7294   20206826.0614
      -798.1844
 -15148811.89548 -11732029.26244  20383429.3464   20383425.4244
      3595.9214
 -17853964.55149 -13880788.88746  19149841.7684   19149839.3894
       190.3284
 -21634499.36749 -16843884.66046  18678784.5414   18678782.3544
      1528.8844
 04  9  8 17  7 29.9940000  0  5G20G11G23G25G 1
 -24709435.99249 -19247132.53546  19226182.8544   19226179.7604
      3260.4534
 -10170931.86348  -7901424.53144  20209125.4404   20209123.3114
      -804.6494
 -15202702.78148 -11774022.12544  20373174.1664   20373169.7404
      3592.7264
 -17856704.57049 -13882923.97346  19149320.4084   19149318.1474
       182.6684
 -21657365.28149 -16861702.25046  18674433.4404   18674430.9404
      1524.3944
 04  9  8 17  7 44.9940000  0  5G20G11G23G25G 1
 -24758268.04749 -19285183.48446  19216890.1744   19216887.3184
      3255.4704
 -10158766.36748  -7891944.93044  20211440.4084   20211438.2794
      -811.0334
 -15256546.48448 -11815978.26644  20362928.2214   20362923.8184
      3589.5804
 -17859330.83649 -13884970.41446  19148820.5334   19148818.2794
       175.0844
 -21680164.75849 -16879468.08246  18670094.3774   18670092.2524
      1519.9654
 04  9  8 17  7 59.9940000  0  5G20G11G23G25G 1
 -24807021.69949 -19323173.33646  19207612.6974   19207609.8304
      3250.2434
 -10146502.14548  -7882388.42245  20213773.9794   20213772.4984
      -817.6154
 -15310339.84048 -11857895.13344  20352691.0724   20352687.2364
      3586.2244
 -17861840.14549 -13886925.73046  19148343.3464   19148341.0374
       167.2874
 -21702894.61349 -16897179.65246  18665769.4244   18665767.2484
      1515.3244
 04  9  8 17  8 14.9940000  0  5G20G11G23G25G 1
 -24855698.75049 -19361103.50046  19198349.8544   19198346.8614
      3245.1374
 -10134141.39148  -7872756.69144  20216126.3154   20216124.5294
      -824.0504
 -15364084.57848 -11899774.13344  20342464.5254   20342459.4324
      3582.9834
 -17864234.57049 -13888791.52347  19147887.4474   19147885.0764
       159.6284
 -21725556.81249 -16914838.51246  18661456.7294   18661454.8304
      1510.8134
 04  9  8 17  8 29.9940000  0  5G20G11G23G25G 1
 -24904298.45749 -19398973.39546  19189101.7214   19189098.8034
      3239.9804
 -10121683.94948  -7863049.61344  20218497.3154   20218494.8854
      -830.4964
 -15417780.23848 -11941614.89144  20332246.1044   20332241.8574
      3579.7114
 -17866513.91049 -13890567.62946  19147453.6434   19147451.2994
       151.9564
 -21748150.93749 -16932444.32847  18657157.1584   18657155.3034
      1506.2754
 04  9  8 17  8 44.9940000  0  5G20G11G23G25G 1
 -24952821.39549 -19436783.45746  19179868.0884   19179865.1504
      3234.8634
 -10109130.93448  -7853268.05944  20220885.6434   20220883.6074
      -836.8684
 -15471427.66048 -11983418.05944  20322038.4004   20322033.1904
      3576.4954
 -17868679.26649 -13892254.92246  19147041.7364   19147039.1934
       144.3574
 -21770677.96549 -16949997.85546  18652870.5024   18652868.3694
      1501.8024
 04  9  8 17  8 59.9940000  0  5G20G11G23G25G 1
 -25001266.65249 -19474533.01246  19170649.1274   19170646.2604
      3229.6844
 -10096481.84448  -7843411.64144  20223292.5494   20223290.5414
      -843.2734
 -15525025.97748 -12025182.96544  20311838.5254   20311833.9124
      3573.2214
 -17870730.07449 -13893852.94946  19146651.1974   19146649.6114
       136.7214
 -21793137.11349 -16967498.49247  18648597.0184   18648594.6394
      1497.2774
 04  9  8 17  9 14.9940000  0  5G20G11G23G25G 1
 -25049634.09449 -19512221.93046  19161445.4864   19161442.4754
      3224.4964
 -10083737.27348  -7833480.82444  20225717.8464   20225715.8934
      -849.6384
 -15578575.37548 -12066909.75044  20301648.2294   20301643.7954
      3569.9604
 -17872666.75849 -13895362.06246  19146283.0884   19146280.9944
       129.1124
 -21815528.77749 -16984946.53946  18644335.6194   18644333.3774
      1492.7784
 04  9  8 17  9 29.9940000  0  5G20G11G23G25G 1
 -25097923.47749 -19549850.01646  19152256.2054   19152253.6004
      3219.2924
 -10070897.46948  -7823475.80544  20228161.0804   20228159.1784
      -855.9874
 -15632075.76648 -12108598.35244  20291467.4864   20291462.7294
      3566.6934
 -17874489.41848 -13896782.32846  19145936.1354   19145934.0024
       121.5114
 -21837852.96149 -17002342.01247  18640087.6044   18640085.3224
      1488.2794
 04  9  8 17  9 44.9940000  0  5G20G11G23G25G 1
 -25146134.40249 -19587416.97346  19143082.1974   19143079.3694
      3214.0624
 -10057962.68748  -7813396.78144  20230623.1744   20230620.8464
      -862.3194
 -15685527.03548 -12150248.66044  20281295.7914   20281291.3184
      3563.4184
 -17876198.33249 -13898113.95346  19145610.9244   19145608.4364
       113.9284
 -21860109.67649 -17019684.89846  18635852.4634   18635850.1544
      1483.7814
 04  9  8 17  9 59.9940000  0  5G20G11G23G25G 1
 -25194266.96549 -19624922.84846  19133922.1824   19133920.0224
      3208.8384
 -10044933.39148  -7803244.10244  20233101.7294   20233100.2484
      -868.6204
 -15738929.39548 -12191860.89544  20271134.1974   20271129.2054
      3560.1574
 -17877793.74249 -13899357.12946  19145307.3464   19145304.7874
       106.3614
 -21882299.15249 -17036975.40646  18631629.8694   18631627.7134
      1479.2984
 04  9  8 17 10 14.9940000  0  5G20G11G23G25G 1
 -25242319.43749 -19662366.32446  19124778.7834   19124775.8184
      3203.4984
 -10031808.37148  -7793016.82044  20235599.4474   20235597.4284
      -875.0014
 -15792281.36348 -12233433.82844  20260980.6504   20260976.7294
      3556.7984
 -17879274.43049 -13900510.91046  19145025.7834   19145023.0334
        98.7134
 -21904420.08649 -17054212.49246  18627420.4944   18627418.0334
      1474.7294
 04  9  8 17 10 29.9940000  0  5G20G11G23G25G 1
 -25290292.93049 -19699748.26246  19115649.3694   19115646.5024
      3198.2334
 -10018589.37948  -7782716.34044  20238115.2914   20238113.0804
      -881.2664
 -15845584.40648 -12274968.65244  20250838.0654   20250832.9944
      3553.5364
 -17880642.00449 -13901576.55946  19144765.2754   19144762.7994
        91.1724
 -21926473.90649 -17071397.28947  18623223.5254   18623221.4824
      1470.2554
 04  9  8 17 10 44.9940000  0  5G20G11G23G25G 1
 -25338186.82049 -19737068.16846  19106535.1504   19106533.0454
      3192.9264
 -10005276.37948  -7772342.58644  20240648.7444   20240646.3114
      -887.5334
 -15898837.93048 -12316464.88744  20240703.6974   20240699.7954
      3550.2354
 -17881896.29749 -13902553.92246  19144526.5184   19144524.3654
        83.6204
 -21948460.31249 -17088529.55547  18619039.7834   18619037.4984
      1465.7604
 04  9  8 17 10 59.9940000  0  5G20G11G23G25G 1
 -25386003.02049 -19774327.54346  19097436.2524   19097433.7014
      3187.7474
  -9991871.74648  -7761897.42644  20243199.6744   20243196.9864
      -893.6424
 -15952044.09048 -12357924.21544  20230579.4004   20230574.9634
      3547.0774
 -17883039.53949 -13903444.77046  19144309.4864   19144307.2954
        76.2164
 -21970381.46149 -17105610.96946  18614868.6194   18614866.1934
      1461.4104
 04  9  8 17 11 14.9940000  0  5G20G11G23G25G 1
 -25433739.25049 -19811524.60546  19088352.6744   19088349.7644
      3182.4154
  -9978373.76248  -7751379.53944  20245767.9864   20245765.5224
      -899.8664
 -16005200.83648 -12399345.05544  20220463.8694   20220459.4554
      3543.7834
 -17884070.04349 -13904247.75446  19144112.9714   19144110.9364
        68.7004
 -21992235.42249 -17122640.03546  18610709.8854   18610707.4124
      1456.9314
 04  9  8 17 11 29.9940000  0  5G20G11G23G25G 1
 -25481395.30149 -19848659.19546  19079283.7054   19079281.5024
      3177.0704
  -9964782.85548  -7740789.23844  20248354.0804   20248352.2954
      -906.0604
 -16058308.25048 -12440727.42645  20210358.4714   20210353.4984
      3540.4944
 -17884988.01649 -13904963.05946  19143938.3614   19143936.1934
        61.1984
 -22014022.27749 -17139616.79747  18606563.5574   18606561.2954
      1452.4574
 04  9  8 17 11 44.9940000  0  5G20G11G23G25G 1
 -25528971.69949 -19885731.70746  19070230.3224   19070227.6544
      3171.7604
  -9951099.92648  -7730127.23444  20250958.0494   20250955.8614
      -912.1954
 -16111366.82048 -12482071.75044  20200261.0574   20200256.6314
      3537.2384
 -17885794.39549 -13905591.41846  19143785.1974   19143783.0224
        53.7594
 -22035742.79349 -17156541.87547  18602430.4634   18602428.6154
      1448.0344
 04  9  8 17 11 59.9940000  0  5G20G11G23G25G 1
 -25576466.81249 -19922740.87546  19061192.4004   19061189.7294
      3166.3414
  -9937323.99248  -7719392.76644  20253579.6584   20253577.2294
      -918.3964
 -16164375.20748 -12523376.98444  20190173.7134   20190169.2954
      3533.8924
 -17886488.12949 -13906131.99246  19143652.5724   19143650.4044
        46.2494
 -22057395.75049 -17173414.31647  18598309.8694   18598307.7444
      1443.5304
 04  9  8 17 12 14.9940000  0  5G20G11G23G25G 1
 -25623883.19149 -19959688.71146  19052169.0104   19052166.5964
      3161.0924
  -9923458.19148  -7708588.27044  20256218.5494   20256215.7214
      -924.3874
 -16217336.27748 -12564645.32844  20180095.8304   20180091.1354
      3530.7384
 -17887072.26649 -13906587.16046  19143541.5414   19143539.1474
        38.9424
 -22078984.07049 -17190236.37547  18594202.0964   18594199.5534
      1439.2214
 04  9  8 17 12 29.9940000  0  5G20G11G23G25G 1
 -25671217.66449 -19996572.71546  19043161.9714   19043159.3384
      3155.6324
  -9909499.90648  -7697711.70344  20258874.3304   20258872.4204
      -930.5524
 -16270247.04748 -12605874.48444  20170026.8934   20170022.9204
      3527.3854
 -17887543.96549 -13906954.72346  19143451.9084   19143449.6394
        31.4474
 -22100504.80149 -17207005.78146  18590106.1504   18590104.2214
      1434.7154
 04  9  8 17 12 44.9940000  0  5G20G11G23G25G 1
 -25718470.27349 -20033392.92246  19034170.2994   19034167.2954
      3150.1744
  -9895449.81248  -7686763.59444  20261547.5104   20261545.8654
      -936.6734
 -16323107.80548 -12647064.67245  20159968.0574   20159963.5844
      3524.0514
 -17887903.83249 -13907235.14146  19143383.3384   19143381.1904
        23.9914
 -22121958.34049 -17223722.82447  18586024.2444   18586022.0024
      1430.2364
 04  9  8 17 12 59.9940000  0  5G20G11G23G25G 1
 -25765642.82049 -20070150.74246  19025193.3614   19025190.9044
      3144.8364
  -9881310.02748  -7675745.61344  20264238.9244   20264236.5294
      -942.6524
 -16375920.38348 -12688217.30145  20149918.5024   20149913.5964
      3520.8394
 -17888153.88349 -13907429.98446  19143335.5724   19143333.3264
        16.6704
 -22143346.74249 -17240389.11346  18581954.1434   18581951.5334
      1425.8934
 04  9  8 17 13 14.9940000  0  5G20G11G23G25G 1
 -25812733.16449 -20106844.51246  19016232.2834   19016229.2794
      3139.3564
  -9867079.09848  -7664656.58644  20266947.0104   20266944.6744
      -948.7294
 -16428682.96948 -12729330.98844  20139877.5804   20139873.2324
      3517.5064
 -17888292.61749 -13907538.09046  19143309.1744   19143307.4824
         9.2494
 -22164668.19549 -17257003.22747  18577896.7684   18577894.5334
      1421.4304
 04  9  8 17 13 29.9940000  0  5G20G11G23G25G 1
 -25859741.64549 -20143474.48846  19007287.0024   19007284.2524
      3133.8994
  -9852757.91048  -7653497.26244  20269672.5494   20269669.6544
      -954.7464
 -16481396.07848 -12770406.12144  20129847.4474   20129842.3504
      3514.2074
 -17888320.86749 -13907560.10946  19143304.2754   19143301.5844
         1.8834
 -22185923.39849 -17273565.73047  18573852.1584   18573849.8654
      1417.0144
 04  9  8 17 13 44.9940000  0  5G20G11G23G25G 1
 -25906668.35949 -20180040.75446  18998357.1744   18998354.2564
      3128.4484
  -9838347.23848  -7642268.18744  20272414.4714   20272412.0454
      -960.7114
 -16534060.04748 -12811442.96945  20119825.1114   20119820.8504
      3510.9314
 -17888239.07849 -13907496.37546  19143319.6434   19143317.0294
        -5.4534
 -22207112.70349 -17290076.87546  18569819.6904   18569817.6114
      1412.6204
 04  9  8 17 13 59.9940000  0  5G20G11G23G25G 1
 -25953512.09849 -20216542.35546  18989442.8934   18989440.2874
      3122.9164
  -9823846.39548  -7630968.84444  20275173.8154   20275171.4164
      -966.7234
 -16586673.99649 -12852440.84445  20109813.5884   20109808.9794
      3507.5974
 -17888046.60249 -13907346.41046  19143356.5254   19143354.1824
       -12.8324
 -22228235.39549 -17306536.11347  18565800.1504   18565797.8264
      1408.1794
 04  9  8 17 14 14.9940000  0  5G20G11G23G25G 1
 -26000273.11749 -20252979.52046  18980544.6354   18980541.7604
      3117.4014
  -9809255.96148  -7619599.69944  20277950.1274   20277947.8574
      -972.6964
 -16639238.35248 -12893400.06244  20099810.0964   20099806.2794
      3504.2904
 -17887744.20749 -13907110.77346  19143413.5494   19143411.6824
       -20.1604
 -22249291.84049 -17322943.74246  18561793.4004   18561791.3544
      1403.7634
 04  9  8 17 14 29.9940000  0  5G20G11G23G25G 1
 -26046952.57449 -20289353.11346  18971661.7134   18971658.6864
      3111.9644
  -9794577.78548  -7608162.17644  20280743.8384   20280740.9714
      -978.5454
 -16691754.33648 -12934321.59045  20089816.9164   20089812.7524
      3501.0664
 -17887333.43049 -13906790.69546  19143492.1904   19143489.6474
       -27.3854
 -22270283.53549 -17339300.90646  18557798.6584   18557796.4824
      1399.4464
 04  9  8 17 14 44.9940000  0  5G20G11G23G25G 1
 -26093548.85549 -20325661.90246  18962795.1664   18962791.9554
      3106.4194
  -9779810.71948  -7596655.37944  20283553.6584   20283550.9404
      -984.4714
 -16744220.54748 -12975204.32845  20079832.8854   20079828.0684
      3497.7474
 -17886813.05549 -13906385.21546  19143591.2054   19143588.3074
       -34.6924
 -22291209.18449 -17355606.60246  18553816.5414   18553814.8304
      1395.0434
 04  9  8 17 14 59.9940000  0  5G20G11G23G25G 1
 -26140061.24249 -20361905.32046  18953943.6744   18953940.8224
      3100.8264
  -9764954.64548  -7585079.23844  20286380.4244   20286378.2364
      -990.4054
 -16796636.45748 -13016047.88744  20069858.8304   20069853.9984
      3494.3944
 -17886182.77749 -13905894.08646  19143711.0184   19143708.0254
       -42.0184
 -22312068.39549 -17371860.53946  18549847.4324   18549845.1114
      1390.6144
 04  9  8 17 15 14.9940000  0  5G20G11G23G25G 1
 -26186490.23849 -20398083.76246  18945109.2364   18945106.0184
      3095.2664
  -9750010.86748  -7573434.76244  20289224.7994   20289222.5684
      -996.2524
 -16849002.83649 -13056852.84444  20059893.5104   20059888.8614
      3491.0924
 -17885443.69149 -13905318.17646  19143851.8544   19143849.3184
       -49.2724
 -22332862.03549 -17388063.36346  18545890.5804   18545888.4824
      1386.2434
 04  9  8 17 15 29.9940000  0  5G20G11G23G25G 1
 -26232835.92649 -20434197.27746  18936289.2524   18936286.5964
      3089.7134
  -9734979.90248  -7561722.34844  20292084.3544   20292082.8154
     -1002.0644
 -16901320.02049 -13097619.45745  20049938.2604   20049933.1904
      3487.8124
 -17884596.43049 -13904657.96946  19144012.5724   19144011.0334
       -56.4844
 -22353590.50449 -17404215.43046  18541945.9554   18541943.8424
      1381.8984
 04  9  8 17 15 44.9940000  0  5G20G11G23G25G 1
 -26279096.77349 -20470244.68446  18927486.1824   18927483.2794
      3084.0574
  -9719860.77748  -7549941.21944  20294962.0964   20294959.8224
     -1007.9424
 -16953586.71548 -13138346.73845  20039992.0024   20039987.4124
      3484.4464
 -17883639.78549 -13903912.54346  19144194.5024   19144192.6934
       -63.7764
 -22374252.59449 -17420315.75846  18538014.1114   18538012.3224
      1377.4734
 04  9  8 17 15 59.9940000  0  5G20G11G23G25G 1
 -26325272.19149 -20506225.52746  18918699.0804   18918696.6624
      3078.3614
  -9704653.37948  -7538091.32844  20297855.9084   20297853.8734
     -1013.8274
 -17005802.45748 -13179034.30945  20030055.5184   20030051.1504
      3481.0494
 -17882573.75449 -13903081.87146  19144397.4244   19144395.4984
       -71.0694
 -22394848.03949 -17436364.15647  18534094.9084   18534093.0374
      1373.0304
 04  9  8 17 16 14.9940000  0  5G20G11G23G25G 1
 -26371363.45349 -20542140.78946  18909928.7214   18909926.0684
      3072.7514
  -9689359.58248  -7526174.10944  20300765.7214   20300763.8934
     -1019.5864
 -17057968.66048 -13219683.28945  20020128.1974   20020124.3504
      3477.7474
 -17881400.00449 -13902167.27746  19144621.2524   19144619.0804
       -78.2504
 -22415378.39549 -17452361.84447  18530187.8154   18530186.2604
      1368.6904
 04  9  8 17 16 29.9940000  0  5G20G11G23G25G 1
 -26417368.64149 -20577988.97746  18901173.9404   18901170.9474
      3067.0124
  -9673977.94148  -7514188.43044  20303692.6584   20303691.1194
     -1025.4434
 -17110083.67248 -13260292.38345  20010211.4004   20010206.9364
      3474.3344
 -17880117.07049 -13901167.59446  19144864.9794   19144863.0064
       -85.5294
 -22435842.02049 -17468307.52747  18526294.1114   18526292.0334
      1364.2424
 04  9  8 17 16 44.9940000  0  5G20G11G23G25G 1
 -26463290.33649 -20613772.10946  18892435.1114   18892432.6044
      3061.4464
  -9658511.71548  -7502136.83644  20306635.8224   20306634.0804
     -1031.0824
 -17162150.33248 -13300863.78944  20000303.3384   20000298.8154
      3471.1114
 -17878727.95749 -13900085.18446  19145129.7444   19145127.2954
       -92.6084
 -22456241.81249 -17484203.47346  18522411.7134   18522410.3384
      1359.9864
 04  9  8 17 16 59.9940000  0  5G20G11G23G25G 1
 -26509126.14849 -20649488.33246  18883713.0724   18883710.1824
      3055.7214
  -9642958.98048  -7490017.83244  20309595.2914   20309593.4324
     -1036.8494
 -17214166.48048 -13341395.82845  19990405.1114   19990400.4554
      3467.7434
 -17877230.78149 -13898918.54746  19145414.6904   19145412.2014
       -99.8124
 -22476575.71949 -17500048.08247  18518542.5414   18518540.4554
      1355.5944
 04  9  8 17 17 14.9940000  0  5G20G11G23G25G 1
 -26554876.49649 -20685137.94946  18875007.2604   18875004.1824
      3050.0234
  -9627320.69548  -7477832.18044  20312571.1744   20312569.7644
     -1042.5524
 -17266132.58248 -13381888.87144  19980515.7914   19980511.6234
      3464.4074
 -17875626.52049 -13897668.48846  19145720.0104   19145717.3224
      -106.9514
 -22496844.46549 -17515841.90647  18514685.8224   18514683.8224
      1351.2504
 04  9  8 17 17 29.9940000  0  5G20G11G23G25G 1
 -26600542.39849 -20720721.76246  18866317.4244   18866314.1314
      3044.3934
  -9611598.55948  -7465581.18444  20315562.8304   20315561.7014
     -1048.1424
 -17318049.97748 -13422343.96944  19970636.4404   19970631.8184
      3461.1604
 -17873916.66049 -13896336.12946  19146045.6194   19146042.7174
      -113.9914
 -22517049.32849 -17531585.95746  18510841.0494   18510838.8774
      1346.9914
 04  9  8 17 17 44.9930000  0  5G20G11G23G25G 1
 -26646118.13749 -20756235.31246  18857644.4824   18857641.2204
      3038.3834
  -9595791.51648  -7453264.03544  20318571.4424   20318569.8374
     -1053.8034
 -17369912.73848 -13462756.49244  19960767.5834   19960762.9854
      3457.5174
 -17872099.01649 -13894919.79346  19146391.1384   19146388.6224
      -121.1764
 -22537186.69149 -17547277.41046  18507008.5754   18507006.9074
      1342.4914
 04  9  8 17 17 59.9930000  0  5G20G11G23G25G 1
 -26691610.59449 -20791683.98846  18848987.7554   18848984.4934
      3032.8304
  -9579898.77748  -7440880.10244  20321595.4354   20321594.3144
     -1059.5164
 -17421728.85948 -13503132.66844  19950907.2244   19950902.2004
      3454.4084
 -17870174.61749 -13893420.26246  19146757.1614   19146755.2164
      -128.2934
 -22557260.30149 -17562919.18746  18503189.1074   18503186.5644
      1338.2414
 04  9  8 17 18 14.9930000  0  5G20G11G23G25G 1
 -26737015.91449 -20827064.74246  18840347.2554   18840344.0054
      3027.0214
  -9563921.15648  -7428430.02344  20324636.4424   20324634.7514
     -1065.1754
 -17473494.19948 -13543469.29344  19941056.5214   19941051.7434
      3451.0234
 -17868143.27749 -13891837.41046  19147143.7554   19147141.3574
      -135.4234
 -22577268.31649 -17578509.84846  18499381.4824   18499379.6104
      1333.8684
 04  9  8 17 18 29.9930000  0  5G20G11G23G25G 1
 -26782333.18049 -20862376.89846  18831723.7784   18831720.7634
      3021.1514
  -9547858.31248  -7415913.53944  20327692.2004   20327691.6184
     -1070.8564
 -17525208.05148 -13583765.79344  19931214.6304   19931210.6924
      3447.5904
 -17866004.58249 -13890170.90646  19147551.0444   19147548.3334
      -142.5804
 -22597210.19549 -17594048.96946  18495586.6854   18495584.6264
      1329.4594
 04  9  8 17 18 44.9930000  0  5G20G11G23G25G 1
 -26827563.85949 -20897621.58646  18823116.2084   18823113.0644
      3015.3794
  -9531712.25448  -7403332.24644  20330765.1694   20330763.5484
     -1076.4044
 -17576872.13348 -13624023.50044  19921384.2784   19921379.3494
      3444.2724
 -17863760.41049 -13888422.19946  19147977.7474   19147975.7714
      -149.6114
 -22617087.66049 -17609537.90647  18491804.0284   18491802.1494
      1325.1644
 04  9  8 17 18 59.9930000  0  5G20G11G23G25G 1
 -26872708.29349 -20932799.06646  18814525.4974   18814522.3414
      3009.6294
  -9515483.95748  -7390686.84044  20333852.9584   20333852.0014
     -1081.8864
 -17628487.02348 -13664242.88344  19911561.8254   19911557.6344
      3440.9934
 -17861411.62549 -13886591.98846  19148425.0604   19148422.0874
      -156.5864
 -22636901.41849 -17624977.19946  18488033.6854   18488031.8374
      1320.9174
 04  9  8 17 19 14.9930000  0  5G20G11G23G25G 1
 -26917766.50849 -20967909.35546  18805951.3494   18805948.5484
      3003.8814
  -9499173.83648  -7377977.67244  20336957.4744   20336955.6104
     -1087.3414
 -17680052.80548 -13704424.00444  19901749.5604   19901745.1074
      3437.7194
 -17858958.55549 -13884680.52046  19148891.9274   19148889.4624
      -163.5384
 -22656651.73049 -17640367.05947  18484275.9114   18484273.5834
      1316.6884
 04  9  8 17 19 29.9930000  0  5G20G11G23G25G 1
 -26962736.95349 -21002951.25846  18797393.8574   18797390.8884
      2998.0304
  -9482781.06648  -7365204.10244  20340076.4824   20340074.8924
     -1092.8514
 -17731568.19948 -13744565.86344  19891946.5284   19891942.1224
      3434.3604
 -17856400.30549 -13882687.08246  19149378.8494   19149375.9664
      -170.5504
 -22676337.39149 -17655706.52747  18480529.2394   18480527.4074
      1312.3774
 04  9  8 17 19 44.9930000  0  5G20G11G23G25G 1
 -27007620.25049 -21037925.25446  18788852.4354   18788850.1034
      2992.2204
  -9466306.78548  -7352367.00444  20343211.5604   20343209.7864
     -1098.2854
 -17783034.05148 -13784669.10944  19882152.8334   19882148.7554
      3431.0574
 -17853738.02049 -13880612.57846  19149885.0604   19149882.8924
      -177.4864
 -22695959.32449 -17670996.34847  18476795.4974   18476793.7394
      1308.1294
 04  9  8 17 19 59.9930000  0  5G20G11G23G25G 1
 -27052415.06649 -21072830.29746  18780328.5054   18780326.1574
      2986.3214
  -9449750.27748  -7339465.86744  20346362.4274   20346360.4544
     -1103.7674
 -17834449.34848 -13824732.98045  19872369.0134   19872364.0094
      3427.6864
 -17850970.82449 -13878456.32846  19150411.5524   19150409.5644
      -184.4804
 -22715516.59449 -17686235.77746  18473073.7004   18473071.9894
      1303.8184
 04  9  8 17 20 14.9930000  0  6G20G11G16G23G25G 1
 -27097121.89549 -21107666.77746  18771821.3174   18771818.4784
      2980.4554
  -9433112.55948  -7326501.42644  20349528.5834   20349526.5524
     -1109.1814
   -154112.25056   -104995.05952  22131122.9974   22131122.3214

 -17885814.69148 -13864757.90245  19862594.6774   19862590.0714
      3424.3564
 -17848099.66449 -13876219.07046  19150958.2864   19150955.4704
      -191.4114
 -22735009.90249 -17701425.37146  18469364.6924   18469362.6614
      1299.5544
 04  9  8 17 20 29.9930000  0  6G20G11G16G23G25G 1
 -27141740.12949 -21142434.23446  18763330.5604   18763327.7594
      2974.5494
  -9416393.64548  -7313473.73044  20352710.0914   20352708.5564
     -1114.5944
   -219149.53546   -155673.42642  22118747.1924   22118746.5444
      4335.8194
 -17937129.62149 -13904743.54345  19852829.8174   19852825.0564
      3420.9954
 -17845124.29349 -13873900.60946  19151524.3644   19151522.2284
      -198.3584
 -22754438.93449 -17716564.87547  18465666.8174   18465665.1034
      1295.2694
 04  9  8 17 20 44.9930000  0  6G20G11G16G23G25G 1
 -27186272.71149 -21177134.93746  18754856.2244   18754853.5794
      2968.8394
  -9399596.89548  -7300385.36344  20355905.4824   20355904.7714
     -1119.7834
   -284169.52746   -206338.34042  22106373.6854   22106373.4584
      4334.6664
 -17988397.24649 -13944692.33645  19843073.7864   19843069.1104
      3417.8424
 -17842048.02349 -13871503.53146  19152109.7474   19152107.4974
      -205.0854
 -22773806.86349 -17731656.77346  18461981.7944   18461980.0324
      1291.1954
 04  9  8 17 20 59.9930000  0  6G20G11G16G23G25G 1
 -27230716.19949 -21211766.23046  18746398.9034   18746396.2324
      2962.8994
  -9382719.62548  -7287234.27344  20359117.4584   20359115.8844
     -1125.1514
   -349168.85246   -256987.12542  22094004.9744   22094004.0674
      4333.2884
 -18039614.44948 -13984601.84445  19833327.8964   19833322.8644
      3414.4804
 -17838868.08249 -13869025.65646  19152714.7554   19152712.2554
      -211.9964
 -22793110.64849 -17746698.68047  18458308.0364   18458306.1344
      1286.9194
 04  9  8 17 21 14.9930000  0  6G20G11G16G23G25G 1
 -27275071.04749 -21246328.44946  18737958.8414   18737955.3764
      2956.9904
  -9365762.72748  -7274021.14544  20362345.0054   20362342.8964
     -1130.4604
   -414147.66447   -307619.91442  22081640.1774   22081638.9034
      4331.9214
 -18090781.90249 -14024472.57845  19823591.1384   19823586.0054
      3411.1644
 -17835585.42649 -13866467.75446  19153339.7164   19153337.6144
      -218.8444
 -22812351.14149 -17761691.27347  18454646.6774   18454644.9894
      1282.6994
 04  9  8 17 21 29.9930000  0  6G20G11G16G23G25G 1
 -27319338.48849 -21280822.55146  18729534.7084   18729531.5674
      2951.1634
  -9348728.03948  -7260747.37144  20365586.3724   20365584.0134
     -1135.6464
   -479107.13347   -358237.66042  22069278.9504   22069276.2514
      4330.6314
 -18141901.08648 -14064305.70345  19813863.2634   19813858.4154
      3407.9464
 -17832201.63749 -13863831.04746  19153983.5284   19153981.1654
      -225.5864
 -22831529.81649 -17776635.69146  18450997.0134   18450995.4504
      1278.5784
 04  9  8 17 21 44.9930000  0  6G20G11G16G23G25G 1
 -27363517.62949 -21315247.85546  18721127.4974   18721124.7124
      2945.2764
  -9331615.17648  -7247412.71144  20368842.7864   20368841.0214
     -1140.8584
   -544046.16047   -408839.44542  22056920.0754   22056920.1074
      4329.2684
 -18192971.19949 -14104100.58245  19804144.9114   19804139.9824
      3404.6744
 -17828716.37549 -13861115.25446  19154646.8104   19154644.2904
      -232.3514
 -22850646.06649 -17791531.47346  18447359.7324   18447357.7164
      1274.4174
 04  9  8 17 21 59.9930000  0  6G20G11G16G23G25G 1
 -27407607.60949 -21349603.68046  18712737.5054   18712734.9424
      2939.3324
  -9314423.98448  -7234017.00444  20372114.3724   20372112.1964
     -1146.0794
   -608963.67646   -459424.50042  22044567.9504   22044566.4974
      4327.8344
 -18243991.62949 -14143856.75845  19794436.3724   19794431.2474
      3401.3624
 -17825129.37949 -13858320.20346  19155328.9974   19155326.8104
      -239.1334
 -22869699.37949 -17806378.20746  18443734.0214   18443732.1304
      1270.2214
 04  9  8 17 22 14.9930000  0  6G20G11G16G23G25G 1
 -27451608.20349 -21383889.86746  18704364.9034   18704361.8374
      2933.3734
  -9297154.75848  -7220560.48044  20375400.2634   20375398.8644
     -1151.2824
   -673859.43446   -509992.57042  22032217.9354   22032217.5674
      4326.3844
 -18294962.26249 -14183574.11345  19784736.4274   19784731.7474
      3398.0424
 -17821440.67249 -13855445.90646  19156031.3174   19156028.9034
      -245.9144
 -22888689.75849 -17821175.90647  18440119.8254   18440118.0324
      1266.0254
 04  9  8 17 22 29.9930000  0  6G20G11G16G23G25G 1
 -27495520.62949 -21418107.33246  18696008.6694   18696005.7594
      2927.4954
  -9279809.23048  -7207044.52044  20378701.1144   20378699.3844
     -1156.3684
   -738734.55546   -560544.53942  22019872.3494   22019872.0404
      4325.0084
 -18345884.68749 -14223253.92245  19775045.9894   19775041.4504
      3394.8284
 -17817652.06249 -13852493.74246  19156752.2634   19156749.5444
      -252.5744
 -22907618.83649 -17835925.83246  18436517.9584   18436515.7084
      1261.9394
 04  9  8 17 22 44.9930000  0  6G20G11G16G23G25G 1
 -27539341.60549 -21452253.54346  18687669.5134   18687666.7124
      2921.3984
  -9262384.90648  -7193467.13744  20382016.3334   20382014.7744
     -1161.6224
   -803585.59046   -611077.75442  22007532.4424   22007531.5404
      4323.4024
 -18396755.81648 -14262893.75445  19765365.6144   19765361.0604
      3391.4094
 -17813760.73849 -13849461.54346  19157492.6534   19157490.1464
      -259.4224
 -22926483.66449 -17850625.69946  18432928.5444   18432926.0484
      1257.6554
 04  9  8 17 22 59.9930000  0  6G20G11G16G23G25G 1
 -27583071.33249 -21486328.64846  18679347.9114   18679345.1344
      2915.3154
  -9244882.27748  -7179828.75044  20385346.8174   20385345.6614
     -1166.8424
   -868412.47346   -661592.16842  21995195.8964   21995195.0954
      4321.7924
 -18447575.93749 -14302493.83645  19755694.4354   19755690.1734
      3388.0084
 -17809767.40649 -13846349.86346  19158252.4034   19158250.3064
      -266.2224
 -22945284.64849 -17865275.82047  18429350.3174   18429348.1034
      1253.3994
 04  9  8 17 23 14.9930000  0  6G20G11G16G23G25G 1
 -27626710.30149 -21520333.03946  18671044.0604   18671040.9424
      2909.2654
  -9227302.43748  -7166130.18744  20388692.6304   20388690.8294
     -1171.9894
   -933215.50446   -712087.97342  21982863.4424   21982863.3454
      4320.2024
 -18498345.69549 -14342054.66445  19746033.9664   19746029.0564
      3384.6514
 -17805672.88349 -13843159.34846  19159031.8334   19159029.0754
      -272.9684
 -22964022.55549 -17879876.78146  18425784.8644   18425782.6104
      1249.1944
 04  9  8 17 23 29.9930000  0  6G20G11G16G23G25G 1
 -27670258.07849 -21554266.35946  18662756.5674   18662754.3254
      2903.1854
  -9209645.58248  -7152371.62144  20392052.4894   20392051.1264
     -1177.1244
   -997994.30946   -762564.90642  21970536.3334   21970536.0604
      4318.5874
 -18549064.92248 -14381576.15245  19736381.9114   19736377.6774
      3381.2824
 -17801477.36749 -13839890.12546  19159830.4034   19159828.4824
      -279.7014
 -22982697.35549 -17894428.58246  18422231.2004   18422229.0564
      1244.9874
 04  9  8 17 23 44.9930000  0  6G20G11G16G23G25G 1
 -27713714.98849 -21588128.88746  18654487.2634   18654484.4314
      2897.1274
  -9191912.63348  -7138553.76244  20395427.4664   20395425.8214
     -1182.1974
  -1062749.01246   -813023.02742  21958214.5914   21958213.4624
      4316.9804
 -18599734.29748 -14421058.77345  19726739.6694   19726735.7164
      3377.9584
 -17797181.69149 -13836542.84446  19160647.6924   19160645.0874
      -286.3784
 -23001309.74249 -17908931.73847  18418689.4824   18418687.2044
      1240.8264
 04  9  8 17 23 59.9930000  0  6G20G11G16G23G25G 1
 -27757080.71949 -21621920.35546  18646235.2084   18646232.4704
      2891.0494
  -9174103.83648  -7124676.79744  20398815.6854   20398814.6184
     -1187.2534
  -1127479.19945   -863462.10942  21945896.5284   21945895.3334
      4315.3464
 -18650353.68449 -14460502.43745  19717107.9664   19717102.5794
      3374.6264
 -17792786.09049 -13833117.71146  19161484.3104   19161481.8064
      -293.0404
 -23019859.70349 -17923386.25847  18415159.1924   18415156.8534
      1236.6644
 04  9  8 17 24 14.9930000  0  6G20G11G16G23G25G 1
 -27800353.34049 -21655639.28546  18638000.7634   18637997.9664
      2884.8414
  -9156217.80948  -7110739.64844  20402219.8884   20402218.0834
     -1192.4024
  -1192182.69146   -913880.32842  21933584.2474   21933582.5994
      4313.5664
 -18700921.33648 -14499905.79745  19707484.7004   19707480.0914
      3371.1774
 -17788289.02049 -13829613.51246  19162339.8254   19162337.3884
      -299.8054
 -23038345.51249 -17937790.77746  18411641.2714   18411639.3104
      1232.3874
 04  9  8 17 24 29.9930000  0  6G20G11G16G23G25G 1
 -27843532.15649 -21689285.11746  18629783.8804   18629781.2474
      2878.5884
  -9138254.49248  -7096742.30144  20405637.6144   20405636.4744
     -1197.5544
  -1256858.62946   -964277.13342  21921276.6774   21921275.6614
      4311.7294
 -18751436.59848 -14539268.32845  19697872.3024   19697867.2984
      3367.6844
 -17783690.08649 -13826029.92646  19163214.8644   19163212.6774
      -306.5964
 -23056766.70749 -17952144.96946  18408136.2244   18408133.8574
      1228.0804
 04  9  8 17 24 44.9930000  0  6G20G11G16G23G25G 1
 -27886619.37549 -21722859.56246  18621584.5754   18621581.6104
      2872.4814
  -9120216.64148  -7082686.86744  20409070.1614   20409068.6534
     -1202.5234
  -1321509.02046  -1014654.03542  21908974.0444   21908973.6574
      4310.0264
 -18801901.87549 -14578591.91445  19688268.9194   19688263.8024
      3364.3524
 -17778992.05949 -13822369.12946  19164108.8494   19164106.3724
      -313.2024
 -23075125.91049 -17966450.84046  18404642.5214   18404640.2394
      1223.9474
 04  9  8 17 24 59.9930000  0  6G20G11G16G23G25G 1
 -27929614.25849 -21756362.06646  18613403.1074   18613400.3214
      2866.3264
  -9102104.01648  -7068573.14843  20412517.1144   20412515.6694
     -1207.5084
  -1386133.03146  -1065010.36342  21896676.4424   21896675.5564
      4308.2674
 -18852316.74648 -14617876.23445  19678675.0134   19678670.1384
      3360.9914
 -17774194.68449 -13818630.93046  19165021.8494   19165019.2514
      -319.8254
 -23093422.62149 -17980708.03146  18401160.5914   18401158.5324
      1219.7814
 04  9  8 17 25 14.9930000  0  6G20G11G16G23G25G 1
 -27972517.81249 -21789793.41846  18605238.8964   18605235.6964
      2860.2374
  -9083918.18448  -7054402.39543  20415977.4504   20415976.3254
     -1212.3894
  -1450731.53946  -1115346.82442  21884384.3804   21884382.6814
      4306.5674
 -18902682.37549 -14657122.16445  19669091.2324   19669086.2944
      3357.7094
 -17769299.51249 -13814816.51246  19165953.5214   19165951.2004
      -326.3454
 -23111658.17249 -17994917.55146  18397690.3724   18397688.4354
      1215.7034
 04  9  8 17 25 29.9930000  0  6G20G11G16G23G25G 1
 -28015326.26249 -21823150.64546  18597092.9034   18597089.7324
      2853.8974
  -9065655.94948  -7040172.11743  20419452.6774   20419451.0994
     -1217.4824
  -1515300.71946  -1165660.42242  21872096.2004   21872096.2354
      4304.6124
 -18952995.20348 -14696326.97345  19659516.7084   19659512.0324
      3354.1894
 -17764303.14149 -13810923.23446  19166904.2784   19166901.5604
      -333.0914
 -23129829.12949 -18009076.73047  18394232.6074   18394230.8414
      1211.3974
 04  9  8 17 25 44.9930000  0  6G20G11G16G23G25G 1
 -28058041.60249 -21856435.32446  18588964.0444   18588961.3174
      2847.6894
  -9047319.95347  -7025884.34444  20422942.8254   20422941.1494
     -1222.4004
  -1579842.38346  -1215952.58642  21859813.8964   21859813.5834
      4302.7784
 -19003257.56248 -14735492.44145  19649952.4194   19649947.2634
      3350.8244
 -17759208.26649 -13806953.21946  19167873.8494   19167871.4234
      -339.6584
 -23147937.88749 -18023187.45746  18390786.7394   18390784.5604
      1207.2514
 04  9  8 17 25 59.9930000  0  6G20G11G16G23G25G 1
 -28100663.23049 -21889646.97346  18580853.4974   18580850.6184
      2841.4424
  -9028910.19147  -7011539.12544  20426445.4194   20426444.0644
     -1227.3174
  -1644355.77347  -1266222.71142  21847537.9114   21847537.0054
      4300.8934
 -19053468.94948 -14774618.19145  19640397.3104   19640392.3024
      3347.4264
 -17754014.73449 -13802906.30546  19168861.6224   19168859.5444
      -346.2354
 -23165984.01249 -18037249.37546  18387352.8964   18387350.3924
      1203.0754
 04  9  8 17 26 14.9930000  0  6G20G11G16G23G25G 1
 -28143191.91049 -21922786.20346  18572760.6224   18572758.0174
      2835.2454
  -9010428.00048  -6997137.43044  20429962.5214   20429961.6034
     -1232.1464
  -1708841.39547  -1316471.18442  21835266.7784   21835265.7594
      4299.0414
 -19103630.32849 -14813704.96545  19630851.7084   19630847.0094
      3344.0924
 -17748723.62549 -13798783.37946  19169868.8334   19169866.4194
      -352.7414
 -23183968.62149 -18051263.35546  18383930.1074   18383928.0914
      1198.9744
 04  9  8 17 26 29.9930000  0  6G20G11G16G23G25G 1
 -28185625.38349 -21955851.24646  18564685.8254   18564683.1034
      2828.8984
  -8991871.53548  -6982677.88344  20433493.5604   20433492.5484
     -1237.0984
  -1773296.76647  -1366696.13342  21823001.5604   21823000.2164
      4297.0254
 -19153739.59049 -14852751.12545  19621316.0834   19621311.4974
      3340.6174
 -17743333.24249 -13794583.07846  19170894.7244   19170892.4744
      -359.3594
 -23201889.60249 -18065227.77046  18380520.1224   18380518.1344
      1194.7324
 04  9  8 17 26 44.9930000  0  6G20G11G16G23G25G 1
 -28227963.96149 -21988842.34046  18556629.4504   18556626.3534
      2822.5724
  -8973241.81648  -6968161.23844  20437039.2084   20437038.1534
     -1241.9814
  -1837722.22347  -1416897.71142  21810741.4504   21810740.2554
      4295.0304
 -19203797.32448 -14891757.15645  19611791.1614   19611785.8764
      3337.1824
 -17737844.22749 -13790305.91846  19171938.9824   19171937.4114
      -365.9344
 -23219747.70749 -18079143.18046  18377121.8174   18377119.6964
      1190.5404
 04  9  8 17 26 59.9930000  0  6G20G11G16G23G25G 1
 -28270207.41449 -22021759.31246  18548590.1774   18548587.5674
      2816.2304
  -8954539.30148  -6953587.88344  20440597.6304   20440596.4624
     -1246.8344
  -1902117.37947  -1467075.75042  21798487.7784   21798485.5714
      4293.0104
 -19253803.43748 -14930722.94945  19602274.4974   19602270.0524
      3333.7414
 -17732257.13349 -13785952.35946  19173002.3024   19173000.1074
      -372.4734
 -23237543.05549 -18093009.68446  18373735.4744   18373733.1424
      1186.3574
 04  9  8 17 27 14.9930000  0  6G20G11G16G23G25G 1
 -28312355.24249 -22054601.76646  18540569.8574   18540566.8644
      2809.8554
  -8935763.90248  -6938957.71144  20444171.0524   20444169.0054
     -1251.6934
  -1966481.59046  -1517229.63342  21786239.7864   21786238.8454
      4290.9474
 -19303757.71148 -14969648.34445  19592768.7634   19592764.1774
      3330.2854
 -17726571.82049 -13781522.26246  19174084.4034   19174081.9354
      -379.0214
 -23255275.40649 -18106827.10246  18370360.9424   18370359.1494
      1182.1574
 04  9  8 17 27 29.9930000  0  6G20G11G16G23G25G 1
 -28354407.71549 -22087369.92646  18532567.4034   18532564.9074
      2803.4984
  -8916916.49648  -6924271.43744  20447757.2634   20447755.4854
     -1256.4944
  -2030814.98447  -1567359.51242  21773997.0834   21773995.8374
      4288.8934
 -19353660.68048 -15008533.77345  19583272.5444   19583267.4854
      3326.8654
 -17720789.11349 -13777016.25046  19175184.5284   19175181.7204
      -385.5144
 -23272945.36349 -18120595.90247  18366998.5754   18366996.4624
      1177.9974
 04  9  8 17 27 44.9930000  0  6G20G11G16G23G25G 1
 -28396364.45749 -22120063.49646  18524583.5134   18524580.7084
      2797.1164
  -8897997.33648  -6909529.25043  20451357.1224   20451355.9314
     -1261.2774
  -2095117.00047  -1617464.93742  21761760.8254   21761759.0994
      4286.8014
 -19403511.98849 -15047378.94545  19573786.2324   19573781.3844
      3323.4214
 -17714909.00849 -13772434.34846  19176303.8334   19176301.0994
      -392.0074
 -23290552.82849 -18134316.00846  18363647.9584   18363646.0794
      1173.8314
 04  9  8 17 27 59.9930000  0  6G20G11G16G23G25G 1
 -28438225.46549 -22152682.45346  18516617.1774   18516614.8294
      2790.7344
  -8879006.71548  -6894731.41044  20454971.5364   20454969.7244
     -1266.0414
  -2159387.35947  -1667545.68042  21749530.4824   21749529.4114
      4284.6914
 -19453311.96148 -15086184.10545  19564309.1304   19564304.6224
      3319.9984
 -17708931.91449 -13767776.87146  19177440.7004   19177438.3294
      -398.4734
 -23308098.03949 -18147987.60547  18360309.3104   18360307.4744
      1169.6814
 04  9  8 17 28 14.9930000  0  6G20G11G16G23G25G 1
 -28479990.59849 -22185226.71546  18508670.0364   18508666.9154
      2784.3424
  -8859945.33648  -6879878.41444  20458599.0134   20458597.1104
     -1270.7594
  -2223625.95347  -1717601.72342  21737306.3104   21737305.3604
      4282.5734
 -19503060.58248 -15124949.27045  19554842.5364   19554838.0244
      3316.5754
 -17702858.33249 -13763044.23046  19178596.9194   19178594.5714
      -404.9054
 -23325581.23449 -18161610.87946  18356982.3724   18356980.5054
      1165.5464
 04  9  8 17 28 29.9930000  0  6G20G11G16G23G25G 1
 -28521657.46549 -22217694.39846  18500740.9034   18500738.0214
      2777.7914
  -8840811.43048  -6864968.89543  20462240.4424   20462238.4744
     -1275.5944
  -2287830.12547  -1767630.90242  21725089.2634   21725087.4664
      4280.2784
 -19552755.66849 -15163672.69545  19545385.5914   19545381.3724
      3313.0064
 -17696686.19949 -13758234.77746  19179771.3174   19179768.7824
      -411.4764
 -23343000.32849 -18175184.20746  18353667.5674   18353665.7594
      1161.2734
 04  9  8 17 28 44.9930000  0  6G20G11G16G23G25G 1
 -28563228.40649 -22250087.33646  18492829.9274   18492827.2324
      2771.3964
  -8821607.78148  -6850005.04744  20465893.8334   20465892.7824
     -1280.2434
  -2352002.19147  -1817635.05142  21712877.0054   21712875.7864
      4278.1384
 -19602399.83648 -15202356.46945  19535938.9354   19535934.5444
      3309.6114
 -17690418.30949 -13753350.70746  19180963.9114   19180961.5644
      -417.8594
 -23360357.93449 -18188709.61746  18350364.5524   18350362.2674
      1157.1744
 04  9  8 17 28 59.9930000  0  6G20G11G16G23G25G 1
 -28604701.32449 -22282403.88746  18484938.2084   18484934.9194
      2764.8614
  -8802332.87148  -6834985.66844  20469562.1774   20469560.8374
     -1284.9944
  -2416139.73446  -1867612.32842  21700671.7244   21700670.5994
      4275.8364
 -19651991.05949 -15240998.96545  19526501.8724   19526497.6184
      3306.0824
 -17684053.10249 -13748390.81646  19182175.4504   19182173.2674
      -424.3474
 -23377652.18449 -18202185.66046  18347073.8494   18347071.8064
      1152.9504
 04  9  8 17 29 14.9930000  0  6G20G11G16G23G25G 1
 -28646078.66849 -22314645.97346  18477064.1224   18477061.2434
      2758.4904
  -8782989.76648  -6819913.14844  20473243.4424   20473241.6074
     -1289.5404
  -2480245.21546  -1917564.63342  21688474.0994   21688471.9894
      4273.6994
 -19701532.11749 -15279602.38745  19517074.8254   19517070.3254
      3302.7374
 -17677593.62949 -13743357.46546  19183404.4824   19183402.2674
      -430.6324
 -23394885.87149 -18215614.50846  18343794.1304   18343792.3724
      1148.9134
 04  9  8 17 29 29.9930000  0  6G20G11G16G23G25G 1
 -28687359.45349 -22346812.81646  18469208.7324   18469205.7554
      2752.0524
  -8763578.04748  -6804787.15644  20476936.8804   20476936.0754
     -1294.1154
  -2544317.47346  -1967491.02342  21676281.0604   21676278.9544
      4271.4844
 -19751022.13348 -15318166.03145  19507656.9664   19507652.5094
      3299.3344
 -17671039.40249 -13738250.27346  19184651.6534   19184649.8884
      -436.9484
 -23412058.40249 -18228995.70346  18340526.0604   18340524.1224
      1144.8354
 04  9  8 17 29 44.9930000  0  6G20G11G16G23G25G 1
 -28728543.33649 -22378904.15646  18461371.5444   18461368.7164
      2745.5924
  -8744097.89148  -6789607.83244  20480643.9824   20480642.6074
     -1298.6774
  -2608355.79746  -2017390.97342  21664093.8104   21664093.2244
      4269.2224
 -19800461.05948 -15356689.85545  19498249.0284   19498244.7244
      3295.9284
 -17664390.45349 -13733069.28946  19185917.1464   19185914.5604
      -443.2634
 -23429169.60949 -18242329.10946  18337270.2004   18337268.5524
      1140.7474
 04  9  8 17 29 59.9930000  0  6G20G11G16G23G25G 1
 -28769629.07449 -22410919.01646  18453553.5604   18453550.2324
      2739.0494
  -8724548.69548  -6774374.73044  20484363.8104   20484362.8254
     -1303.2804
  -2672358.86747  -2067263.45742  21651915.7244   21651913.8964
      4266.8714
 -19849847.77048 -15395173.00045  19488850.7474   19488846.2864
      3292.4474
 -17657645.98849 -13727813.87146  19187200.5134   19187198.1894
      -449.6314
 -23446218.53549 -18255613.99247  18334025.8334   18334023.9154
      1136.5954
 04  9  8 17 30 14.9930000  0  6G20G11G16G23G25G 1
 -28810618.11749 -22442858.52746  18445753.4194   18445750.3414
      2732.6034
  -8704932.54348  -6759089.46544  20488097.3254   20488095.6654
     -1307.7434
  -2736328.04746  -2117109.52342  21639741.8574   21639741.4974
      4264.6124
 -19899184.03949 -15433616.84045  19479462.9274   19479458.1224
      3289.0854
 -17650807.98849 -13722485.56646  19188501.9894   19188499.4784
      -455.8674
 -23463207.00849 -18268851.77347  18330793.0444   18330791.0794
      1132.5654
 04  9  8 17 30 29.9930000  0  6G20G11G16G23G25G 1
 -28851509.13348 -22474721.64846  18437972.1614   18437968.9664
      2726.0684
  -8685248.62548  -6743751.35544  20491842.5134   20491841.2864
     -1312.2614
  -2800261.89846  -2166928.09042  21627575.9584   21627574.8964
      4262.2574
 -19948468.53949 -15472020.34445  19470084.4744   19470079.5364
      3285.6334
 -17643875.65249 -13717083.72746  19189820.7164   19189818.8374
      -462.1564
 -23480133.98049 -18282041.62946  18327572.1614   18327569.6614
      1128.4654
 04  9  8 17 30 44.9930000  0  6G20G11G16G23G25G 1
 -28892303.28948 -22506509.32046  18430209.3964   18430206.0714
      2719.6104
  -8665498.57848  -6728361.73444  20495601.0524   20495599.4354
     -1316.6704
  -2864161.37146  -2216719.83642  21615416.0834   21615414.9824
      4259.9654
 -19997702.68748 -15510384.61745  19460715.0214   19460710.8254
      3282.2774
 -17636850.55949 -13711609.64846  19191157.6464   19191155.4194
      -468.3404
 -23497000.93449 -18295184.69546  18324362.0914   18324360.1574
      1124.4644
 04  9  8 17 30 59.9930000  0  6G20G11G16G23G25G 1
 -28932997.89149 -22538219.39146  18422465.5754   18422462.3684
      2712.9734
  -8645680.33248  -6712918.98844  20499372.8804   20499371.1464
     -1321.2164
  -2928023.60546  -2266482.55942  21603263.7784   21603262.5994
      4257.4824
 -20046884.03949 -15548707.73445  19451356.2634   19451351.8374
      3278.7574
 -17629730.57849 -13706061.60946  19192512.5524   19192510.5444
      -474.6654
 -23513805.42249 -18308279.10946  18321164.6464   18321162.2474
      1120.2994
